ftp/pub/palmer/observations_modified/2019/October/original_files/AR191009_BASE.txt
Download
Sample DateTime Unit Id WS Avg 2min WD Avg 2min WGS 10min WGD 10min Air Temp Rel Humidity Dew Point Pyranometer Quantum Air Pressure Snow Level Rainfall PW Current Visibility CBase 1 CBase 2 CBase 3 Vert Vis
2019/10/09 00:00:00 BASE 2.14 159 2.42 163 -4.2 100 -4.2 0 0 967.3 NA 0.0000 -SN 7000 3080 4130 0 0
2019/10/09 00:01:00 BASE 2.11 155 2.42 163 -4.2 100 -4.2 0 0 967.3 NA 0.0000 -SN BR 8000 4070 0 0 0
2019/10/09 00:02:00 BASE 2.25 163 2.78 179 -4.2 100 -4.2 0 0 967.2 NA 0.0000 -SN BR 6000 0 0 0 4790
2019/10/09 00:03:00 BASE 2.79 178 3.50 191 -4.2 100 -4.2 0 0 967.2 NA 0.0000 -SN BR 5000 0 0 0 4560
2019/10/09 00:04:00 BASE 3.46 188 3.81 189 -4.2 100 -4.2 0 0 967.2 NA 0.0000 -SN BR 4100 0 0 0 4820
2019/10/09 00:05:00 BASE 3.85 190 4.12 190 -4.3 100 -4.3 0 0 967.2 NA 0.0000 -SN BR 3500 0 0 0 4990
2019/10/09 00:06:00 BASE 3.83 186 4.12 190 -4.3 100 -4.3 0 0 967.2 NA 0.0000 -SN BR 3500 3940 0 0 0
2019/10/09 00:07:00 BASE 3.27 179 4.12 190 -4.3 100 -4.3 0 0 967.2 NA 0.0000 -SN BR 3300 0 0 0 1940
2019/10/09 00:08:00 BASE 2.40 168 4.12 190 -4.3 100 -4.3 0 0 967.2 NA 0.0000 -SN BR 3500 0 0 0 1740
2019/10/09 00:09:00 BASE 1.66 153 4.12 190 -4.2 100 -4.2 0 0 967.3 NA 0.0000 -SN BR 3300 3310 0 0 0
2019/10/09 00:10:00 BASE 1.17 139 4.12 190 -4.2 100 -4.2 0 0 967.3 NA 0.0000 -SN BR 3600 3310 0 0 0
2019/10/09 00:11:00 BASE 0.96 132 4.12 190 -4.2 100 -4.2 0 0 967.3 NA 0.0000 -SN BR 3700 3940 0 0 0
2019/10/09 00:12:00 BASE 1.06 135 4.12 190 -4.3 100 -4.3 0 0 967.3 NA 0.0000 -SN BR 4600 4100 0 0 0
2019/10/09 00:13:00 BASE 1.33 143 4.12 190 -4.3 100 -4.3 0 0 967.3 NA 0.0000 -SN BR 4700 3670 0 0 0
2019/10/09 00:14:00 BASE 1.58 153 4.12 190 -4.3 100 -4.3 0 0 967.3 NA 0.0000 -SN BR 4400 4040 0 0 0
2019/10/09 00:15:00 BASE 1.94 164 3.96 187 -4.3 100 -4.3 0 0 967.3 NA 0.0000 -SN BR 4400 4040 0 0 0
2019/10/09 00:16:00 BASE 2.27 169 3.29 180 -4.3 100 -4.3 0 0 967.3 NA 0.0000 -SN BR 5000 4330 0 0 0
2019/10/09 00:17:00 BASE 2.28 168 2.52 172 -4.2 100 -4.2 0 0 967.3 NA 0.0000 -SN BR 5000 0 0 0 1640
2019/10/09 00:18:00 BASE 2.07 169 2.52 172 -4.2 100 -4.2 0 0 967.2 NA 0.0000 -SN BR 9000 4070 0 0 0
2019/10/09 00:19:00 BASE 1.85 174 2.52 172 -4.2 100 -4.2 0 0 967.2 NA 0.0000 -SN BR 9999 3540 0 0 0
2019/10/09 00:20:00 BASE 1.74 182 2.52 172 -4.2 100 -4.2 0 0 967.2 NA 0.0000 -SN BR 9999 3480 0 0 0
2019/10/09 00:21:00 BASE 1.69 189 2.52 172 -4.2 100 -4.2 0 0 967.2 NA 0.0000 -SN BR 9999 4040 0 0 0
2019/10/09 00:22:00 BASE 1.56 197 2.52 172 -4.2 100 -4.2 0 0 967.2 NA 0.0000 -SN BR 6000 4130 0 0 0
2019/10/09 00:23:00 BASE 1.39 212 2.52 172 -4.2 100 -4.2 0 0 967.2 NA 0.0000 -SN BR 7000 4040 0 0 0
2019/10/09 00:24:00 BASE 1.03 233 2.52 172 -4.2 100 -4.2 0 0 967.2 NA 0.0000 -SN BR 6000 4000 0 0 0
2019/10/09 00:25:00 BASE 0.37 250 2.52 172 -4.2 100 -4.2 0 0 967.1 NA 0.0000 -SN BR 9999 4230 0 0 0
2019/10/09 00:26:00 BASE 0.09 254 2.31 169 -4.2 100 -4.2 0 0 967.1 NA 0.0000 -SN BR 9999 0 0 0 1350
2019/10/09 00:27:00 BASE 0.09 248 2.21 177 -4.2 100 -4.2 0 0 967.1 NA 0.0000 -SN BR 9999 4660 0 0 0
2019/10/09 00:28:00 BASE 0.00 228 1.85 176 -4.2 100 -4.2 0 0 967.1 NA 0.0000 -SN 9999 4790 0 0 0
2019/10/09 00:29:00 BASE 0.00 200 1.80 191 -4.2 100 -4.2 0 0 967.1 NA 0.0000 -SN 9999 0 0 0 4720
2019/10/09 00:30:00 BASE 0.00 172 1.80 191 -4.2 100 -4.2 0 0 967.1 NA 0.0000 -SN 9999 3280 0 0 0
2019/10/09 00:31:00 BASE 0.47 139 1.75 201 -4.2 100 -4.2 0 0 967.0 NA 0.0000 -SN 9999 4040 0 0 0
2019/10/09 00:32:00 BASE 1.38 116 2.21 115 -4.2 100 -4.2 0 0 967.0 NA 0.0000 -SN 9999 3610 0 0 0
2019/10/09 00:33:00 BASE 2.16 115 2.93 118 -4.3 100 -4.3 0 0 967.0 NA 0.0000 -SN 9999 3840 0 0 0
2019/10/09 00:34:00 BASE 2.77 117 3.19 115 -4.3 100 -4.3 0 0 967.0 NA 0.0000 -SN 9999 620 0 0 0
2019/10/09 00:35:00 BASE 3.08 116 3.29 114 -4.3 100 -4.3 0 0 967.0 NA 0.0000 -SN 9000 590 0 0 0
2019/10/09 00:36:00 BASE 2.65 116 3.29 114 -4.3 100 -4.3 0 0 967.1 NA 0.0000 -SN 8000 490 0 0 0
2019/10/09 00:37:00 BASE 2.01 120 3.29 114 -4.3 100 -4.3 0 0 967.1 NA 0.0000 -SN 5000 490 0 0 0
2019/10/09 00:38:00 BASE 1.65 123 3.29 114 -4.3 100 -4.3 0 0 967.0 NA 0.0000 -SN BR 4500 390 0 0 0
2019/10/09 00:39:00 BASE 1.56 125 3.29 114 -4.2 100 -4.2 0 0 967.0 NA 0.0000 -SN BR 5000 0 0 0 4270
2019/10/09 00:40:00 BASE 1.76 127 3.29 114 -4.2 100 -4.2 0 0 967.0 NA 0.0000 -SN BR 4400 0 0 0 3940
2019/10/09 00:41:00 BASE 2.10 130 3.29 114 -4.2 100 -4.2 0 0 967.0 NA 0.0000 -SN BR 3600 360 0 0 0
2019/10/09 00:42:00 BASE 2.55 128 3.29 114 -4.2 100 -4.2 0 0 967.0 NA 0.0000 -SN BR 3500 330 0 0 0
2019/10/09 00:43:00 BASE 2.98 121 3.34 121 -4.2 100 -4.2 0 0 967.0 NA 0.0000 -SN BR 3500 0 0 0 3740
2019/10/09 00:44:00 BASE 3.28 119 3.65 123 -4.2 100 -4.2 0 0 967.0 NA 0.0000 -SN BR 3100 330 0 0 0
2019/10/09 00:45:00 BASE 3.42 120 3.65 123 -4.2 100 -4.2 0 0 967.0 NA 0.0000 -SN BR 3000 360 0 0 0
2019/10/09 00:46:00 BASE 3.42 119 3.65 123 -4.2 100 -4.2 0 0 967.0 NA 0.0000 -SN BR 2800 330 0 0 0
2019/10/09 00:47:00 BASE 3.46 117 3.91 115 -4.3 100 -4.3 0 0 967.0 NA 0.0000 -SN BR 2500 0 0 0 3080
2019/10/09 00:48:00 BASE 3.74 112 4.17 108 -4.3 100 -4.3 0 0 967.0 NA 0.0000 -SN BR 2400 300 0 0 0
2019/10/09 00:49:00 BASE 3.98 109 4.22 105 -4.3 100 -4.3 0 0 967.0 NA 0.0000 -SN BR 2300 260 0 0 0
2019/10/09 00:50:00 BASE 3.87 109 4.22 105 -4.3 100 -4.3 0 0 967.0 NA 0.0000 -SN BR 2500 300 0 0 0
2019/10/09 00:51:00 BASE 3.32 116 4.22 105 -4.3 100 -4.3 0 0 967.0 NA 0.0000 -SN BR 2800 300 0 0 0
2019/10/09 00:52:00 BASE 2.79 128 4.22 105 -4.4 100 -4.4 0 0 966.9 NA 0.0000 -SN BR 2200 0 0 0 2360
2019/10/09 00:53:01 BASE 2.61 135 4.22 105 -4.4 100 -4.4 0 0 966.8 NA 0.0000 -SN BR 2100 260 0 0 0
2019/10/09 00:54:00 BASE 2.87 134 4.22 105 -4.3 100 -4.4 0 0 966.8 NA 0.0000 -SN BR 2200 0 0 0 1740
2019/10/09 00:55:00 BASE 3.53 134 4.22 136 -4.3 100 -4.3 0 0 966.8 NA 0.0000 -SN BR 1600 0 0 0 1710
2019/10/09 00:56:00 BASE 4.13 133 4.48 131 -4.3 100 -4.3 0 0 966.8 NA 0.0000 -SN BR 1300 0 0 0 1710
2019/10/09 00:57:00 BASE 4.32 132 4.53 131 -4.3 100 -4.3 0 0 966.8 NA 0.0000 -SN BR 1500 0 0 0 1670
2019/10/09 00:58:00 BASE 4.21 135 4.53 131 -4.3 100 -4.3 0 0 966.8 NA 0.0000 -SN BR 1400 0 0 0 1570
2019/10/09 00:59:00 BASE 4.15 141 4.53 131 -4.3 100 -4.3 0 0 966.8 NA 0.0000 -SN BR 1300 0 0 0 1440
2019/10/09 01:00:00 BASE 3.88 144 4.53 131 -4.3 100 -4.3 0 0 966.8 NA 0.0000 -SN BR 1100 0 0 0 1350
2019/10/09 01:01:00 BASE 3.75 143 4.53 131 -4.3 100 -4.3 0 0 966.8 NA 0.0000 -SN BR 0900 0 0 0 1310
2019/10/09 01:02:00 BASE 3.80 139 4.53 131 -4.3 100 -4.3 0 0 966.8 NA 0.0000 -SN BR 1000 0 0 0 1350
2019/10/09 01:03:00 BASE 3.58 136 4.53 131 -4.3 100 -4.3 0 0 966.8 NA 0.0000 -SN BR 1200 0 0 0 1410
2019/10/09 01:04:00 BASE 3.33 139 4.53 131 -4.3 100 -4.3 0 0 966.8 NA 0.0000 -SN BR 1200 0 0 0 1310
2019/10/09 01:05:00 BASE 3.15 142 4.53 131 -4.3 100 -4.3 0 0 966.8 NA 0.0000 -SN BR 1200 0 0 0 1280
2019/10/09 01:06:00 BASE 3.12 145 4.53 131 -4.3 100 -4.3 0 0 966.8 NA 0.0000 -SN BR 1300 0 0 0 1310
2019/10/09 01:07:00 BASE 3.22 151 4.48 138 -4.3 100 -4.3 0 0 966.8 NA 0.0000 -SN BR 1300 0 0 0 1310
2019/10/09 01:08:00 BASE 3.31 156 4.32 144 -4.3 100 -4.3 0 0 966.8 NA 0.0000 -SN BR 1400 0 0 0 1350
2019/10/09 01:09:00 BASE 3.39 157 4.12 141 -4.3 100 -4.3 0 0 966.8 NA 0.0000 -SN BR 1600 0 0 0 1310
2019/10/09 01:10:00 BASE 3.34 157 4.12 141 -4.3 100 -4.3 0 0 966.8 NA 0.0000 -SN BR 1700 0 0 0 1380
2019/10/09 01:11:00 BASE 3.31 157 3.91 135 -4.4 100 -4.4 0 0 966.8 NA 0.0000 -SN BR 1800 0 0 0 1540
2019/10/09 01:12:00 BASE 3.37 154 3.76 135 -4.4 100 -4.4 0 0 966.8 NA 0.0000 -SN BR 1800 0 0 0 1640
2019/10/09 01:13:00 BASE 3.33 151 3.55 152 -4.4 100 -4.4 0 0 966.8 NA 0.0000 -SN BR 1600 0 0 0 1670
2019/10/09 01:14:00 BASE 3.17 149 3.55 152 -4.4 100 -4.4 0 0 966.8 NA 0.0000 -SN BR 1600 0 0 0 1900
2019/10/09 01:15:00 BASE 3.02 151 3.55 152 -4.4 100 -4.4 0 0 966.8 NA 0.0000 -SN BR 2000 0 0 0 2030
2019/10/09 01:16:00 BASE 2.94 152 3.55 152 -4.3 100 -4.3 0 0 966.8 NA 0.0000 -SN BR 2100 0 0 0 2100
2019/10/09 01:17:00 BASE 2.99 150 3.55 152 -4.3 100 -4.3 0 0 966.7 NA 0.0000 -SN BR 2500 0 0 0 2170
2019/10/09 01:18:00 BASE 3.10 150 3.55 152 -4.3 100 -4.3 0 0 966.7 NA 0.0000 -SN BR 2600 0 0 0 2170
2019/10/09 01:19:00 BASE 3.14 149 3.55 152 -4.3 100 -4.3 0 0 966.7 NA 0.0000 -SN BR 2400 0 0 0 2260
2019/10/09 01:20:00 BASE 3.18 150 3.55 152 -4.3 100 -4.3 0 0 966.7 NA 0.0000 -SN BR 2500 0 0 0 2260
2019/10/09 01:21:00 BASE 3.16 150 3.55 152 -4.4 100 -4.4 0 0 966.7 NA 0.0000 -SN BR 2600 0 0 0 2360
2019/10/09 01:22:00 BASE 3.12 151 3.40 154 -4.4 100 -4.4 0 0 966.7 NA 0.0000 -SN BR 2700 0 0 0 2330
2019/10/09 01:23:00 BASE 3.13 153 3.34 149 -4.4 100 -4.4 0 0 966.7 NA 0.0000 -SN BR 2700 0 0 0 2260
2019/10/09 01:24:00 BASE 3.05 153 3.34 149 -4.4 100 -4.4 0 0 966.7 NA 0.0000 -SN BR 2700 0 0 0 2230
2019/10/09 01:25:00 BASE 2.85 153 3.34 149 -4.4 100 -4.4 0 0 966.7 NA 0.0000 -SN BR 2800 0 0 0 2200
2019/10/09 01:26:00 BASE 2.66 154 3.34 149 -4.4 100 -4.4 0 0 966.7 NA 0.0000 -SN BR 2900 0 0 0 2170
2019/10/09 01:27:00 BASE 2.37 155 3.34 149 -4.4 100 -4.4 0 0 966.7 NA 0.0000 -SN BR 3100 0 0 0 2130
2019/10/09 01:28:00 BASE 2.13 157 3.34 149 -4.4 100 -4.4 0 0 966.7 NA 0.0000 -SN BR 3000 0 0 0 2100
2019/10/09 01:29:00 BASE 1.94 164 3.34 149 -4.4 100 -4.4 0 0 966.7 NA 0.0000 -SN BR 2800 0 0 0 2070
2019/10/09 01:30:00 BASE 1.62 170 3.34 149 -4.4 100 -4.4 0 0 966.7 NA 0.0000 -SN BR 2700 0 0 0 2030
2019/10/09 01:31:00 BASE 1.31 175 3.29 154 -4.4 100 -4.4 0 0 966.7 NA 0.0000 -SN BR 2700 0 0 0 1970
2019/10/09 01:32:00 BASE 0.63 179 3.24 154 -4.4 100 -4.4 0 0 966.7 NA 0.0000 -SN BR 3000 0 0 0 2000
2019/10/09 01:33:00 BASE 0.04 180 3.09 155 -4.4 100 -4.4 0 0 966.7 NA 0.0000 -SN BR 3200 0 0 0 1970
2019/10/09 01:34:00 BASE 0.00 181 2.83 155 -4.4 100 -4.4 0 0 966.7 NA 0.0000 -SN BR 3000 0 0 0 1970
2019/10/09 01:35:00 BASE 0.00 181 2.73 155 -4.4 100 -4.4 0 0 966.7 NA 0.0000 -SN BR 3100 0 0 0 1970
2019/10/09 01:36:00 BASE 0.00 181 2.37 153 -4.4 100 -4.4 0 0 966.7 NA 0.0000 -SN BR 3400 0 0 0 1970
2019/10/09 01:37:00 BASE 0.00 197 2.21 157 -4.4 100 -4.4 0 0 966.7 NA 0.0000 -SN BR 3400 0 0 0 1940
2019/10/09 01:38:00 BASE 0.00 252 2.01 163 -4.4 100 -4.4 0 0 966.7 NA 0.0000 -SN BR 3400 0 0 0 1870
2019/10/09 01:39:00 BASE 0.00 293 1.70 171 -4.4 100 -4.4 0 0 966.7 NA 0.0000 -SN BR 3400 0 0 0 1900
2019/10/09 01:40:00 BASE 0.27 306 1.29 172 -4.4 100 -4.4 0 0 966.7 NA 0.0000 -SN BR 3300 0 0 0 1940
2019/10/09 01:41:00 BASE 0.91 310 1.44 315 -4.4 100 -4.4 0 0 966.7 NA 0.0000 -SN BR 3200 0 0 0 1970
2019/10/09 01:42:00 BASE 1.46 318 1.85 335 -4.4 100 -4.4 0 0 966.7 NA 0.0000 -SN BR 3200 0 0 0 1970
2019/10/09 01:43:00 BASE 1.74 329 1.95 333 -4.4 100 -4.4 0 0 966.7 NA 0.0000 -SN BR 3100 0 0 0 2000
2019/10/09 01:44:00 BASE 1.61 329 1.95 333 -4.4 100 -4.4 0 0 966.7 NA 0.0000 -SN BR 2900 0 0 0 2030
2019/10/09 01:45:00 BASE 0.86 320 1.95 333 -4.4 100 -4.4 0 0 966.7 NA 0.0000 -SN BR 3100 0 0 0 2030
2019/10/09 01:46:00 BASE 0.18 311 1.95 333 -4.4 100 -4.4 0 0 966.7 NA 0.0000 -SN BR 3500 0 0 0 2100
2019/10/09 01:47:00 BASE 0.00 302 1.95 333 -4.4 100 -4.4 0 0 966.7 NA 0.0000 -SN BR 3300 0 0 0 2030
2019/10/09 01:48:00 BASE 0.00 300 1.95 333 -4.4 100 -4.4 0 0 966.7 NA 0.0000 -SN BR 3300 0 0 0 2000
2019/10/09 01:49:00 BASE 0.18 301 1.95 333 -4.4 100 -4.4 0 0 966.7 NA 0.0000 -SN BR 3500 0 0 0 2030
2019/10/09 01:50:00 BASE 0.82 305 1.95 333 -4.4 100 -4.4 0 0 966.7 NA 0.0000 -SN BR 3800 0 0 0 2030
2019/10/09 01:51:00 BASE 1.32 306 1.95 333 -4.4 100 -4.4 0 0 966.7 NA 0.0000 -SN BR 3800 0 0 0 2030
2019/10/09 01:52:00 BASE 1.27 304 1.95 333 -4.4 100 -4.4 0 0 966.7 NA 0.0000 -SN BR 3800 0 0 0 2100
2019/10/09 01:53:00 BASE 1.16 304 1.65 332 -4.4 100 -4.4 0 0 966.7 NA 0.0000 -SN BR 3700 0 0 0 2200
2019/10/09 01:54:00 BASE 1.16 304 1.44 303 -4.4 100 -4.4 0 0 966.7 NA 0.0000 -SN BR 3600 0 0 0 2300
2019/10/09 01:55:00 BASE 1.18 303 1.44 303 -4.4 100 -4.4 0 0 966.7 NA 0.0000 -SN BR 3400 0 0 0 2330
2019/10/09 01:56:00 BASE 1.09 298 1.44 303 -4.4 100 -4.4 0 0 966.7 NA 0.0000 -SN BR 3400 0 0 0 2330
2019/10/09 01:57:00 BASE 0.91 289 1.44 303 -4.4 100 -4.4 0 0 966.7 NA 0.0000 -SN BR 3300 0 0 0 2300
2019/10/09 01:58:00 BASE 0.68 284 1.44 303 -4.4 100 -4.4 0 0 966.7 NA 0.0000 -SN BR 3500 0 0 0 2300
2019/10/09 01:59:00 BASE 0.31 285 1.44 303 -4.4 100 -4.4 0 0 966.7 NA 0.0000 -SN BR 3700 0 0 0 2330
2019/10/09 02:00:00 BASE 0.09 287 1.44 303 -4.4 100 -4.4 0 0 966.7 NA 0.0000 -SN BR 3600 0 0 0 2400
2019/10/09 02:01:00 BASE 0.26 287 1.29 303 -4.4 100 -4.4 0 0 966.7 NA 0.0000 -SN BR 3800 0 0 0 2360
2019/10/09 02:02:00 BASE 0.80 287 1.34 287 -4.4 100 -4.4 0 0 966.7 NA 0.0000 -SN BR 3700 0 0 0 2400
2019/10/09 02:03:00 BASE 1.28 287 1.44 287 -4.4 100 -4.4 0 0 966.6 NA 0.0000 -SN BR 3600 0 0 0 2460
2019/10/09 02:04:00 BASE 1.51 287 1.80 287 -4.4 100 -4.4 0 0 966.6 NA 0.0000 -SN BR 3700 0 0 0 2460
2019/10/09 02:05:00 BASE 1.75 287 2.01 287 -4.4 100 -4.4 0 0 966.6 NA 0.0000 -SN BR 3400 0 0 0 2430
2019/10/09 02:06:00 BASE 1.93 291 2.06 291 -4.4 100 -4.4 0 0 966.6 NA 0.0000 -SN BR 3400 0 0 0 2400
2019/10/09 02:07:00 BASE 1.91 295 2.06 291 -4.4 100 -4.4 0 0 966.6 NA 0.0000 -SN BR 3500 0 0 0 2360
2019/10/09 02:08:00 BASE 1.97 296 2.31 295 -4.4 100 -4.4 0 0 966.6 NA 0.0000 -SN BR 3400 0 0 0 2360
2019/10/09 02:09:00 BASE 2.13 296 2.37 295 -4.4 100 -4.4 0 0 966.6 NA 0.0000 -SN BR 3400 0 0 0 2300
2019/10/09 02:10:00 BASE 2.13 296 2.42 293 -4.4 100 -4.4 0 0 966.6 NA 0.0000 -SN BR 3600 0 0 0 2300
2019/10/09 02:11:00 BASE 2.26 294 2.73 289 -4.4 100 -4.4 0 0 966.6 NA 0.0000 -SN BR 3700 0 0 0 2260
2019/10/09 02:12:00 BASE 2.56 292 2.78 293 -4.4 100 -4.4 0 0 966.5 NA 0.0000 -SN BR 3600 0 0 0 2260
2019/10/09 02:13:00 BASE 2.78 292 3.09 291 -4.4 100 -4.4 0 0 966.5 NA 0.0000 -SN BR 3400 0 0 0 2260
2019/10/09 02:14:00 BASE 3.00 293 3.19 294 -4.4 100 -4.4 0 0 966.6 NA 0.0000 -SN BR 3700 0 0 0 2300
2019/10/09 02:15:00 BASE 3.07 295 3.24 295 -4.4 100 -4.4 0 0 966.6 NA 0.0000 -SN BR 3800 0 0 0 2300
2019/10/09 02:16:00 BASE 3.04 296 3.24 295 -4.4 100 -4.4 0 0 966.6 NA 0.0000 -SN BR 3600 0 0 0 2330
2019/10/09 02:17:00 BASE 2.93 297 3.24 295 -4.4 100 -4.4 0 0 966.6 NA 0.0000 -SN BR 3200 0 0 0 2360
2019/10/09 02:18:00 BASE 2.95 297 3.24 295 -4.4 100 -4.4 0 0 966.5 NA 0.0000 -SN BR 3300 0 0 0 2400
2019/10/09 02:19:00 BASE 3.07 297 3.24 295 -4.4 100 -4.4 0 0 966.5 NA 0.0000 -SN BR 3400 0 0 0 2530
2019/10/09 02:20:00 BASE 3.03 298 3.29 303 -4.5 100 -4.5 0 0 966.5 NA 0.0000 -SN BR 3300 0 0 0 2560
2019/10/09 02:21:00 BASE 3.02 299 3.29 301 -4.5 100 -4.5 0 0 966.5 NA 0.0000 -SN BR 3600 0 0 0 2590
2019/10/09 02:22:00 BASE 3.08 300 3.29 301 -4.5 100 -4.5 0 0 966.5 NA 0.0000 -SN BR 3600 0 0 0 2620
2019/10/09 02:23:00 BASE 2.94 302 3.29 301 -4.5 100 -4.5 0 0 966.5 NA 0.0000 -SN BR 3700 0 0 0 2620
2019/10/09 02:24:00 BASE 2.78 302 3.29 301 -4.5 100 -4.5 0 0 966.5 NA 0.0000 -SN BR 3600 0 0 0 2660
2019/10/09 02:25:00 BASE 2.71 303 3.29 301 -4.5 100 -4.5 0 0 966.5 NA 0.0000 -SN BR 4100 0 0 0 2720
2019/10/09 02:26:00 BASE 2.57 306 3.29 301 -4.5 100 -4.5 0 0 966.5 NA 0.0000 -SN BR 4500 0 0 0 2620
2019/10/09 02:27:00 BASE 2.45 306 3.29 301 -4.5 100 -4.5 0 0 966.5 NA 0.0000 -SN BR 4000 0 0 0 2560
2019/10/09 02:28:00 BASE 2.47 305 3.29 301 -4.5 100 -4.5 0 0 966.5 NA 0.0000 -SN BR 3700 0 0 0 2590
2019/10/09 02:29:00 BASE 2.50 304 3.29 301 -4.5 100 -4.5 0 0 966.5 NA 0.0000 -SN BR 3700 0 0 0 2660
2019/10/09 02:30:00 BASE 2.50 305 3.29 301 -4.5 100 -4.5 0 0 966.5 NA 0.0000 -SN BR 3700 0 0 0 2720
2019/10/09 02:31:00 BASE 2.48 306 3.24 301 -4.5 100 -4.5 0 0 966.5 NA 0.0000 -SN BR 4100 0 0 0 2660
2019/10/09 02:32:00 BASE 2.42 308 2.93 304 -4.5 100 -4.5 0 0 966.5 NA 0.0000 -SN BR 4300 0 0 0 2660
2019/10/09 02:33:00 BASE 2.45 309 2.88 303 -4.5 100 -4.5 0 0 966.5 NA 0.0000 -SN BR 4000 0 0 0 2620
2019/10/09 02:34:00 BASE 2.41 309 2.83 307 -4.5 100 -4.5 0 0 966.5 NA 0.0000 -SN BR 3400 0 0 0 2620
2019/10/09 02:35:00 BASE 2.27 308 2.73 313 -4.5 100 -4.5 0 0 966.5 NA 0.0000 -SN BR 3600 0 0 0 2620
2019/10/09 02:36:00 BASE 2.13 306 2.73 313 -4.5 100 -4.5 0 0 966.5 NA 0.0000 -SN BR 3600 0 0 0 2560
2019/10/09 02:37:00 BASE 1.89 309 2.73 313 -4.5 100 -4.5 0 0 966.4 NA 0.0000 -SN BR 3300 0 0 0 2530
2019/10/09 02:38:00 BASE 1.61 308 2.73 313 -4.5 100 -4.5 0 0 966.4 NA 0.0000 -SN BR 3400 0 0 0 2490
2019/10/09 02:39:00 BASE 1.50 304 2.73 313 -4.5 100 -4.5 0 0 966.4 NA 0.2540 -SN BR 3500 0 0 0 2490
2019/10/09 02:40:00 BASE 1.43 299 2.73 313 -4.5 100 -4.5 0 0 966.4 NA 0.0000 -SN BR 3800 0 0 0 2460
2019/10/09 02:41:00 BASE 1.34 295 2.73 313 -4.5 100 -4.5 0 0 966.4 NA 0.0000 -SN BR 3700 0 0 0 2400
2019/10/09 02:42:00 BASE 1.37 293 2.73 313 -4.5 100 -4.5 0 0 966.4 NA 0.0000 -SN BR 3600 0 0 0 2330
2019/10/09 02:43:00 BASE 0.98 295 2.42 312 -4.5 100 -4.5 0 0 966.4 NA 0.0000 -SN BR 3600 0 0 0 2300
2019/10/09 02:44:00 BASE 0.46 296 2.42 312 -4.5 100 -4.5 0 0 966.4 NA 0.0000 -SN BR 3500 0 0 0 2260
2019/10/09 02:45:00 BASE 0.58 297 2.21 304 -4.5 100 -4.5 0 0 966.4 NA 0.0000 -SN BR 3600 0 0 0 2260
2019/10/09 02:46:00 BASE 0.58 297 2.01 307 -4.5 100 -4.5 0 0 966.4 NA 0.0000 -SN BR 3300 0 0 0 2230
2019/10/09 02:47:00 BASE 0.18 297 1.70 307 -4.5 100 -4.5 0 0 966.4 NA 0.0000 -SN BR 3000 0 0 0 2200
2019/10/09 02:48:00 BASE 0.00 297 1.59 302 -4.5 100 -4.5 0 0 966.4 NA 0.0000 -SN BR 3100 0 0 0 2230
2019/10/09 02:49:00 BASE 0.00 296 1.49 293 -4.5 100 -4.5 0 0 966.4 NA 0.0000 -SN BR 3100 0 0 0 2330
2019/10/09 02:50:00 BASE 0.00 297 1.49 293 -4.5 100 -4.5 0 0 966.4 NA 0.0000 -SN BR 3200 0 0 0 2300
2019/10/09 02:51:00 BASE 0.00 297 1.49 293 -4.5 100 -4.5 0 0 966.4 NA 0.0000 -SN BR 3300 0 0 0 2200
2019/10/09 02:52:00 BASE 0.00 297 1.23 294 -4.5 100 -4.5 0 0 966.4 NA 0.0000 -SN BR 3300 0 0 0 2230
2019/10/09 02:53:00 BASE 0.00 295 1.13 297 -4.5 100 -4.5 0 0 966.3 NA 0.0000 -SN BR 3100 0 0 0 2260
2019/10/09 02:54:00 BASE 0.00 284 1.13 297 -4.5 100 -4.5 0 0 966.3 NA 0.0000 -SN BR 3100 0 0 0 2300
2019/10/09 02:55:00 BASE 0.00 259 1.13 297 -4.5 100 -4.5 0 0 966.3 NA 0.0000 -SN BR 2800 0 0 0 2200
2019/10/09 02:56:00 BASE 0.00 243 M M -4.5 100 -4.5 0 0 966.4 NA 0.0000 -SN BR 2500 0 0 0 2170
2019/10/09 02:57:00 BASE 0.00 247 M M -4.5 100 -4.5 0 0 966.4 NA 0.0000 -SN BR 2800 0 0 0 2200
2019/10/09 02:58:00 BASE 0.00 251 M M -4.5 100 -4.5 0 0 966.4 NA 0.0000 -SN BR 2900 0 0 0 2230
2019/10/09 02:59:00 BASE 0.00 250 M M -4.6 100 -4.6 0 0 966.4 NA 0.2540 -SN BR 2700 0 0 0 2260
2019/10/09 03:00:00 BASE 0.00 250 M M -4.6 100 -4.6 0 0 966.4 NA 0.0000 -SN BR 3000 0 0 0 2230
2019/10/09 03:01:00 BASE 0.00 250 M M -4.6 100 -4.6 0 0 966.3 NA 0.0000 -SN BR 3200 0 0 0 2200
2019/10/09 03:02:00 BASE 0.00 250 M M -4.6 100 -4.6 0 0 966.4 NA 0.0000 -SN BR 3300 0 0 0 2260
2019/10/09 03:03:00 BASE 0.00 249 M M -4.5 100 -4.5 0 0 966.3 NA 0.0000 -SN BR 3000 0 0 0 2200
2019/10/09 03:04:00 BASE 0.00 245 M M -4.5 100 -4.5 0 0 966.3 NA 0.0000 -SN BR 2600 0 0 0 2100
2019/10/09 03:05:00 BASE 0.00 243 M M -4.5 100 -4.5 0 0 966.2 NA 0.0000 -SN BR 2600 0 0 0 2030
2019/10/09 03:06:00 BASE 0.00 243 M M -4.5 100 -4.5 0 0 966.3 NA 0.0000 -SN BR 2900 0 0 0 2170
2019/10/09 03:07:00 BASE 0.00 243 M M -4.6 100 -4.6 0 0 966.3 NA 0.0000 -SN BR 2800 0 0 0 2230
2019/10/09 03:08:00 BASE 0.00 243 M M -4.6 100 -4.6 0 0 966.2 NA 0.0000 -SN BR 2900 0 0 0 2230
2019/10/09 03:09:00 BASE 0.00 243 M M -4.6 100 -4.6 0 0 966.2 NA 0.0000 -SN BR 2800 0 0 0 2170
2019/10/09 03:10:00 BASE 0.00 251 M M -4.6 100 -4.6 0 0 966.2 NA 0.0000 -SN BR 3000 0 0 0 2170
2019/10/09 03:11:00 BASE 0.00 263 M M -4.6 100 -4.6 0 0 966.2 NA 0.0000 -SN BR 3500 0 0 0 2170
2019/10/09 03:12:00 BASE 0.00 268 M M -4.6 100 -4.6 0 0 966.2 NA 0.0000 -SN BR 3400 0 0 0 2170
2019/10/09 03:13:00 BASE 0.00 268 M M -4.6 100 -4.6 0 0 966.2 NA 0.0000 -SN BR 3300 0 0 0 2000
2019/10/09 03:14:00 BASE 0.00 268 M M -4.6 100 -4.6 0 0 966.2 NA 0.0000 -SN BR 3200 0 0 0 1900
2019/10/09 03:15:00 BASE 0.00 268 M M -4.6 100 -4.6 0 0 966.2 NA 0.0000 -SN BR 3200 0 0 0 1870
2019/10/09 03:16:00 BASE 0.00 268 M M -4.6 100 -4.6 0 0 966.2 NA 0.0000 -SN BR 3600 0 0 0 1870
2019/10/09 03:17:00 BASE 0.00 268 M M -4.6 100 -4.6 0 0 966.2 NA 0.0000 -SN BR 3300 0 0 0 1970
2019/10/09 03:18:00 BASE 0.00 268 M M -4.6 100 -4.6 0 0 966.2 NA 0.0000 -SN BR 2700 0 0 0 1970
2019/10/09 03:19:00 BASE 0.00 268 M M -4.6 100 -4.6 0 0 966.2 NA 0.0000 -SN BR 2700 0 0 0 1970
2019/10/09 03:20:00 BASE 0.00 268 M M -4.5 100 -4.5 0 0 966.2 NA 0.0000 -SN BR 2700 0 0 0 2000
2019/10/09 03:21:00 BASE 0.00 268 M M -4.5 100 -4.5 0 0 966.2 NA 0.0000 -SN BR 2800 0 0 0 2070
2019/10/09 03:22:00 BASE 0.00 268 M M -4.5 100 -4.5 0 0 966.2 NA 0.0000 -SN BR 3000 0 0 0 2170
2019/10/09 03:23:00 BASE 0.00 268 M M -4.5 100 -4.5 0 0 966.2 NA 0.0000 -SN BR 3300 0 0 0 2100
2019/10/09 03:24:00 BASE 0.00 268 M M -4.6 100 -4.6 0 0 966.2 NA 0.0000 -SN BR 3200 0 0 0 2100
2019/10/09 03:25:00 BASE 0.00 268 M M -4.6 100 -4.6 0 0 966.2 NA 0.0000 -SN BR 2900 0 0 0 2170
2019/10/09 03:26:00 BASE 0.00 268 M M -4.6 100 -4.6 0 0 966.2 NA 0.0000 -SN BR 2900 0 0 0 2230
2019/10/09 03:27:00 BASE 0.00 268 M M -4.5 100 -4.5 0 0 966.2 NA 0.0000 -SN BR 2900 0 0 0 2170
2019/10/09 03:28:00 BASE 0.00 268 M M -4.5 100 -4.5 0 0 966.2 NA 0.0000 -SN BR 3100 0 0 0 2170
2019/10/09 03:29:00 BASE 0.00 268 M M -4.5 100 -4.5 0 0 966.2 NA 0.0000 -SN BR 3100 0 0 0 2030
2019/10/09 03:30:00 BASE 0.00 267 M M -4.5 100 -4.5 0 0 966.2 NA 0.0000 -SN BR 2800 0 0 0 2030
2019/10/09 03:31:00 BASE 0.00 266 M M -4.5 100 -4.5 0 0 966.2 NA 0.0000 -SN BR 2800 0 0 0 2030
2019/10/09 03:32:00 BASE 0.00 265 M M -4.5 100 -4.5 0 0 966.2 NA 0.0000 -SN BR 2600 0 0 0 2000
2019/10/09 03:33:00 BASE 0.00 264 M M -4.5 100 -4.5 0 0 966.2 NA 0.0000 -SN BR 2700 0 0 0 2030
2019/10/09 03:34:00 BASE 0.00 264 M M -4.5 100 -4.5 0 0 966.2 NA 0.0000 -SN BR 2900 0 0 0 2000
2019/10/09 03:35:00 BASE 0.00 264 M M -4.5 100 -4.5 0 0 966.2 NA 0.0000 -SN BR 2700 0 0 0 1940
2019/10/09 03:36:00 BASE 0.00 264 M M -4.5 100 -4.5 0 0 966.2 NA 0.0000 -SN BR 2600 0 0 0 1900
2019/10/09 03:37:00 BASE 0.00 245 M M -4.5 100 -4.5 0 0 966.2 NA 0.0000 -SN BR 2600 0 0 0 1940
2019/10/09 03:38:00 BASE 0.00 221 M M -4.5 100 -4.5 0 0 966.2 NA 0.0000 -SN BR 2600 0 0 0 2000
2019/10/09 03:39:00 BASE 0.00 216 M M -4.5 100 -4.5 0 0 966.2 NA 0.0000 -SN BR 2700 0 0 0 2030
2019/10/09 03:40:00 BASE 0.00 212 M M -4.5 100 -4.5 0 0 966.2 NA 0.0000 -SN BR 2700 0 0 0 2070
2019/10/09 03:41:00 BASE 0.00 155 M M -4.6 100 -4.6 0 0 966.2 NA 0.0000 -SN BR 2800 0 0 0 2070
2019/10/09 03:42:00 BASE 0.00 104 M M -4.6 100 -4.6 0 0 966.2 NA 0.0000 -SN BR 2700 0 0 0 2130
2019/10/09 03:43:00 BASE 0.00 101 M M -4.6 100 -4.6 0 0 966.2 NA 0.0000 -SN BR 2600 0 0 0 2260
2019/10/09 03:44:00 BASE 0.00 80 M M -4.6 100 -4.6 0 0 966.2 NA 0.0000 -SN BR 2700 0 0 0 2300
2019/10/09 03:45:00 BASE 0.00 55 M M -4.5 100 -4.5 0 0 966.2 NA 0.0000 -SN BR 2900 0 0 0 2260
2019/10/09 03:46:00 BASE 0.00 49 M M -4.5 100 -4.5 0 0 966.2 NA 0.0000 -SN BR 3000 230 0 0 0
2019/10/09 03:47:00 BASE 0.00 49 M M -4.6 100 -4.6 0 0 966.1 NA 0.0000 -SN BR 3300 230 0 0 0
2019/10/09 03:48:00 BASE 0.00 49 M M -4.6 100 -4.6 0 0 966.1 NA 0.0000 -SN BR 3200 0 0 0 2360
2019/10/09 03:49:00 BASE 0.00 49 M M -4.5 100 -4.5 0 0 966.1 NA 0.0000 -SN BR 3200 0 0 0 2400
2019/10/09 03:50:00 BASE 0.00 49 M M -4.5 100 -4.5 0 0 966.1 NA 0.0000 -SN BR 3200 0 0 0 2560
2019/10/09 03:51:00 BASE 0.00 49 M M -4.5 100 -4.5 0 0 966.2 NA 0.0000 -SN BR 3000 0 0 0 2590
2019/10/09 03:52:00 BASE 0.00 49 M M -4.5 100 -4.5 0 0 966.2 NA 0.0000 -SN BR 3100 0 0 0 2490
2019/10/09 03:53:00 BASE 0.00 51 M M -4.5 100 -4.5 0 0 966.2 NA 0.0000 -SN BR 3200 0 0 0 2620
2019/10/09 03:54:00 BASE 0.00 57 M M -4.5 100 -4.5 0 0 966.2 NA 0.0000 -SN BR 3400 230 0 0 0
2019/10/09 03:55:00 BASE 0.00 70 M M -4.5 100 -4.5 0 0 966.1 NA 0.0000 -SN BR 3500 230 0 0 0
2019/10/09 03:56:00 BASE 0.00 85 M M -4.6 100 -4.6 0 0 966.1 NA 0.0000 -SN BR 3600 230 0 0 0
2019/10/09 03:57:00 BASE 0.00 95 M M -4.6 100 -4.6 0 0 966.1 NA 0.0000 -SN BR 3900 230 0 0 0
2019/10/09 03:58:00 BASE 0.00 96 M M -4.6 100 -4.6 0 0 966.1 NA 0.0000 -SN BR 3800 230 0 0 0
2019/10/09 03:59:00 BASE 0.00 96 M M -4.6 100 -4.6 0 0 966.1 NA 0.0000 -SN BR 3800 230 0 0 0
2019/10/09 04:00:00 BASE 0.00 96 M M -4.6 100 -4.6 0 0 966.1 NA 0.2540 -SN BR 3700 0 0 0 3220
2019/10/09 04:01:01 BASE 0.00 96 M M -4.6 100 -4.6 0 0 966.1 NA 0.0000 -SN BR 3900 0 0 0 3180
2019/10/09 04:02:00 BASE 0.00 96 M M -4.6 100 -4.6 0 0 966.1 NA 0.0000 -SN BR 4600 0 0 0 3450
2019/10/09 04:03:00 BASE 0.00 96 M M -4.6 100 -4.6 0 0 966.1 NA 0.0000 -SN BR 5000 0 0 0 3280
2019/10/09 04:04:00 BASE 0.00 96 M M -4.6 100 -4.6 0 0 966.1 NA 0.2540 -SN BR 5000 0 0 0 3250
2019/10/09 04:05:00 BASE 0.00 96 M M -4.6 100 -4.6 0 0 966.1 NA 0.0000 -SN BR 5000 0 0 0 3220
2019/10/09 04:06:00 BASE 0.00 96 M M -4.5 100 -4.5 0 0 966.1 NA 0.0000 -SN BR 5000 0 0 0 3050
2019/10/09 04:07:00 BASE 0.00 96 M M -4.5 100 -4.5 0 0 966.1 NA 0.0000 -SN BR 5000 0 0 0 2990
2019/10/09 04:08:00 BASE 0.00 96 M M -4.5 100 -4.5 0 0 966.1 NA 0.0000 -SN BR 5000 0 0 0 2990
2019/10/09 04:09:00 BASE 0.00 108 M M -4.5 100 -4.5 0 0 966.1 NA 0.0000 -SN BR 4500 300 0 0 0
2019/10/09 04:10:00 BASE 0.00 121 M M -4.5 100 -4.5 0 0 966.1 NA 0.0000 -SN BR 4700 300 0 0 0
2019/10/09 04:11:00 BASE 0.00 124 M M -4.5 100 -4.5 0 0 966.1 NA 0.0000 -SN BR 4800 0 0 0 2720
2019/10/09 04:12:00 BASE 0.00 121 M M -4.5 100 -4.5 0 0 966.1 NA 0.2540 -SN BR 4500 0 0 0 2660
2019/10/09 04:13:00 BASE 0.00 116 M M -4.6 100 -4.6 0 0 966.2 NA 0.0000 -SN BR 4400 0 0 0 2560
2019/10/09 04:14:00 BASE 0.00 111 M M -4.6 100 -4.6 0 0 966.2 NA 0.0000 -SN BR 3800 230 0 0 0
2019/10/09 04:15:00 BASE 0.00 105 M M -4.6 100 -4.6 0 0 966.2 NA 0.0000 -SN BR 3800 260 0 0 0
2019/10/09 04:16:00 BASE 0.00 100 M M -4.6 100 -4.6 0 0 966.2 NA 0.0000 -SN BR 4100 260 0 0 0
2019/10/09 04:17:00 BASE 0.00 99 M M -4.6 100 -4.6 0 0 966.2 NA 0.0000 -SN BR 3800 230 0 0 0
2019/10/09 04:18:00 BASE 0.00 101 M M -4.6 100 -4.6 0 0 966.2 NA 0.0000 -SN BR 3500 0 0 0 2430
2019/10/09 04:19:00 BASE 0.00 106 M M -4.6 100 -4.6 0 0 966.2 NA 0.0000 -SN BR 3700 0 0 0 2360
2019/10/09 04:20:00 BASE 0.00 121 M M -4.6 100 -4.6 0 0 966.2 NA 0.0000 -SN BR 3300 0 0 0 2260
2019/10/09 04:21:00 BASE 0.00 130 M M -4.6 100 -4.6 0 0 966.2 NA 0.0000 -SN BR 3300 230 0 0 0
2019/10/09 04:22:00 BASE 0.00 124 M M -4.5 100 -4.5 0 0 966.2 NA 0.0000 -SN BR 3500 230 0 0 0
2019/10/09 04:23:00 BASE 0.00 118 M M -4.5 100 -4.5 0 0 966.2 NA 0.0000 -SN BR 3700 230 0 0 0
2019/10/09 04:24:00 BASE 0.00 117 M M -4.5 100 -4.5 0 0 966.2 NA 0.0000 -SN BR 3500 0 0 0 2330
2019/10/09 04:25:00 BASE 0.00 117 M M -4.5 100 -4.5 0 0 966.2 NA 0.0000 -SN BR 3300 230 0 0 0
2019/10/09 04:26:00 BASE 0.00 115 M M -4.5 100 -4.5 0 0 966.2 NA 0.0000 -SN BR 3800 260 0 0 0
2019/10/09 04:27:00 BASE 0.00 112 M M -4.5 100 -4.5 0 0 966.2 NA 0.0000 -SN BR 4500 1310 0 0 0
2019/10/09 04:28:01 BASE 0.00 111 M M -4.5 100 -4.5 0 0 966.2 NA 0.0000 -SN BR 4100 230 0 0 0
2019/10/09 04:29:00 BASE 0.00 111 M M -4.5 100 -4.5 0 0 966.2 NA 0.0000 -SN BR 4000 230 0 0 0
2019/10/09 04:30:00 BASE 0.00 111 M M -4.4 100 -4.4 0 0 966.2 NA 0.0000 -SN BR 4000 230 0 0 0
2019/10/09 04:31:00 BASE 0.00 111 M M -4.4 100 -4.4 0 0 966.2 NA 0.0000 -SN BR 4300 230 0 0 0
2019/10/09 04:32:00 BASE 0.00 111 M M -4.4 100 -4.4 0 0 966.2 NA 0.0000 -SN BR 4300 0 0 0 2850
2019/10/09 04:33:00 BASE 0.00 111 M M -4.4 100 -4.4 0 0 966.2 NA 0.0000 -SN BR 3700 0 0 0 2790
2019/10/09 04:34:00 BASE 0.00 110 M M -4.4 100 -4.4 0 0 966.2 NA 0.0000 -SN BR 3500 0 0 0 2920
2019/10/09 04:35:00 BASE 0.00 110 M M -4.4 100 -4.4 0 0 966.2 NA 0.0000 -SN BR 3700 230 0 0 0
2019/10/09 04:36:00 BASE 0.00 114 M M -4.4 100 -4.4 0 0 966.2 NA 0.0000 -SN BR 3600 230 0 0 0
2019/10/09 04:37:00 BASE 0.00 121 M M -4.4 100 -4.4 0 0 966.2 NA 0.0000 -SN BR 3900 200 0 0 0
2019/10/09 04:38:00 BASE 0.00 124 M M -4.4 100 -4.4 0 0 966.2 NA 0.0000 -SN BR 3700 230 0 0 0
2019/10/09 04:39:00 BASE 0.00 124 M M -4.4 100 -4.4 0 0 966.2 NA 0.2540 -SN BR 3800 230 0 0 0
2019/10/09 04:40:00 BASE 0.00 124 M M -4.4 100 -4.4 0 0 966.2 NA 0.0000 -SN BR 4100 230 0 0 0
2019/10/09 04:41:00 BASE 0.00 124 M M -4.4 100 -4.4 0 0 966.2 NA 0.0000 -SN BR 4200 230 0 0 0
2019/10/09 04:42:00 BASE 0.00 126 M M -4.4 100 -4.4 0 0 966.2 NA 0.0000 -SN BR 4400 230 0 0 0
2019/10/09 04:43:00 BASE 0.00 127 M M -4.4 100 -4.4 0 0 966.2 NA 0.0000 -SN BR 4500 230 0 0 0
2019/10/09 04:44:00 BASE 0.00 127 M M -4.4 100 -4.4 0 0 966.2 NA 0.0000 -SN BR 5000 230 0 0 0
2019/10/09 04:45:00 BASE 0.00 127 M M -4.4 100 -4.4 0 0 966.2 NA 0.0000 -SN BR 5000 260 0 0 0
2019/10/09 04:46:00 BASE 0.00 127 M M -4.4 100 -4.4 0 0 966.2 NA 0.0000 -SN BR 6000 230 0 0 0
2019/10/09 04:47:00 BASE 0.00 127 M M -4.4 100 -4.4 0 0 966.2 NA 0.0000 -SN BR 6000 230 0 0 0
2019/10/09 04:48:00 BASE 0.00 127 M M -4.4 100 -4.4 0 0 966.2 NA 0.0000 -SN BR 6000 200 0 0 0
2019/10/09 04:49:00 BASE 0.00 131 M M -4.5 100 -4.5 0 0 966.2 NA 0.0000 -SN BR 6000 0 0 0 3380
2019/10/09 04:50:00 BASE 0.00 143 M M -4.5 100 -4.5 0 0 966.2 NA 0.0000 -SN BR 6000 0 0 0 3250
2019/10/09 04:51:00 BASE 0.00 151 M M -4.5 100 -4.5 0 0 966.2 NA 0.0000 -SN BR 5000 0 0 0 3250
2019/10/09 04:52:00 BASE 0.00 156 M M -4.5 100 -4.5 0 0 966.2 NA 0.0000 -SN BR 5000 0 0 0 3350
2019/10/09 04:53:00 BASE 0.00 166 M M -4.5 100 -4.5 0 0 966.2 NA 0.0000 -SN BR 4400 0 0 0 3450
2019/10/09 04:54:00 BASE 0.00 175 M M -4.6 100 -4.6 0 0 966.2 NA 0.0000 -SN BR 4800 0 0 0 5050
2019/10/09 04:55:00 BASE 0.00 178 M M -4.6 100 -4.6 0 0 966.2 NA 0.0000 -SN BR 6000 0 0 0 5090
2019/10/09 04:56:00 BASE 0.00 178 M M -4.6 100 -4.6 0 0 966.2 NA 0.0000 -SN BR 6000 0 0 0 5020
2019/10/09 04:57:00 BASE 0.00 178 M M -4.6 100 -4.6 0 0 966.2 NA 0.0000 -SN BR 7000 0 0 0 4130
2019/10/09 04:58:00 BASE 0.00 178 M M -4.6 100 -4.6 0 0 966.2 NA 0.0000 -SN BR 7000 0 0 0 4100
2019/10/09 04:59:00 BASE 0.00 178 M M -4.6 100 -4.6 0 0 966.2 NA 0.0000 -SN BR 7000 0 0 0 4000
2019/10/09 05:00:00 BASE 0.00 177 M M -4.6 100 -4.6 0 0 966.2 NA 0.0000 -SN BR 6000 0 0 0 4100
2019/10/09 05:01:00 BASE 0.00 177 M M -4.5 100 -4.5 0 0 966.2 NA 0.0000 -SN BR 7000 0 0 0 4100
2019/10/09 05:02:00 BASE 0.00 177 M M -4.5 100 -4.5 0 0 966.2 NA 0.0000 -SN BR 9000 0 0 0 4040
2019/10/09 05:03:00 BASE 0.00 177 M M -4.5 100 -4.5 0 0 966.2 NA 0.0000 -SN BR 8000 0 0 0 4000
2019/10/09 05:04:00 BASE 0.00 177 M M -4.5 100 -4.5 0 0 966.2 NA 0.0000 -SN BR 9000 0 0 0 3410
2019/10/09 05:05:00 BASE 0.00 169 M M -4.5 100 -4.5 0 0 966.2 NA 0.0000 -SN BR 9999 0 0 0 3380
2019/10/09 05:06:00 BASE 0.00 121 M M -4.5 100 -4.5 0 0 966.2 NA 0.0000 -SN BR 9000 0 0 0 4170
2019/10/09 05:07:00 BASE 0.00 71 M M -4.5 100 -4.5 0 0 966.2 NA 0.0000 -SN BR 8000 0 0 0 4130
2019/10/09 05:08:00 BASE 0.00 50 M M -4.5 100 -4.5 0 0 966.2 NA 0.0000 -SN BR 7000 0 0 0 4070
2019/10/09 05:09:00 BASE 0.00 40 M M -4.6 100 -4.6 0 0 966.2 NA 0.0000 -SN BR 7000 0 0 0 4070
2019/10/09 05:10:00 BASE 0.00 32 M M -4.6 100 -4.6 0 0 966.2 NA 0.0000 -SN BR 7000 0 0 0 4100
2019/10/09 05:11:00 BASE 0.00 29 M M -4.7 100 -4.7 0 0 966.2 NA 0.0000 -SN BR 6000 0 0 0 4130
2019/10/09 05:12:00 BASE 0.00 31 M M -4.7 100 -4.7 0 0 966.2 NA 0.0000 -SN BR 6000 0 0 0 3510
2019/10/09 05:13:00 BASE 0.00 31 M M -4.7 100 -4.7 0 0 966.2 NA 0.0000 -SN BR 6000 200 0 0 0
2019/10/09 05:14:00 BASE 0.00 27 M M -4.7 100 -4.7 0 0 966.2 NA 0.0000 -SN BR 7000 200 0 0 0
2019/10/09 05:15:00 BASE 0.00 24 M M -4.7 100 -4.7 0 0 966.2 NA 0.0000 -SN BR 7000 230 0 0 0
2019/10/09 05:16:00 BASE 0.00 24 M M -4.7 100 -4.7 0 0 966.2 NA 0.0000 -SN BR 7000 230 0 0 0
2019/10/09 05:17:00 BASE 0.00 23 M M -4.7 100 -4.7 0 0 966.2 NA 0.0000 -SN BR 7000 200 0 0 0
2019/10/09 05:18:00 BASE 0.00 20 M M -4.8 100 -4.8 0 0 966.2 NA 0.0000 -SN BR 6000 0 0 0 2950
2019/10/09 05:19:00 BASE 0.00 14 M M -4.8 100 -4.8 0 0 966.2 NA 0.0000 -SN BR 5000 0 0 0 2950
2019/10/09 05:20:00 BASE 0.00 9 M M -4.8 100 -4.8 0 0 966.2 NA 0.0000 -SN BR 5000 0 0 0 2950
2019/10/09 05:21:00 BASE 0.00 7 M M -4.8 100 -4.8 0 0 966.2 NA 0.0000 -SN BR 6000 0 0 0 3050
2019/10/09 05:22:00 BASE 0.00 7 M M -4.8 100 -4.8 0 0 966.2 NA 0.0000 -SN BR 6000 0 0 0 3120
2019/10/09 05:23:00 BASE 0.00 4 M M -4.8 100 -4.8 0 0 966.2 NA 0.0000 -SN BR 6000 0 0 0 4820
2019/10/09 05:24:00 BASE 0.00 355 M M -4.7 100 -4.7 0 0 966.2 NA 0.0000 -SN BR 5000 0 0 0 4170
2019/10/09 05:25:00 BASE 0.00 347 M M -4.7 100 -4.7 0 0 966.2 NA 0.0000 -SN BR 5000 0 0 0 4990
2019/10/09 05:26:00 BASE 0.00 348 M M -4.7 100 -4.7 0 0 966.2 NA 0.0000 -SN BR 5000 0 0 0 4760
2019/10/09 05:27:00 BASE 0.00 348 M M -4.7 100 -4.7 0 0 966.2 NA 0.2540 -SN BR 5000 0 0 0 4560
2019/10/09 05:28:00 BASE 0.00 346 M M -4.7 100 -4.7 0 0 966.2 NA 0.0000 -SN BR 6000 0 0 0 3150
2019/10/09 05:29:00 BASE 0.00 345 M M -4.7 100 -4.7 0 0 966.2 NA 0.0000 -SN BR 6000 0 0 0 3120
2019/10/09 05:30:00 BASE 0.00 345 M M -4.7 100 -4.7 0 0 966.2 NA 0.0000 -SN BR 6000 0 0 0 4170
2019/10/09 05:31:00 BASE 0.00 345 M M -4.8 100 -4.8 0 0 966.2 NA 0.0000 -SN BR 5000 0 0 0 4430
2019/10/09 05:32:00 BASE 0.00 345 M M -4.8 100 -4.8 0 0 966.2 NA 0.0000 -SN BR 5000 0 0 0 5020
2019/10/09 05:33:00 BASE 0.00 346 M M -4.8 100 -4.8 0 0 966.2 NA 0.0000 -SN BR 5000 0 0 0 5180
2019/10/09 05:34:00 BASE 0.00 348 M M -4.8 100 -4.8 0 0 966.2 NA 0.0000 -SN BR 5000 0 0 0 5320
2019/10/09 05:35:00 BASE 1.11 349 2.52 351 -4.8 100 -4.8 0 0 966.2 NA 0.0000 -SN BR 5000 0 0 0 5320
2019/10/09 05:36:00 BASE 2.37 349 2.62 350 -4.8 100 -4.8 0 0 966.2 NA 0.0000 -SN BR 5000 0 0 0 5320
2019/10/09 05:37:00 BASE 2.58 349 2.88 350 -4.8 100 -4.8 0 0 966.2 NA 0.0000 -SN BR 5000 0 0 0 5350
2019/10/09 05:38:00 BASE 2.73 350 2.88 350 -4.7 100 -4.7 0 0 966.2 NA 0.0000 -SN BR 5000 0 0 0 5380
2019/10/09 05:39:00 BASE 2.88 349 3.09 348 -4.7 100 -4.7 0 0 966.2 NA 0.0000 -SN BR 5000 0 0 0 5410
2019/10/09 05:40:00 BASE 3.06 347 3.24 345 -4.7 100 -4.7 0 0 966.2 NA 0.0000 -SN BR 5000 0 0 0 5380
2019/10/09 05:41:00 BASE 3.24 345 3.45 345 -4.7 100 -4.7 0 0 966.2 NA 0.0000 -SN BR 5000 0 0 0 5380
2019/10/09 05:42:00 BASE 3.42 345 3.60 345 -4.7 100 -4.7 0 0 966.2 NA 0.0000 -SN BR 6000 0 0 0 5380
2019/10/09 05:43:00 BASE 3.57 346 3.65 349 -4.7 100 -4.7 0 0 966.2 NA 0.0000 -SN BR 9000 0 0 0 5450
2019/10/09 05:44:00 BASE 3.70 346 3.91 345 -4.7 100 -4.7 0 0 966.2 NA 0.0000 -SN BR 8000 0 0 0 5510
2019/10/09 05:45:00 BASE 3.93 346 4.17 345 -4.7 100 -4.7 0 0 966.3 NA 0.0000 -SN BR 8000 0 0 0 5510
2019/10/09 05:46:00 BASE 4.08 345 4.17 344 -4.7 100 -4.7 0 0 966.4 NA 0.0000 -SN BR 9000 0 0 0 5380
2019/10/09 05:47:00 BASE 4.05 343 4.17 344 -4.7 100 -4.7 0 0 966.4 NA 0.0000 -SN BR 9999 0 0 0 5280
2019/10/09 05:48:00 BASE 3.94 341 4.17 344 -4.7 100 -4.7 0 0 966.4 NA 0.0000 -SN BR 9000 0 0 0 5320
2019/10/09 05:49:00 BASE 3.80 339 4.17 344 -4.7 100 -4.7 0 0 966.4 NA 0.0000 -SN BR 7000 0 0 0 5250
2019/10/09 05:50:00 BASE 3.67 338 4.17 344 -4.7 100 -4.7 0 0 966.4 NA 0.0000 -SN BR 7000 0 0 0 5250
2019/10/09 05:51:00 BASE 3.59 339 4.17 344 -4.7 100 -4.7 0 0 966.4 NA 0.0000 -SN BR 8000 0 0 0 5220
2019/10/09 05:52:00 BASE 3.59 339 4.17 344 -4.7 100 -4.7 0 0 966.4 NA 0.0000 -SN BR 8000 0 0 0 5090
2019/10/09 05:53:00 BASE 3.64 339 4.17 344 -4.6 100 -4.6 0 0 966.4 NA 0.0000 -SN BR 9000 0 0 0 5020
2019/10/09 05:54:00 BASE 3.64 339 4.17 344 -4.6 100 -4.6 0 0 966.4 NA 0.0000 -SN BR 9000 0 0 0 5020
2019/10/09 05:55:00 BASE 3.67 340 4.17 344 -4.6 100 -4.6 0 0 966.4 NA 0.0000 -SN BR 8000 0 0 0 4990
2019/10/09 05:56:00 BASE 3.68 339 4.12 344 -4.6 100 -4.6 0 0 966.4 NA 0.0000 -SN BR 8000 0 0 0 4860
2019/10/09 05:57:00 BASE 3.55 340 4.01 346 -4.6 100 -4.6 0 0 966.4 NA 0.0000 -SN BR 7000 0 0 0 4890
2019/10/09 05:58:00 BASE 3.52 340 3.96 340 -4.6 100 -4.6 0 0 966.3 NA 0.0000 -SN BR 7000 0 0 0 4990
2019/10/09 05:59:00 BASE 3.58 340 3.96 340 -4.6 100 -4.6 0 0 966.3 NA 0.0000 -SN BR 7000 0 0 0 4890
2019/10/09 06:00:00 BASE 3.47 340 3.96 340 -4.6 100 -4.6 0 0 966.3 NA 0.0000 -SN BR 6000 0 0 0 4920
2019/10/09 06:01:00 BASE 3.31 340 3.96 340 -4.6 100 -4.6 0 0 966.4 NA 0.0000 -SN BR 6000 0 0 0 4820
2019/10/09 06:02:00 BASE 3.25 339 3.96 340 -4.6 100 -4.6 0 0 966.4 NA 0.0000 -SN BR 6000 0 0 0 4860
2019/10/09 06:03:00 BASE 3.23 340 3.96 340 -4.6 100 -4.6 0 0 966.4 NA 0.0000 -SN BR 5000 0 0 0 4860
2019/10/09 06:04:00 BASE 3.10 342 3.81 339 -4.6 100 -4.6 0 0 966.4 NA 0.0000 -SN BR 5000 0 0 0 4990
2019/10/09 06:05:00 BASE 3.07 343 3.81 339 -4.6 100 -4.6 0 0 966.4 NA 0.0000 -SN BR 6000 0 0 0 4920
2019/10/09 06:06:00 BASE 3.21 343 3.76 342 -4.6 100 -4.6 0 0 966.4 NA 0.0000 -SN BR 5000 0 0 0 4200
2019/10/09 06:07:00 BASE 3.31 345 3.76 342 -4.6 100 -4.6 0 0 966.4 NA 0.0000 -SN BR 5000 0 0 0 4950
2019/10/09 06:08:00 BASE 3.37 347 3.76 342 -4.6 100 -4.6 0 0 966.4 NA 0.0000 -SN BR 5000 0 0 0 5020
2019/10/09 06:09:00 BASE 3.40 348 3.60 340 -4.6 100 -4.6 0 0 966.4 NA 0.0000 -SN BR 6000 230 0 0 0
2019/10/09 06:10:00 BASE 3.39 349 3.55 347 -4.6 100 -4.6 0 0 966.4 NA 0.0000 -SN BR 6000 0 0 0 4590
2019/10/09 06:11:00 BASE 3.46 349 3.65 348 -4.6 100 -4.6 0 0 966.4 NA 0.0000 -SN BR 6000 230 0 0 0
2019/10/09 06:12:00 BASE 3.45 347 3.65 348 -4.6 100 -4.6 0 0 966.4 NA 0.0000 -SN BR 7000 230 0 0 0
2019/10/09 06:13:00 BASE 3.28 346 3.65 348 -4.6 100 -4.6 0 0 966.4 NA 0.0000 -SN BR 7000 230 0 0 0
2019/10/09 06:14:00 BASE 3.05 348 3.65 348 -4.6 100 -4.6 0 0 966.4 NA 0.0000 -SN BR 6000 230 0 0 0
2019/10/09 06:15:00 BASE 2.91 350 3.65 348 -4.6 100 -4.6 0 0 966.4 NA 0.0000 -SN BR 7000 230 0 0 0
2019/10/09 06:16:00 BASE 2.80 355 3.65 348 -4.6 100 -4.6 0 0 966.4 NA 0.0000 -SN BR 6000 230 0 0 0
2019/10/09 06:17:00 BASE 2.66 1 3.65 348 -4.6 100 -4.6 0 0 966.4 NA 0.0000 -SN BR 6000 260 0 0 0
2019/10/09 06:18:00 BASE 2.57 3 3.65 348 -4.6 100 -4.6 0 0 966.4 NA 0.0000 -SN BR 6000 260 0 0 0
2019/10/09 06:19:00 BASE 2.35 4 3.65 348 -4.6 100 -4.6 0 0 966.4 NA 0.0000 -SN BR 7000 260 0 0 0
2019/10/09 06:20:00 BASE 1.86 12 3.65 348 -4.6 100 -4.6 0 0 966.4 NA 0.0000 -SN BR 7000 300 2760 0 0
2019/10/09 06:21:00 BASE 1.46 26 3.55 347 -4.6 100 -4.6 0 0 966.4 NA 0.0000 -SN BR 6000 300 0 0 0
2019/10/09 06:22:00 BASE 1.35 35 3.34 348 -4.7 100 -4.7 0 0 966.4 NA 0.0000 -SN BR 6000 300 2100 0 0
2019/10/09 06:23:00 BASE 1.36 36 3.09 347 -4.7 100 -4.7 0 0 966.5 NA 0.0000 -SN BR 7000 300 2330 0 0
2019/10/09 06:24:00 BASE 1.28 40 3.04 351 -4.7 100 -4.7 0 0 966.5 NA 0.0000 -SN BR 8000 330 2820 0 0
2019/10/09 06:25:00 BASE 1.08 41 2.93 347 -4.7 100 -4.7 0 0 966.5 NA 0.0000 -SN BR 9000 330 2790 0 0
2019/10/09 06:26:00 BASE 0.55 47 2.83 1 -4.6 100 -4.6 0 0 966.5 NA 0.0000 -SN BR 9999 330 3870 0 0
2019/10/09 06:27:00 BASE 0.19 59 2.68 3 -4.6 100 -4.6 0 0 966.5 NA 0.0000 -SN BR 9999 360 2760 0 0
2019/10/09 06:28:00 BASE 0.43 57 2.37 2 -4.6 100 -4.6 0 0 966.5 NA 0.0000 -SN BR 9999 360 2690 0 0
2019/10/09 06:29:00 BASE 0.29 56 1.95 9 -4.6 100 -4.6 0 0 966.5 NA 0.0000 -SN BR 9999 360 2690 0 0
2019/10/09 06:30:00 BASE 0.43 59 1.65 37 -4.6 100 -4.6 0 0 966.5 NA 0.0000 -SN BR 9999 360 2720 0 0
2019/10/09 06:31:00 BASE 0.62 56 1.65 37 -4.6 100 -4.6 0 0 966.5 NA 0.0000 -SN 9999 360 1840 0 0
2019/10/09 06:32:00 BASE 0.23 55 1.65 37 -4.6 100 -4.6 0 0 966.6 NA 0.0000 -SN 9999 390 1870 0 0
2019/10/09 06:33:00 BASE 0.05 55 1.59 46 -4.6 100 -4.6 0 0 966.6 NA 0.0000 -SN 9999 390 1900 0 0
2019/10/09 06:34:00 BASE 0.00 51 1.39 53 -4.5 100 -4.5 0 0 966.6 NA 0.0000 -SN 9999 390 1840 0 0
2019/10/09 06:35:00 BASE 0.00 61 1.39 53 -4.5 100 -4.5 0 0 966.6 NA 0.0000 -SN 9999 390 1740 0 0
2019/10/09 06:36:00 BASE 0.00 71 1.39 53 -4.5 100 -4.5 0 0 966.6 NA 0.0000 -SN 9999 360 1710 0 0
2019/10/09 06:37:00 BASE 0.00 68 1.39 53 -4.5 100 -4.5 0 0 966.6 NA 0.0000 -SN 9999 360 1670 0 0
2019/10/09 06:38:00 BASE 0.09 68 1.34 59 -4.5 100 -4.5 0 0 966.6 NA 0.0000 -SN 9999 360 1640 0 0
2019/10/09 06:39:00 BASE 0.55 61 1.34 59 -4.5 100 -4.5 0 0 966.6 NA 0.0000 -SN 9999 360 1670 0 0
2019/10/09 06:40:00 BASE 0.97 56 1.44 52 -4.5 100 -4.5 0 0 966.7 NA 0.0000 -SN 9999 330 1670 0 0
2019/10/09 06:41:00 BASE 0.83 63 1.44 52 -4.5 100 -4.5 0 0 966.7 NA 0.0000 -SN 9999 330 1410 0 0
2019/10/09 06:42:00 BASE 0.68 72 1.44 52 -4.4 100 -4.5 0 0 966.7 NA 0.0000 -SN 9999 330 1410 0 0
2019/10/09 06:43:00 BASE 0.36 75 1.44 52 -4.4 100 -4.4 0 0 966.7 NA 0.0000 -SN 9999 330 1350 0 0
2019/10/09 06:44:00 BASE 0.00 73 1.44 52 -4.4 100 -4.4 0 0 966.7 NA 0.0000 9999 330 1540 0 0
2019/10/09 06:45:00 BASE 0.00 66 1.44 52 -4.4 100 -4.4 0 0 966.7 NA 0.0000 9999 300 1900 0 0
2019/10/09 06:46:00 BASE 0.05 71 1.44 52 -4.4 100 -4.4 0 0 966.7 NA 0.0000 9999 300 1440 0 0
2019/10/09 06:47:00 BASE 0.09 85 1.44 52 -4.4 100 -4.4 0 0 966.7 NA 0.0000 9999 260 1380 0 0
2019/10/09 06:48:00 BASE 0.05 84 1.44 52 -4.4 100 -4.4 0 0 966.7 NA 0.0000 9999 260 1410 0 0
2019/10/09 06:49:00 BASE 0.00 75 1.44 52 -4.4 100 -4.4 0 0 966.7 NA 0.0000 -SN 9999 260 2170 0 0
2019/10/09 06:50:00 BASE 0.00 82 1.18 70 -4.4 100 -4.4 0 0 966.7 NA 0.0000 -SN 9999 260 2260 0 0
2019/10/09 06:51:00 BASE 0.00 95 1.13 75 -4.4 100 -4.4 0 0 966.7 NA 0.0000 -SN 9999 300 0 0 0
2019/10/09 06:52:00 BASE 0.00 107 1.08 91 -4.4 100 -4.4 0 0 966.7 NA 0.0000 -SN 9999 260 0 0 0
2019/10/09 06:53:00 BASE 0.00 115 1.08 91 -4.4 100 -4.4 0 0 966.7 NA 0.0000 -SN 9999 260 1610 0 0
2019/10/09 06:54:00 BASE 0.00 115 1.08 91 -4.4 100 -4.4 0 0 966.7 NA 0.0000 -SN 9000 230 1540 0 0
2019/10/09 06:55:00 BASE 0.00 116 1.08 91 -4.4 100 -4.4 0 0 966.7 NA 0.0000 -SN 8000 0 0 0 5710
2019/10/09 06:56:00 BASE 0.00 116 1.08 91 -4.4 100 -4.4 0 0 966.7 NA 0.0000 -SN 8000 0 0 0 5710
2019/10/09 06:57:00 BASE 0.00 116 M M -4.4 100 -4.4 0 0 966.7 NA 0.0000 -SN 7000 0 0 0 5710
2019/10/09 06:58:00 BASE 0.00 117 M M -4.4 100 -4.4 0 0 966.7 NA 0.0000 -SN BR 7000 0 0 0 5710
2019/10/09 06:59:00 BASE 0.00 117 M M -4.3 100 -4.3 0 0 966.7 NA 0.0000 -SN BR 7000 0 0 0 5680
2019/10/09 07:00:00 BASE 0.00 117 M M -4.3 100 -4.3 0 0 966.7 NA 0.0000 -SN BR 8000 0 0 0 5680
2019/10/09 07:01:00 BASE 0.00 117 M M -4.3 100 -4.3 0 0 966.7 NA 0.0000 -SN BR 9000 0 0 0 5680
2019/10/09 07:02:00 BASE 0.00 117 M M -4.3 100 -4.3 0 0 966.7 NA 0.0000 -SN BR 9999 0 0 0 5710
2019/10/09 07:03:00 BASE 0.00 117 M M -4.3 100 -4.3 0 0 966.7 NA 0.0000 -SN BR 9999 0 0 0 5770
2019/10/09 07:04:00 BASE 0.00 117 M M -4.3 100 -4.3 0 0 966.7 NA 0.0000 -SN BR 9999 0 0 0 5740
2019/10/09 07:05:00 BASE 0.00 117 M M -4.3 100 -4.3 0 0 966.7 NA 0.0000 -SN BR 8000 0 0 0 5640
2019/10/09 07:06:00 BASE 0.00 117 M M -4.3 100 -4.3 0 0 966.7 NA 0.0000 -SN BR 7000 0 0 0 4720
2019/10/09 07:07:00 BASE 0.00 117 M M -4.3 100 -4.3 0 0 966.7 NA 0.0000 -SN BR 7000 0 0 0 3710
2019/10/09 07:08:00 BASE 0.00 116 M M -4.3 100 -4.3 0 0 966.7 NA 0.0000 -SN BR 8000 0 0 0 4630
2019/10/09 07:09:00 BASE 0.00 114 M M -4.3 100 -4.3 0 0 966.7 NA 0.0000 -SN BR 8000 0 0 0 4790
2019/10/09 07:10:00 BASE 0.00 112 M M -4.3 100 -4.3 0 0 966.7 NA 0.0000 -SN BR 7000 0 0 0 4460
2019/10/09 07:11:00 BASE 0.00 112 M M -4.3 100 -4.3 0 0 966.7 NA 0.2540 -SN BR 8000 0 0 0 4690
2019/10/09 07:12:00 BASE 0.00 112 M M -4.3 100 -4.3 0 0 966.7 NA 0.0000 -SN BR 9000 0 0 0 4820
2019/10/09 07:13:00 BASE 0.00 101 M M -4.3 100 -4.3 0 0 966.7 NA 0.0000 -SN BR 9999 0 0 0 5120
2019/10/09 07:14:00 BASE 0.00 89 M M -4.3 100 -4.3 0 0 966.7 NA 0.0000 -SN BR 9999 0 0 0 5090
2019/10/09 07:15:00 BASE 0.00 87 M M -4.3 100 -4.3 0 0 966.7 NA 0.0000 -SN BR 9999 0 0 0 5020
2019/10/09 07:16:00 BASE 0.00 86 M M -4.3 100 -4.3 0 0 966.7 NA 0.0000 -SN BR 8000 0 0 0 5020
2019/10/09 07:17:00 BASE 0.00 76 M M -4.3 100 -4.3 0 0 966.7 NA 0.0000 -SN BR 9000 0 0 0 5020
2019/10/09 07:18:00 BASE 0.00 67 M M -4.3 100 -4.3 0 0 966.7 NA 0.0000 -SN BR 8000 0 0 0 4990
2019/10/09 07:19:00 BASE 0.00 70 M M -4.3 100 -4.3 0 0 966.8 NA 0.0000 -SN BR 6000 0 0 0 5020
2019/10/09 07:20:00 BASE 0.00 71 M M -4.4 100 -4.4 0 0 966.8 NA 0.0000 -SN BR 6000 0 0 0 4950
2019/10/09 07:21:00 BASE 0.00 70 M M -4.4 100 -4.4 0 0 966.8 NA 0.0000 -SN BR 5000 0 0 0 4330
2019/10/09 07:22:00 BASE 0.00 68 M M -4.4 100 -4.4 0 0 966.8 NA 0.0000 -SN BR 4700 0 0 0 4990
2019/10/09 07:23:00 BASE 0.00 63 M M -4.4 100 -4.4 0 0 966.8 NA 0.0000 -SN BR 4700 0 0 0 4990
2019/10/09 07:24:00 BASE 0.00 58 M M -4.4 100 -4.4 0 0 966.8 NA 0.0000 -SN BR 4600 0 0 0 4360
2019/10/09 07:25:00 BASE 0.04 54 1.03 54 -4.4 100 -4.4 0 0 966.8 NA 0.0000 -SN BR 4800 0 0 0 4300
2019/10/09 07:26:00 BASE 0.60 54 1.18 54 -4.4 100 -4.4 0 0 966.8 NA 0.0000 -SN BR 4900 0 0 0 4950
2019/10/09 07:27:00 BASE 1.13 53 1.39 51 -4.5 100 -4.5 0 0 966.8 NA 0.0000 -SN BR 5000 0 0 0 4990
2019/10/09 07:28:00 BASE 1.27 51 1.44 52 -4.5 100 -4.5 0 0 966.8 NA 0.0000 -SN BR 5000 0 0 0 5120
2019/10/09 07:29:00 BASE 1.44 52 1.54 52 -4.6 100 -4.6 0 0 966.8 NA 0.0000 -SN BR 5000 0 0 0 5090
2019/10/09 07:30:00 BASE 1.46 52 1.54 52 -4.6 100 -4.6 0 0 966.8 NA 0.0000 -SN BR 6000 0 0 0 3810
2019/10/09 07:31:00 BASE 1.41 51 1.54 52 -4.7 100 -4.7 0 0 966.8 NA 0.0000 -SN BR 6000 0 0 0 4270
2019/10/09 07:32:00 BASE 1.36 48 1.54 52 -4.7 100 -4.7 0 0 966.8 NA 0.0000 -SN BR 6000 0 0 0 5380
2019/10/09 07:33:00 BASE 1.23 44 1.54 52 -4.7 100 -4.7 0 0 966.8 NA 0.0000 -SN BR 6000 0 0 0 5380
2019/10/09 07:34:00 BASE 0.81 46 1.54 52 -4.7 100 -4.7 0 0 966.8 NA 0.0000 -SN BR 5000 0 0 0 5410
2019/10/09 07:35:00 BASE 0.32 49 1.54 52 -4.7 100 -4.7 0 0 966.8 NA 0.0000 -SN BR 4900 0 0 0 5410
2019/10/09 07:36:00 BASE 0.40 48 1.54 52 -4.6 100 -4.6 0 0 966.9 NA 0.0000 -SN BR 5000 0 0 0 5320
2019/10/09 07:37:00 BASE 0.88 48 1.54 52 -4.6 100 -4.6 0 0 967.0 NA 0.0000 -SN BR 5000 0 0 0 5320
2019/10/09 07:38:00 BASE 1.14 49 1.54 52 -4.6 100 -4.6 0 0 967.0 NA 0.0000 -SN BR 4800 0 0 0 5610
2019/10/09 07:39:00 BASE 0.99 49 1.49 47 -4.6 100 -4.6 0 0 967.0 NA 0.0000 -SN BR 5000 0 0 0 5610
2019/10/09 07:40:00 BASE 1.02 49 1.49 47 -4.6 100 -4.6 0 0 967.0 NA 0.0000 -SN BR 5000 0 0 0 6000
2019/10/09 07:41:00 BASE 1.32 49 1.65 49 -4.5 100 -4.5 0 0 967.0 NA 0.0000 -SN BR 7000 0 0 0 6000
2019/10/09 07:42:00 BASE 1.31 53 1.65 49 -4.5 100 -4.5 0 0 967.0 NA 0.0000 -SN BR 8000 0 0 0 5640
2019/10/09 07:43:00 BASE 0.65 69 1.65 49 -4.5 100 -4.5 0 0 967.0 NA 0.0000 -SN BR 9000 0 0 0 5480
2019/10/09 07:44:00 BASE 0.05 66 1.65 49 -4.5 100 -4.5 0 0 967.0 NA 0.0000 -SN BR 9000 0 0 0 5640
2019/10/09 07:45:00 BASE 0.00 50 1.65 49 -4.4 100 -4.4 0 0 967.0 NA 0.0000 -SN BR 9999 0 0 0 5810
2019/10/09 07:46:00 BASE 0.40 47 1.65 49 -4.4 100 -4.4 0 0 967.0 NA 0.0000 -SN BR 9999 0 0 0 5910
2019/10/09 07:47:00 BASE 0.90 44 1.65 49 -4.4 100 -4.4 0 0 967.0 NA 0.0000 -SN BR 9999 0 0 0 5840
2019/10/09 07:48:00 BASE 0.67 43 1.65 49 -4.4 100 -4.4 0 0 967.0 NA 0.0000 -SN BR 9999 0 0 0 5770
2019/10/09 07:49:00 BASE 0.17 43 1.65 49 -4.4 100 -4.4 0 0 967.1 NA 0.0000 -SN BR 9999 0 0 0 5710
2019/10/09 07:50:00 BASE 0.00 43 1.65 49 -4.4 100 -4.4 0 0 967.1 NA 0.0000 -SN BR 9999 0 0 0 5680
2019/10/09 07:51:00 BASE 0.00 43 1.49 49 -4.4 100 -4.4 0 0 967.1 NA 0.0000 -SN 9999 0 0 0 6000
2019/10/09 07:52:00 BASE 0.00 42 1.18 43 -4.4 100 -4.4 0 0 967.1 NA 0.0000 -SN 9999 0 0 0 6070
2019/10/09 07:53:00 BASE 0.00 40 1.18 43 -4.4 100 -4.4 0 0 967.1 NA 0.0000 -SN 9999 0 0 0 6070
2019/10/09 07:54:00 BASE 0.00 40 1.18 43 -4.4 100 -4.4 0 0 967.1 NA 0.2540 -SN 9999 200 1150 0 0
2019/10/09 07:55:00 BASE 0.00 39 1.18 43 -4.4 100 -4.4 0 0 967.1 NA 0.0000 -SN 9999 230 1120 0 0
2019/10/09 07:56:00 BASE 0.04 35 1.18 43 -4.4 100 -4.4 0 0 967.1 NA 0.0000 -SN 9999 230 1480 0 0
2019/10/09 07:57:00 BASE 0.09 28 1.08 23 -4.4 100 -4.4 0 0 967.1 NA 0.0000 -SN 9999 200 1180 0 0
2019/10/09 07:58:00 BASE 0.05 28 1.08 23 -4.5 100 -4.5 0 0 967.1 NA 0.0000 -SN 9999 0 0 0 5870
2019/10/09 07:59:00 BASE 0.00 29 1.08 23 -4.5 100 -4.5 0 0 967.2 NA 0.0000 -SN 9999 0 0 0 6170
2019/10/09 08:00:00 BASE 0.00 24 1.08 23 -4.5 100 -4.5 0 0 967.2 NA 0.0000 -SN 9999 0 0 0 6100
2019/10/09 08:01:00 BASE 0.00 22 1.08 23 -4.5 100 -4.5 0 0 967.2 NA 0.0000 -SN 9999 0 0 0 6140
2019/10/09 08:02:00 BASE 0.00 22 1.08 23 -4.5 100 -4.5 0 0 967.2 NA 0.0000 -SN 9999 0 0 0 6040
2019/10/09 08:03:00 BASE 0.00 20 1.08 23 -4.5 100 -4.5 0 0 967.2 NA 0.0000 -SN 9999 0 0 0 5940
2019/10/09 08:04:00 BASE 0.00 14 1.08 23 -4.4 100 -4.4 0 0 967.2 NA 0.0000 -SN 9999 0 0 0 5970
2019/10/09 08:05:00 BASE 0.00 17 1.08 23 -4.4 100 -4.4 0 0 967.2 NA 0.0000 -SN 9000 0 0 0 6000
2019/10/09 08:06:00 BASE 0.00 27 1.08 23 -4.4 100 -4.4 0 0 967.2 NA 0.0000 -SN 9999 0 0 0 5680
2019/10/09 08:07:00 BASE 0.00 22 M M -4.4 100 -4.4 0 0 967.2 NA 0.0000 -SN 9999 230 1380 0 0
2019/10/09 08:08:00 BASE 0.00 25 M M -4.4 100 -4.4 0 0 967.2 NA 0.0000 -SN 9999 260 1210 0 0
2019/10/09 08:09:00 BASE 0.04 30 1.03 17 -4.4 100 -4.4 0 0 967.2 NA 0.0000 -SN 9000 0 0 0 5410
2019/10/09 08:10:00 BASE 0.09 17 1.03 17 -4.4 100 -4.4 0 0 967.2 NA 0.0000 -SN 9999 0 0 0 5220
2019/10/09 08:11:00 BASE 0.04 12 1.03 17 -4.4 100 -4.4 0 0 967.2 NA 0.0000 -SN 9999 0 0 0 5250
2019/10/09 08:12:00 BASE 0.04 10 1.03 7 -4.4 100 -4.4 0 0 967.2 NA 0.0000 -SN 8000 0 0 0 5450
2019/10/09 08:13:00 BASE 0.04 7 1.03 7 -4.4 100 -4.4 0 0 967.2 NA 0.0000 -SN BR 7000 0 0 0 5510
2019/10/09 08:14:00 BASE 0.04 5 1.03 5 -4.4 100 -4.4 0 0 967.2 NA 0.0000 -SN BR 7000 0 0 0 5450
2019/10/09 08:15:00 BASE 0.17 4 1.03 4 -4.5 100 -4.5 0 0 967.2 NA 0.0000 -SN BR 8000 0 0 0 5380
2019/10/09 08:16:00 BASE 0.45 4 1.23 4 -4.5 100 -4.5 0 0 967.2 NA 0.0000 -SN BR 9000 230 1210 0 0
2019/10/09 08:17:00 BASE 0.95 4 1.39 4 -4.5 100 -4.5 0 0 967.3 NA 0.0000 -SN BR 9000 0 0 0 5150
2019/10/09 08:18:00 BASE 0.92 2 1.39 4 -4.5 100 -4.5 0 0 967.3 NA 0.0000 -SN BR 9999 0 0 0 5410
2019/10/09 08:19:00 BASE 0.29 357 1.39 4 -4.5 100 -4.5 0 0 967.3 NA 0.0000 -SN BR 9999 0 0 0 5510
2019/10/09 08:20:00 BASE 0.00 10 1.39 4 -4.5 100 -4.5 0 0 967.3 NA 0.0000 -SN BR 9000 0 0 0 5580
2019/10/09 08:21:00 BASE 0.40 12 1.44 354 -4.5 100 -4.5 0 0 967.3 NA 0.0000 -SN BR 8000 230 0 0 0
2019/10/09 08:22:00 BASE 1.14 359 1.59 14 -4.5 100 -4.5 0 0 967.3 NA 0.0000 -SN BR 5000 260 1150 0 0
2019/10/09 08:23:00 BASE 1.23 355 1.59 14 -4.5 100 -4.5 0 0 967.3 NA 0.0000 -SN BR 6000 200 0 0 0
2019/10/09 08:24:00 BASE 0.49 337 1.59 14 -4.5 100 -4.5 0 0 967.3 NA 0.0000 -SN BR 6000 260 1480 0 0
2019/10/09 08:25:00 BASE 0.44 336 1.59 14 -4.5 100 -4.5 0 0 967.3 NA 0.0000 -SN BR 6000 260 1280 0 0
2019/10/09 08:26:00 BASE 1.22 337 2.01 325 -4.5 100 -4.5 0 0 967.3 NA 0.0000 -SN BR 6000 200 1210 0 0
2019/10/09 08:27:00 BASE 1.68 328 2.06 323 -4.6 100 -4.6 0 0 967.3 NA 0.0000 -SN BR 6000 230 0 0 0
2019/10/09 08:28:00 BASE 1.96 327 2.21 329 -4.6 100 -4.6 0 0 967.3 NA 0.0000 -SN BR 6000 230 0 0 0
2019/10/09 08:29:00 BASE 2.08 326 2.31 328 -4.6 100 -4.6 0 0 967.3 NA 0.0000 -SN BR 6000 260 1020 0 0
2019/10/09 08:30:00 BASE 1.98 322 2.31 328 -4.6 100 -4.6 0 0 967.3 NA 0.0000 -SN BR 8000 260 1050 0 0
2019/10/09 08:31:00 BASE 1.76 319 2.31 328 -4.6 100 -4.6 0 0 967.3 NA 0.0000 -SN BR 9999 260 1080 0 0
2019/10/09 08:32:00 BASE 1.58 317 2.31 328 -4.6 100 -4.6 0 0 967.3 NA 0.0000 -SN BR 9999 260 1120 0 0
2019/10/09 08:33:00 BASE 1.70 315 2.31 328 -4.6 100 -4.6 0 0 967.4 NA 0.0000 -SN BR 9999 230 1050 0 0
2019/10/09 08:34:00 BASE 1.89 316 2.31 328 -4.6 100 -4.6 0 0 967.4 NA 0.0000 -SN BR 9999 260 1050 0 0
2019/10/09 08:35:00 BASE 2.00 315 2.31 328 -4.7 100 -4.7 0 0 967.4 NA 0.0000 -SN BR 9999 260 1670 0 0
2019/10/09 08:36:00 BASE 2.15 314 2.37 319 -4.7 100 -4.7 0 0 967.4 NA 0.0000 -SN BR 9999 260 1800 0 0
2019/10/09 08:37:00 BASE 2.19 312 2.37 319 -4.7 100 -4.7 0 0 967.4 NA 0.0000 -SN BR 9999 260 1800 0 0
2019/10/09 08:38:00 BASE 2.11 311 2.37 319 -4.7 100 -4.7 0 0 967.4 NA 0.0000 -SN BR 9999 230 1900 0 0
2019/10/09 08:39:00 BASE 2.05 313 2.37 319 -4.7 100 -4.7 0 0 967.4 NA 0.0000 9999 200 2200 0 0
2019/10/09 08:40:00 BASE 2.04 321 2.37 319 -4.7 100 -4.7 0 0 967.4 NA 0.0000 9999 200 2100 0 0
2019/10/09 08:41:00 BASE 2.19 326 2.42 330 -4.7 100 -4.7 0 0 967.4 NA 0.0000 9999 0 0 0 5610
2019/10/09 08:42:00 BASE 2.39 328 2.62 329 -4.7 100 -4.7 0 0 967.4 NA 0.0000 9000 0 0 0 5580
2019/10/09 08:43:00 BASE 2.45 329 2.62 329 -4.7 100 -4.7 0 0 967.4 NA 0.0000 9000 0 0 0 5540
2019/10/09 08:44:00 BASE 2.47 329 2.62 330 -4.7 100 -4.7 0 0 967.4 NA 0.0000 BR 9000 0 0 0 5510
2019/10/09 08:45:00 BASE 2.41 329 2.62 330 -4.7 100 -4.7 0 0 967.4 NA 0.0000 BR 8000 0 0 0 5540
2019/10/09 08:46:00 BASE 2.36 329 2.62 330 -4.7 100 -4.7 0 0 967.4 NA 0.0000 BR 8000 0 0 0 5510
2019/10/09 08:47:00 BASE 2.38 330 2.62 330 -4.8 100 -4.8 0 0 967.4 NA 0.0000 BR 8000 0 0 0 5480
2019/10/09 08:48:00 BASE 2.42 329 2.62 330 -4.8 100 -4.8 0 0 967.4 NA 0.0000 BR 8000 0 0 0 5380
2019/10/09 08:49:00 BASE 2.47 329 2.62 330 -4.8 100 -4.8 0 0 967.4 NA 0.0000 BR 8000 0 0 0 5350
2019/10/09 08:50:00 BASE 2.51 330 2.73 334 -4.8 100 -4.8 0 0 967.4 NA 0.0000 BR 7000 230 1610 0 0
2019/10/09 08:51:00 BASE 2.66 332 2.88 335 -4.8 100 -4.8 0 0 967.4 NA 0.0000 BR 7000 260 1610 0 0
2019/10/09 08:52:00 BASE 2.67 331 2.88 335 -4.8 100 -4.8 0 0 967.5 NA 0.0000 BR 7000 230 1020 0 0
2019/10/09 08:53:00 BASE 2.55 326 2.88 316 -4.8 100 -4.8 0 0 967.5 NA 0.0000 BR 5000 230 2070 0 0
2019/10/09 08:54:00 BASE 2.56 325 2.88 316 -4.7 100 -4.7 0 0 967.5 NA 0.0000 BR 5000 260 2100 0 0
2019/10/09 08:55:00 BASE 2.64 326 2.88 316 -4.7 100 -4.7 0 0 967.5 NA 0.0000 BR 5000 230 2100 0 0
2019/10/09 08:56:00 BASE 2.44 321 2.88 316 -4.7 100 -4.7 0 0 967.5 NA 0.0000 BR 4900 230 1610 0 0
2019/10/09 08:57:00 BASE 2.36 324 2.88 329 -4.7 100 -4.7 0 0 967.5 NA 0.0000 BR 4700 260 1250 0 0
2019/10/09 08:58:00 BASE 2.48 329 2.88 329 -4.7 100 -4.7 0 0 967.5 NA 0.0000 BR 4600 0 0 0 5350
2019/10/09 08:59:00 BASE 2.40 330 2.88 329 -4.7 100 -4.7 0 0 967.5 NA 0.0000 BR 4500 230 1280 0 0
2019/10/09 09:00:00 BASE 2.35 332 2.88 329 -4.6 100 -4.6 0 0 967.5 NA 0.0000 BR 4400 260 1350 0 0
2019/10/09 09:01:00 BASE 2.11 338 2.88 329 -4.6 100 -4.6 0 0 967.5 NA 0.0000 BR 4400 230 1410 0 0
2019/10/09 09:02:00 BASE 2.06 345 2.88 329 -4.6 100 -4.6 0 0 967.5 NA 0.0000 BR 4300 260 1710 0 0
2019/10/09 09:03:00 BASE 2.01 345 2.88 329 -4.6 100 -4.6 0 0 967.5 NA 0.0000 BR 4200 230 2170 0 0
2019/10/09 09:04:00 BASE 1.84 345 2.88 329 -4.6 100 -4.6 0 0 967.5 NA 0.0000 BR 4100 230 1380 0 0
2019/10/09 09:05:00 BASE 1.81 351 2.88 329 -4.7 100 -4.7 0 0 967.5 NA 0.0000 BR 4100 260 1410 0 0
2019/10/09 09:06:00 BASE 2.03 353 2.88 329 -4.7 100 -4.7 0 0 967.5 NA 0.0000 BR 4000 260 1280 0 0
2019/10/09 09:07:00 BASE 2.26 355 2.83 330 -4.7 100 -4.7 0 0 967.6 NA 0.0000 BR 3900 260 1380 0 0
2019/10/09 09:08:00 BASE 2.40 354 2.78 345 -4.7 100 -4.7 0 0 967.6 NA 0.0000 BR 3800 260 2460 0 0
2019/10/09 09:09:00 BASE 2.73 344 3.09 341 -4.7 100 -4.7 0 0 967.6 NA 0.0000 BR 3800 260 1310 0 0
2019/10/09 09:10:00 BASE 2.94 341 3.19 344 -4.7 100 -4.7 0 0 967.7 NA 0.0000 BR 3800 260 1310 0 0
2019/10/09 09:11:00 BASE 2.88 339 3.19 344 -4.7 100 -4.7 0 0 967.6 NA 0.0000 BR 3700 260 1510 0 0
2019/10/09 09:12:00 BASE 2.72 334 3.19 344 -4.7 100 -4.7 0 0 967.6 NA 0.0000 BR 3700 230 1510 0 0
2019/10/09 09:13:00 BASE 2.75 331 3.19 344 -4.7 100 -4.7 0 0 967.7 NA 0.0000 BR 3600 230 1570 0 0
2019/10/09 09:14:00 BASE 2.66 329 3.19 344 -4.7 100 -4.7 0 0 967.7 NA 0.0000 BR 3600 230 1610 0 0
2019/10/09 09:15:00 BASE 2.34 327 3.19 344 -4.7 100 -4.7 0 0 967.7 NA 0.0000 BR 3500 0 0 0 5250
2019/10/09 09:16:00 BASE 2.42 328 3.19 344 -4.6 100 -4.6 0 0 967.7 NA 0.0000 BR 3500 0 0 0 5480
2019/10/09 09:17:00 BASE 2.39 326 3.19 344 -4.6 100 -4.6 0 0 967.7 NA 0.0000 BR 3400 0 0 0 5410
2019/10/09 09:18:00 BASE 2.03 324 3.19 344 -4.6 100 -4.6 0 0 967.7 NA 0.0000 BR 3400 0 0 0 5280
2019/10/09 09:19:00 BASE 1.87 328 3.19 344 -4.6 100 -4.6 0 0 967.7 NA 0.0000 BR 3400 0 0 0 5320
2019/10/09 09:20:00 BASE 1.72 331 3.14 337 -4.6 100 -4.6 1 0 967.7 NA 0.0000 BR 3300 0 0 0 5250
2019/10/09 09:21:00 BASE 1.17 325 3.09 332 -4.6 100 -4.6 1 0 967.7 NA 0.0000 BR 3300 0 0 0 5350
2019/10/09 09:22:00 BASE 0.66 334 3.09 332 -4.6 100 -4.6 1 0 967.7 NA 0.0000 BR 3300 0 0 0 5350
2019/10/09 09:23:00 BASE 0.94 349 3.09 332 -4.6 100 -4.6 1 0 967.7 NA 0.0000 BR 3200 0 0 0 5320
2019/10/09 09:24:00 BASE 1.14 345 3.09 332 -4.6 100 -4.6 1 0 967.7 NA 0.0000 BR 3200 0 0 0 5410
2019/10/09 09:25:00 BASE 0.80 339 3.09 332 -4.6 100 -4.6 1 0 967.7 NA 0.0000 BR 3200 0 0 0 5410
2019/10/09 09:26:00 BASE 0.67 339 2.68 336 -4.6 100 -4.6 1 0 967.7 NA 0.0000 BR 3100 0 0 0 5350
2019/10/09 09:27:00 BASE 0.73 347 2.21 321 -4.6 100 -4.6 2 0 967.7 NA 0.0000 -SN BR 3300 0 0 0 5540
2019/10/09 09:28:00 BASE 1.18 353 2.01 324 -4.6 100 -4.6 2 0 967.7 NA 0.0000 -SN BR 4700 0 0 0 5540
2019/10/09 09:29:00 BASE 1.72 360 1.95 5 -4.6 100 -4.6 2 0 967.7 NA 0.0000 -SN BR 4200 0 0 0 5580
2019/10/09 09:30:00 BASE 1.95 0 2.21 360 -4.6 100 -4.6 2 0 967.8 NA 0.0000 -SN BR 3300 0 0 0 5610
2019/10/09 09:31:00 BASE 2.05 353 2.21 360 -4.6 100 -4.6 2 0 967.8 NA 0.0000 -SN BR 3800 0 0 0 5680
2019/10/09 09:32:00 BASE 2.10 344 2.37 340 -4.7 100 -4.7 2 0 967.8 NA 0.0000 -SN BR 3500 0 0 0 5610
2019/10/09 09:33:00 BASE 2.24 343 2.68 352 -4.7 100 -4.7 3 0 967.8 NA 0.0000 -SN BR 2900 0 0 0 5940
2019/10/09 09:34:00 BASE 2.46 348 2.83 352 -4.7 100 -4.7 3 0 967.8 NA 0.0000 -SN BR 3800 0 0 0 6100
2019/10/09 09:35:00 BASE 2.64 352 2.83 352 -4.7 100 -4.7 3 0 967.8 NA 0.0000 -SN BR 4200 0 0 0 6230
2019/10/09 09:36:00 BASE 2.53 351 2.83 352 -4.7 100 -4.7 3 0 967.8 NA 0.0000 -SN BR 4100 0 0 0 6270
2019/10/09 09:37:00 BASE 2.20 352 2.83 352 -4.6 100 -4.6 4 0 967.8 NA 0.0000 -SN BR 3800 0 0 0 6400
2019/10/09 09:38:00 BASE 1.86 356 2.83 352 -4.6 100 -4.6 4 0 967.9 NA 0.0000 -SN BR 3600 0 0 0 6400
2019/10/09 09:39:00 BASE 1.68 358 2.83 352 -4.5 100 -4.5 4 0 967.9 NA 0.0000 -SN BR 4400 0 0 0 6400
2019/10/09 09:40:00 BASE 1.64 357 2.83 352 -4.5 100 -4.5 4 0 967.9 NA 0.0000 -SN BR 4500 0 0 0 6370
2019/10/09 09:41:00 BASE 1.60 351 2.83 352 -4.5 100 -4.5 5 0 967.9 NA 0.0000 -SN BR 4700 0 0 0 6230
2019/10/09 09:42:00 BASE 1.53 352 2.83 352 -4.5 100 -4.5 5 0 967.9 NA 0.0000 -SN BR 5000 0 0 0 6400
2019/10/09 09:43:00 BASE 1.70 357 2.83 352 -4.6 100 -4.6 5 0 967.9 NA 0.0000 -SN BR 6000 0 0 0 6400
2019/10/09 09:44:00 BASE 1.98 354 2.78 355 -4.5 100 -4.5 5 0 967.9 NA 0.0000 -SN BR 6000 230 1150 0 0
2019/10/09 09:45:00 BASE 2.00 353 2.68 351 -4.5 100 -4.5 6 0 967.9 NA 0.0000 -SN BR 5000 0 0 0 6070
2019/10/09 09:46:00 BASE 1.97 353 2.31 342 -4.5 100 -4.5 6 0 967.9 NA 0.0000 -SN BR 5000 200 1540 0 0
2019/10/09 09:47:00 BASE 2.07 349 2.47 353 -4.5 100 -4.5 6 0 967.9 NA 0.0000 -SN BR 4700 230 1510 0 0
2019/10/09 09:48:00 BASE 2.36 349 2.83 350 -4.6 100 -4.6 7 0 967.9 NA 0.0000 -SN BR 4000 0 0 0 6590
2019/10/09 09:49:00 BASE 2.63 350 3.19 348 -4.6 100 -4.6 7 0 967.9 NA 0.0000 -SN BR 3400 230 1610 0 0
2019/10/09 09:50:00 BASE 2.86 348 3.19 344 -4.6 100 -4.6 7 0 967.9 NA 0.0000 -SN BR 4200 230 1640 0 0
2019/10/09 09:51:00 BASE 2.93 345 3.19 344 -4.6 100 -4.6 7 0 967.9 NA 0.0000 -SN BR 4500 230 1640 0 0
2019/10/09 09:52:00 BASE 2.91 346 3.19 344 -4.6 100 -4.6 8 0 967.9 NA 0.0000 -SN BR 4400 0 0 0 6230
2019/10/09 09:53:00 BASE 2.91 346 3.19 344 -4.6 100 -4.6 8 0 967.9 NA 0.0000 -SN BR 4200 0 0 0 5150
2019/10/09 09:54:00 BASE 2.93 344 3.24 337 -4.6 100 -4.6 8 0 967.9 NA 0.0000 -SN BR 4400 0 0 0 6070
2019/10/09 09:55:00 BASE 2.86 342 3.24 337 -4.6 100 -4.6 8 0 967.9 NA 0.0000 -SN BR 4300 0 0 0 6170
2019/10/09 09:56:00 BASE 2.58 343 3.24 337 -4.6 100 -4.6 9 0 967.9 NA 0.0000 -SN BR 4200 0 0 0 6170
2019/10/09 09:57:00 BASE 2.48 345 3.24 337 -4.6 100 -4.6 9 0 967.9 NA 0.0000 -SN BR 4000 0 0 0 5940
2019/10/09 09:58:00 BASE 2.53 344 3.24 337 -4.6 100 -4.6 9 0 967.9 NA 0.0000 -SN BR 4300 0 0 0 5150
2019/10/09 09:59:00 BASE 2.48 346 3.24 337 -4.6 100 -4.6 9 0 967.9 NA 0.0000 -SN BR 4200 0 0 0 5150
2019/10/09 10:00:00 BASE 2.48 349 3.24 337 -4.6 100 -4.6 10 0 967.9 NA 0.0000 -SN BR 4200 0 0 0 5120
2019/10/09 10:01:00 BASE 2.51 348 3.24 337 -4.6 100 -4.6 10 0 968.0 NA 0.0000 -SN BR 4200 0 0 0 5150
2019/10/09 10:02:00 BASE 2.46 343 3.24 337 -4.6 100 -4.6 10 0 968.1 NA 0.0000 -SN BR 4100 0 0 0 5090
2019/10/09 10:03:00 BASE 2.30 338 3.24 337 -4.6 100 -4.6 11 0 968.1 NA 0.0000 -SN BR 4000 0 0 0 4990
2019/10/09 10:04:00 BASE 2.03 336 2.93 340 -4.6 100 -4.6 11 0 968.1 NA 0.0000 -SN BR 3700 0 0 0 5120
2019/10/09 10:05:00 BASE 1.89 333 2.78 347 -4.6 100 -4.6 11 0 968.1 NA 0.0000 -SN BR 3100 0 0 0 5120
2019/10/09 10:06:00 BASE 1.87 332 2.78 347 -4.6 100 -4.6 11 0 968.1 NA 0.0000 -SN BR 2900 0 0 0 5350
2019/10/09 10:07:00 BASE 1.84 334 2.78 347 -4.5 100 -4.5 12 0 968.1 NA 0.0000 -SN BR 2800 0 0 0 5840
2019/10/09 10:08:00 BASE 1.84 330 2.78 347 -4.5 100 -4.5 12 0 968.1 NA 0.0000 -SN BR 3400 0 0 0 5090
2019/10/09 10:09:00 BASE 1.67 323 2.78 347 -4.5 100 -4.5 12 0 968.1 NA 0.0000 -SN BR 3400 0 0 0 5320
2019/10/09 10:10:00 BASE 1.44 320 2.73 341 -4.5 100 -4.5 13 0 968.1 NA 0.0000 -SN BR 3300 0 0 0 5050
2019/10/09 10:11:00 BASE 1.49 321 2.73 341 -4.5 100 -4.5 13 0 968.1 NA 0.0000 -SN BR 3900 0 0 0 5150
2019/10/09 10:12:00 BASE 1.60 322 2.42 337 -4.5 100 -4.5 14 0 968.1 NA 0.0000 -SN BR 4700 0 0 0 6370
2019/10/09 10:13:00 BASE 1.66 318 2.16 337 -4.5 100 -4.5 14 0 968.2 NA 0.0000 -SN BR 4600 0 0 0 6100
2019/10/09 10:14:00 BASE 1.62 318 2.06 329 -4.5 100 -4.5 14 0 968.2 NA 0.0000 -SN BR 3900 0 0 0 5250
2019/10/09 10:15:00 BASE 1.57 326 2.06 329 -4.5 100 -4.5 15 0 968.2 NA 0.0000 -SN BR 5000 0 0 0 6000
2019/10/09 10:16:00 BASE 1.55 332 2.06 329 -4.4 100 -4.4 15 0 968.2 NA 0.0000 -SN BR 6000 0 0 0 6140
2019/10/09 10:17:00 BASE 1.64 337 2.06 329 -4.4 100 -4.4 15 0 968.2 NA 0.0000 -SN BR 5000 0 0 0 6070
2019/10/09 10:18:00 BASE 1.90 345 2.11 348 -4.4 100 -4.4 16 0 968.2 NA 0.0000 -SN BR 5000 0 0 0 6140
2019/10/09 10:19:00 BASE 2.15 348 2.52 350 -4.5 100 -4.5 16 0 968.2 NA 0.0000 -SN BR 6000 0 0 0 6070
2019/10/09 10:20:00 BASE 2.30 348 2.57 348 -4.5 100 -4.5 17 0 968.2 NA 0.0000 -SN BR 6000 0 0 0 5870
2019/10/09 10:21:00 BASE 2.45 345 2.62 344 -4.5 100 -4.5 17 0 968.2 NA 0.0000 -SN BR 6000 160 1280 0 0
2019/10/09 10:22:00 BASE 2.51 344 2.68 345 -4.5 100 -4.5 17 0 968.2 NA 0.0000 -SN BR 6000 0 0 0 5970
2019/10/09 10:23:00 BASE 2.37 347 2.68 345 -4.5 100 -4.5 18 0 968.3 NA 0.0000 -SN BR 6000 0 0 0 5970
2019/10/09 10:24:00 BASE 2.13 348 2.68 345 -4.5 100 -4.5 18 0 968.2 NA 0.0000 -SN BR 6000 0 0 0 5870
2019/10/09 10:25:00 BASE 1.96 349 2.68 345 -4.6 100 -4.6 19 0 968.3 NA 0.0000 -SN BR 6000 0 0 0 5940
2019/10/09 10:26:00 BASE 1.76 348 2.68 345 -4.6 100 -4.6 19 0 968.3 NA 0.0000 BR 5000 0 0 0 6000
2019/10/09 10:27:00 BASE 1.80 344 2.68 345 -4.6 100 -4.6 20 0 968.3 NA 0.0000 BR 5000 0 0 0 5480
2019/10/09 10:28:00 BASE 1.95 341 2.68 345 -4.6 100 -4.6 20 0 968.3 NA 0.0000 BR 5000 0 0 0 5540
2019/10/09 10:29:00 BASE 1.93 343 2.68 345 -4.6 100 -4.6 21 0 968.3 NA 0.0000 BR 5000 0 0 0 6200
2019/10/09 10:30:00 BASE 2.16 346 2.68 345 -4.6 100 -4.6 21 0 968.3 NA 0.0000 -SN BR 5000 0 0 0 6140
2019/10/09 10:31:00 BASE 2.42 348 2.68 348 -4.6 100 -4.6 21 0 968.3 NA 0.0000 -SN BR 5000 0 0 0 6370
2019/10/09 10:32:00 BASE 2.43 349 2.68 347 -4.6 100 -4.6 22 0 968.3 NA 0.0000 -SN BR 5000 0 0 0 6630
2019/10/09 10:33:00 BASE 2.35 350 2.68 347 -4.6 100 -4.6 22 0 968.3 NA 0.0000 -SN BR 5000 0 0 0 5280
2019/10/09 10:34:00 BASE 2.17 351 2.68 347 -4.6 100 -4.6 22 0 968.3 NA 0.0000 -SN BR 5000 160 1710 0 0
2019/10/09 10:35:00 BASE 1.85 353 2.68 347 -4.6 100 -4.6 23 0 968.3 NA 0.0000 -SN BR 5000 200 1440 0 0
2019/10/09 10:36:00 BASE 1.55 354 2.68 347 -4.6 100 -4.6 23 0 968.3 NA 0.0000 -SN BR 5000 200 1800 0 0
2019/10/09 10:37:00 BASE 1.43 353 2.68 347 -4.6 100 -4.6 24 0 968.3 NA 0.0000 -SN BR 5000 160 1900 0 0
2019/10/09 10:38:00 BASE 1.50 1 2.68 347 -4.6 100 -4.6 24 0 968.3 NA 0.0000 -SN BR 4900 0 0 0 5410
2019/10/09 10:39:00 BASE 1.43 9 2.68 347 -4.6 100 -4.6 24 0 968.4 NA 0.0000 -SN BR 4700 0 0 0 5610
2019/10/09 10:40:00 BASE 1.40 6 2.68 347 -4.6 100 -4.6 25 0 968.4 NA 0.0000 -SN BR 4500 0 0 0 6040
2019/10/09 10:41:00 BASE 1.52 5 2.68 347 -4.6 100 -4.6 25 0 968.4 NA 0.0000 -SN BR 3600 0 0 0 5480
2019/10/09 10:42:00 BASE 1.40 10 2.62 349 -4.5 100 -4.5 25 0 968.4 NA 0.0000 -SN BR 2800 0 0 0 5540
2019/10/09 10:43:00 BASE 1.24 7 2.21 351 -4.5 100 -4.5 25 0 968.4 NA 0.0000 -SN BR 2600 0 0 0 5510
2019/10/09 10:44:00 BASE 1.49 0 2.11 3 -4.5 100 -4.5 25 0 968.4 NA 0.0000 -SN BR 3100 22280 0 0 0
2019/10/09 10:45:00 BASE 1.89 3 2.21 1 -4.5 100 -4.5 26 0 968.4 NA 0.0000 -SN BR 3800 0 0 0 5580
2019/10/09 10:46:00 BASE 2.02 3 2.42 5 -4.5 100 -4.5 26 0 968.4 NA 0.0000 -SN BR 3400 0 0 0 5680
2019/10/09 10:47:00 BASE 1.97 7 2.42 5 -4.5 100 -4.5 26 0 968.4 NA 0.0000 -SN BR 3300 0 0 0 5610
2019/10/09 10:48:00 BASE 2.10 6 2.78 1 -4.5 100 -4.5 27 0 968.5 NA 0.0000 -SN BR 3200 0 0 0 5580
2019/10/09 10:49:00 BASE 2.36 359 2.83 3 -4.5 100 -4.5 27 0 968.5 NA 0.0000 -SN BR 3300 0 0 0 6070
2019/10/09 10:50:00 BASE 2.15 359 2.83 3 -4.5 100 -4.5 27 0 968.5 NA 0.0000 -SN BR 2900 0 0 0 6040
2019/10/09 10:51:00 BASE 1.80 4 2.83 3 -4.5 100 -4.5 28 0 968.5 NA 0.0000 -SN BR 2600 0 0 0 5940
2019/10/09 10:52:00 BASE 1.83 2 2.83 3 -4.5 100 -4.5 28 0 968.5 NA 0.0000 -SN BR 2700 0 0 0 5770
2019/10/09 10:53:00 BASE 2.04 358 2.83 3 -4.5 100 -4.5 28 0 968.5 NA 0.0000 -SN BR 3300 0 0 0 6100
2019/10/09 10:54:00 BASE 2.07 358 2.83 3 -4.5 100 -4.5 29 0 968.5 NA 0.0000 -SN BR 3700 0 0 0 6200
2019/10/09 10:55:00 BASE 1.87 359 2.83 3 -4.5 100 -4.5 29 0 968.5 NA 0.0000 -SN BR 4300 160 1150 0 0
2019/10/09 10:56:00 BASE 1.77 360 2.83 3 -4.5 100 -4.5 30 0 968.5 NA 0.0000 -SN BR 4500 0 0 0 5910
2019/10/09 10:57:00 BASE 1.83 360 2.83 3 -4.5 100 -4.5 30 0 968.5 NA 0.0000 -SN BR 4400 200 2130 0 0
2019/10/09 10:58:00 BASE 1.89 359 2.83 3 -4.5 100 -4.5 30 0 968.5 NA 0.0000 -SN BR 4400 200 2660 0 0
2019/10/09 10:59:00 BASE 1.95 355 2.31 355 -4.5 100 -4.5 30 0 968.5 NA 0.0000 -SN BR 4300 160 2000 0 0
2019/10/09 11:00:00 BASE 2.02 353 2.37 354 -4.5 100 -4.5 31 0 968.5 NA 0.0000 -SN BR 4200 160 2660 0 0
2019/10/09 11:01:00 BASE 2.11 353 2.47 355 -4.5 100 -4.5 31 0 968.5 NA 0.0000 -SN BR 4100 0 0 0 5770
2019/10/09 11:02:00 BASE 2.27 356 2.62 360 -4.5 100 -4.5 31 0 968.5 NA 0.0000 -SN BR 4100 0 0 0 5410
2019/10/09 11:03:00 BASE 2.35 359 2.62 360 -4.5 100 -4.5 31 0 968.5 NA 0.2540 BR 4000 160 1770 0 0
2019/10/09 11:04:00 BASE 2.40 0 2.78 355 -4.5 100 -4.5 31 0 968.5 NA 0.0000 BR 3900 160 1380 0 0
2019/10/09 11:05:00 BASE 2.44 0 2.93 352 -4.5 100 -4.5 32 0 968.5 NA 0.0000 BR 3800 0 0 0 5350
2019/10/09 11:06:00 BASE 2.35 356 2.93 352 -4.5 100 -4.5 32 0 968.5 NA 0.0000 BR 3900 160 1120 0 0
2019/10/09 11:07:00 BASE 2.36 354 2.93 352 -4.5 100 -4.5 32 0 968.5 NA 0.0000 BR 3800 0 0 0 5320
2019/10/09 11:08:00 BASE 2.15 5 2.93 352 -4.5 100 -4.5 32 0 968.6 NA 0.0000 -SN BR 3700 0 0 0 4590
2019/10/09 11:09:00 BASE 1.92 10 2.93 352 -4.5 100 -4.5 33 0 968.6 NA 0.0000 -SN BR 3700 200 0 0 0
2019/10/09 11:10:00 BASE 2.06 6 2.93 352 -4.5 100 -4.5 33 0 968.5 NA 0.0000 -SN BR 5000 200 0 0 0
2019/10/09 11:11:00 BASE 2.19 9 2.93 352 -4.5 100 -4.5 33 0 968.6 NA 0.0000 -SN BR 6000 230 2490 0 0
2019/10/09 11:12:00 BASE 2.15 8 2.93 352 -4.5 100 -4.5 34 0 968.6 NA 0.0000 -SN BR 4000 230 0 0 0
2019/10/09 11:13:00 BASE 2.22 1 2.93 352 -4.4 100 -4.4 34 0 968.6 NA 0.0000 -SN BR 4300 230 0 0 0
2019/10/09 11:14:00 BASE 2.11 1 2.93 352 -4.4 100 -4.4 35 0 968.6 NA 0.0000 -SN BR 7000 230 0 0 0
2019/10/09 11:15:00 BASE 1.86 7 2.93 352 -4.5 100 -4.5 35 0 968.6 NA 0.0000 -SN BR 5000 230 0 0 0
2019/10/09 11:16:00 BASE 1.90 15 2.93 352 -4.4 100 -4.4 36 0 968.6 NA 0.0000 -SN BR 8000 260 0 0 0
2019/10/09 11:17:00 BASE 2.04 9 2.68 15 -4.4 100 -4.4 36 0 968.6 NA 0.0000 -SN BR 7000 230 0 0 0
2019/10/09 11:18:00 BASE 1.90 0 2.68 15 -4.4 100 -4.4 37 0 968.6 NA 0.0000 -SN BR 5000 260 2490 0 0
2019/10/09 11:19:00 BASE 1.58 0 2.68 15 -4.4 100 -4.4 37 0 968.6 NA 0.0000 -SN BR 4900 260 1710 0 0
2019/10/09 11:20:00 BASE 1.54 359 2.68 15 -4.4 100 -4.4 38 0 968.7 NA 0.0000 -SN BR 4900 300 1710 0 0
2019/10/09 11:21:00 BASE 1.90 359 2.62 351 -4.4 100 -4.4 38 0 968.7 NA 0.0000 -SN BR 4000 300 2170 0 0
2019/10/09 11:22:00 BASE 1.97 1 2.62 351 -4.4 100 -4.4 39 0 968.7 NA 0.0000 -SN BR 4200 300 0 0 0
2019/10/09 11:23:01 BASE 1.82 1 2.62 351 -4.4 100 -4.4 39 0 968.7 NA 0.0000 -SN BR 5000 300 0 0 0
2019/10/09 11:24:00 BASE 1.80 0 2.62 351 -4.4 100 -4.4 40 0 968.7 NA 0.0000 -SN BR 4100 260 0 0 0
2019/10/09 11:25:00 BASE 1.23 5 2.62 351 -4.4 100 -4.4 40 0 968.7 NA 0.0000 -SN BR 3600 260 0 0 0
2019/10/09 11:26:00 BASE 0.99 5 2.62 351 -4.4 100 -4.4 41 0 968.7 NA 0.0000 -SN BR 4100 300 0 0 0
2019/10/09 11:27:00 BASE 1.21 4 2.62 351 -4.4 100 -4.4 42 0 968.7 NA 0.0000 -SN BR 4800 330 0 0 0
2019/10/09 11:28:00 BASE 0.83 7 2.62 351 -4.4 100 -4.4 43 0 968.7 NA 0.0000 -SN BR 6000 330 0 0 0
2019/10/09 11:29:00 BASE 0.54 12 2.62 351 -4.5 100 -4.5 44 0 968.7 NA 0.0000 -SN BR 9000 300 0 0 0
2019/10/09 11:30:00 BASE 0.45 12 2.62 351 -4.4 100 -4.4 45 0 968.7 NA 0.0000 -SN BR 9999 330 2230 0 0
2019/10/09 11:31:00 BASE 0.70 10 2.11 355 -4.4 100 -4.4 46 0 968.7 NA 0.0000 -SN BR 9999 360 2170 0 0
2019/10/09 11:32:00 BASE 1.21 8 2.11 355 -4.4 100 -4.4 47 0 968.7 NA 0.0000 -SN BR 9999 330 2230 0 0
2019/10/09 11:33:00 BASE 1.31 5 2.11 355 -4.4 100 -4.4 48 0 968.7 NA 0.0000 -SN BR 9999 360 2170 0 0
2019/10/09 11:34:00 BASE 1.14 4 1.49 2 -4.4 100 -4.4 49 0 968.7 NA 0.0000 -SN BR 9999 390 2400 0 0
2019/10/09 11:35:00 BASE 0.75 5 1.49 2 -4.4 100 -4.4 49 0 968.7 NA 0.0000 -SN BR 9999 360 2300 0 0
2019/10/09 11:36:00 BASE 0.27 4 1.49 2 -4.4 100 -4.4 50 0 968.7 NA 0.0000 -SN BR 9999 360 2330 0 0
2019/10/09 11:37:00 BASE 0.00 5 1.49 2 -4.4 100 -4.4 50 0 968.7 NA 0.0000 BR 9999 360 2300 0 0
2019/10/09 11:38:00 BASE 0.00 7 1.49 2 -4.4 100 -4.4 51 0 968.7 NA 0.0000 9999 330 0 0 0
2019/10/09 11:39:00 BASE 0.00 2 1.49 2 -4.4 100 -4.4 51 0 968.7 NA 0.0000 9999 330 1570 0 0
2019/10/09 11:40:00 BASE 0.00 355 1.49 2 -4.4 100 -4.4 51 0 968.7 NA 0.0000 9999 330 1510 0 0
2019/10/09 11:41:00 BASE 0.00 354 1.49 2 -4.4 100 -4.4 50 0 968.7 NA 0.0000 9999 300 1540 0 0
2019/10/09 11:42:00 BASE 0.00 354 1.49 2 -4.4 100 -4.4 50 0 968.7 NA 0.0000 9999 260 1510 0 0
2019/10/09 11:43:00 BASE 0.00 357 1.29 4 -4.4 100 -4.4 50 0 968.7 NA 0.0000 9999 300 1410 0 0
2019/10/09 11:44:00 BASE 0.00 4 1.08 4 -4.4 100 -4.4 50 0 968.7 NA 0.0000 9000 260 2760 0 0
2019/10/09 11:45:00 BASE 0.00 8 M M -4.4 100 -4.4 51 0 968.8 NA 0.0000 BR 9000 260 2360 0 0
2019/10/09 11:46:00 BASE 0.00 8 M M -4.4 100 -4.4 51 0 968.7 NA 0.0000 BR 9000 230 1050 0 0
2019/10/09 11:47:00 BASE 0.00 10 M M -4.4 100 -4.4 51 0 968.8 NA 0.0000 BR 9000 230 2360 0 0
2019/10/09 11:48:00 BASE 0.00 18 M M -4.4 100 -4.4 51 0 968.8 NA 0.0000 BR 9000 230 0 0 0
2019/10/09 11:49:00 BASE 0.00 32 M M -4.4 100 -4.4 50 0 968.7 NA 0.0000 BR 9000 230 2460 0 0
2019/10/09 11:50:00 BASE 0.00 43 M M -4.4 100 -4.4 50 0 968.7 NA 0.0000 BR 9000 230 0 0 0
2019/10/09 11:51:00 BASE 0.00 50 M M -4.3 100 -4.3 49 0 968.7 NA 0.0000 BR 9000 260 2260 0 0
2019/10/09 11:52:00 BASE 0.00 60 M M -4.3 100 -4.3 48 0 968.8 NA 0.0000 BR 9000 260 22930 0 0
2019/10/09 11:53:00 BASE 0.00 66 M M -4.3 100 -4.3 48 0 968.8 NA 0.0000 BR 8000 260 0 0 0
2019/10/09 11:54:00 BASE 0.00 72 M M -4.3 100 -4.3 47 0 968.9 NA 0.0000 BR 8000 330 0 0 0
2019/10/09 11:55:00 BASE 0.00 75 M M -4.2 100 -4.2 46 0 968.8 NA 0.0000 -SN BR 6000 300 0 0 0
2019/10/09 11:56:00 BASE 0.00 76 M M -4.2 100 -4.2 46 0 968.8 NA 0.0000 -SN BR 6000 260 0 0 0
2019/10/09 11:57:00 BASE 0.00 76 M M -4.2 100 -4.2 46 0 968.8 NA 0.0000 -SN BR 7000 300 0 0 0
2019/10/09 11:58:00 BASE 0.00 76 M M -4.2 100 -4.2 45 0 968.8 NA 0.0000 -SN BR 7000 300 0 0 0
2019/10/09 11:59:00 BASE 0.00 76 M M -4.2 100 -4.2 45 0 968.8 NA 0.0000 -SN BR 9000 300 0 0 0
2019/10/09 12:00:00 BASE 0.00 75 M M -4.2 100 -4.2 44 0 968.9 NA 0.0000 -SN BR 8000 260 0 0 0
2019/10/09 12:01:00 BASE 0.27 75 1.18 75 -4.2 100 -4.2 44 0 968.9 NA 0.0000 -SN BR 9999 0 0 0 4660
2019/10/09 12:02:00 BASE 0.84 74 1.23 75 -4.2 100 -4.2 44 0 968.9 NA 0.0000 -SN BR 8000 260 0 0 0
2019/10/09 12:03:00 BASE 0.74 69 1.23 75 -4.2 100 -4.2 44 0 968.9 NA 0.0000 -SN BR 8000 300 0 0 0
2019/10/09 12:04:00 BASE 0.49 64 1.23 75 -4.2 100 -4.2 44 0 968.9 NA 0.0000 -SN BR 8000 0 0 0 4490
2019/10/09 12:05:00 BASE 0.86 58 1.23 75 -4.2 100 -4.2 44 0 968.9 NA 0.0000 -SN BR 7000 330 0 0 0
2019/10/09 12:06:00 BASE 1.18 53 1.34 52 -4.1 100 -4.1 44 0 968.9 NA 0.0000 -SN BR 9000 330 0 0 0
2019/10/09 12:07:00 BASE 1.26 52 1.34 52 -4.1 100 -4.1 44 0 968.9 NA 0.0000 -SN BR 8000 330 0 0 0
2019/10/09 12:08:00 BASE 1.25 53 1.39 54 -4.1 100 -4.1 44 0 968.9 NA 0.0000 -SN BR 9000 330 0 0 0
2019/10/09 12:09:00 BASE 1.28 52 1.39 46 -4.1 100 -4.1 44 0 968.9 NA 0.0000 -SN BR 8000 330 0 0 0
2019/10/09 12:10:00 BASE 1.29 47 1.39 46 -4.1 100 -4.1 43 0 968.9 NA 0.0000 -SN BR 9000 330 0 0 0
2019/10/09 12:11:00 BASE 1.22 42 1.39 46 -4.1 100 -4.1 43 0 968.9 NA 0.0000 -SN BR 7000 330 0 0 0
2019/10/09 12:12:00 BASE 0.95 38 1.39 46 -4.1 100 -4.1 42 0 968.9 NA 0.0000 -SN BR 5000 330 0 0 0
2019/10/09 12:13:00 BASE 0.49 39 1.39 46 -4.1 100 -4.1 42 0 968.9 NA 0.0000 -SN BR 5000 0 0 0 4760
2019/10/09 12:14:00 BASE 0.22 41 1.39 46 -4.1 100 -4.1 42 0 968.9 NA 0.0000 -SN BR 5000 330 19950 0 0
2019/10/09 12:15:00 BASE 0.09 41 1.39 46 -4.2 100 -4.2 41 0 968.9 NA 0.0000 -SN BR 5000 0 0 0 5220
2019/10/09 12:16:00 BASE 0.00 38 1.39 46 -4.2 100 -4.2 41 0 968.9 NA 0.0000 -SN BR 4600 330 0 0 0
2019/10/09 12:17:00 BASE 0.00 37 1.39 46 -4.2 100 -4.2 41 0 968.9 NA 0.0000 -SN BR 4300 330 0 0 0
2019/10/09 12:18:00 BASE 0.00 36 1.39 46 -4.1 100 -4.1 41 0 968.9 NA 0.0000 -SN BR 4900 330 0 0 0
2019/10/09 12:19:00 BASE 0.00 36 1.34 46 -4.1 100 -4.1 40 0 969.0 NA 0.0000 -SN BR 6000 330 0 0 0
2019/10/09 12:20:00 BASE 0.00 38 1.29 38 -4.1 100 -4.1 40 0 969.0 NA 0.0000 -SN BR 8000 330 0 0 0
2019/10/09 12:21:00 BASE 0.00 44 1.18 38 -4.1 100 -4.1 40 0 969.0 NA 0.0000 -SN BR 4800 330 0 0 0
2019/10/09 12:22:00 BASE 0.00 54 1.08 39 -4.1 100 -4.1 40 0 969.0 NA 0.0000 -SN BR 4900 330 0 0 0
2019/10/09 12:23:00 BASE 0.00 67 1.08 39 -4.1 100 -4.1 40 0 969.0 NA 0.0000 -SN BR 5000 330 0 0 0
2019/10/09 12:24:00 BASE 0.04 77 1.03 80 -4.1 100 -4.1 41 0 969.0 NA 0.0000 -SN BR 7000 330 23360 0 0
2019/10/09 12:25:00 BASE 0.04 80 1.03 80 -4.1 100 -4.1 41 0 969.0 NA 0.0000 -SN BR 9999 330 0 0 0
2019/10/09 12:26:00 BASE 0.00 80 1.03 80 -4.1 100 -4.1 42 0 968.9 NA 0.0000 -SN BR 9999 330 0 0 0
2019/10/09 12:27:00 BASE 0.00 83 1.03 80 -4.0 100 -4.0 43 0 968.9 NA 0.0000 -SN BR 9999 330 0 0 0
2019/10/09 12:28:00 BASE 0.00 91 1.03 80 -4.0 100 -4.0 44 0 968.9 NA 0.0000 -SN BR 9999 330 3940 0 0
2019/10/09 12:29:00 BASE 0.00 96 1.03 80 -4.0 100 -4.0 44 0 969.0 NA 0.0000 -SN BR 9999 300 1870 0 0
2019/10/09 12:30:00 BASE 0.00 96 1.03 80 -4.0 100 -4.0 45 0 968.9 NA 0.0000 -SN BR 9999 330 1410 0 0
2019/10/09 12:31:00 BASE 0.00 96 1.03 80 -4.0 100 -4.0 46 0 968.9 NA 0.0000 -SN BR 9000 330 3900 0 0
2019/10/09 12:32:00 BASE 0.00 96 1.03 80 -4.0 100 -4.0 47 0 969.0 NA 0.0000 -SN BR 8000 330 3810 0 0
2019/10/09 12:33:00 BASE 0.00 96 1.03 80 -4.0 100 -4.0 47 0 969.0 NA 0.0000 -SN BR 9999 330 3710 0 0
2019/10/09 12:34:00 BASE 0.00 96 M M -4.0 100 -4.0 48 0 969.0 NA 0.0000 -SN BR 9000 300 3670 0 0
2019/10/09 12:35:00 BASE 0.00 96 M M -4.0 100 -4.0 49 0 969.0 NA 0.0000 -SN BR 9999 330 3610 0 0
2019/10/09 12:36:00 BASE 0.00 97 M M -4.0 100 -4.0 50 0 969.0 NA 0.0000 -SN BR 9000 300 3640 0 0
2019/10/09 12:37:00 BASE 0.00 99 M M -4.0 100 -4.0 52 0 969.0 NA 0.0000 -SN BR 9000 330 2820 0 0
2019/10/09 12:38:00 BASE 0.00 100 M M -4.0 100 -4.0 53 0 969.0 NA 0.0000 -SN BR 9000 330 1740 0 0
2019/10/09 12:39:00 BASE 0.00 100 M M -4.0 100 -4.0 54 0 969.0 NA 0.0000 -SN BR 9999 330 2100 0 0
2019/10/09 12:40:00 BASE 0.04 101 1.03 102 -4.0 100 -4.0 55 0 969.0 NA 0.0000 -SN BR 9999 330 1710 0 0
2019/10/09 12:41:00 BASE 0.09 102 1.03 102 -4.0 100 -4.0 56 0 969.0 NA 0.0000 -SN BR 9999 330 1740 0 0
2019/10/09 12:42:00 BASE 0.04 101 1.03 102 -4.0 100 -4.0 57 0 969.0 NA 0.0000 -SN BR 9999 330 1900 0 0
2019/10/09 12:43:00 BASE 0.05 99 1.08 101 -4.0 100 -4.0 57 0 969.0 NA 0.0000 -SN BR 9999 330 1940 0 0
2019/10/09 12:44:00 BASE 0.31 98 1.44 98 -4.0 100 -4.0 58 0 969.0 NA 0.0000 -SN 9999 330 1800 0 0
2019/10/09 12:45:00 BASE 1.00 99 1.59 101 -4.0 100 -4.0 59 0 969.0 NA 0.0000 -SN 9999 330 1840 0 0
2019/10/09 12:46:00 BASE 1.58 99 1.85 92 -4.0 100 -4.0 59 0 969.0 NA 0.0000 9999 330 1800 0 0
2019/10/09 12:47:00 BASE 1.72 100 1.95 104 -4.0 100 -4.0 60 0 969.0 NA 0.0000 9999 330 1740 0 0
2019/10/09 12:48:00 BASE 1.71 102 1.95 104 -4.0 100 -4.0 61 0 969.0 NA 0.0000 9999 330 1670 0 0
2019/10/09 12:49:00 BASE 1.72 103 1.95 100 -4.0 100 -4.0 61 0 969.0 NA 0.0000 9999 330 2170 0 0
2019/10/09 12:50:00 BASE 1.82 102 1.95 100 -4.0 100 -4.1 61 0 969.0 NA 0.0000 9999 330 1610 0 0
2019/10/09 12:51:00 BASE 1.97 101 2.31 104 -4.1 100 -4.1 61 0 969.0 NA 0.0000 BR 9999 330 2200 0 0
2019/10/09 12:52:00 BASE 2.15 101 2.42 100 -4.1 100 -4.1 61 0 969.0 NA 0.0000 BR 9000 330 1870 0 0
2019/10/09 12:53:00 BASE 2.17 98 2.42 100 -4.1 100 -4.1 61 0 969.0 NA 0.0000 BR 9000 330 2230 0 0
2019/10/09 12:54:00 BASE 2.19 97 2.42 98 -4.0 100 -4.0 62 0 969.0 NA 0.0000 BR 9000 330 1740 0 0
2019/10/09 12:55:00 BASE 2.39 101 2.68 110 -4.0 100 -4.0 61 0 969.0 NA 0.0000 BR 9000 360 2170 0 0
2019/10/09 12:56:00 BASE 2.45 109 2.88 110 -4.0 100 -4.0 61 0 969.0 NA 0.0000 BR 9000 390 2330 0 0
2019/10/09 12:57:00 BASE 2.39 113 2.88 110 -4.0 100 -4.0 61 0 969.0 NA 0.0000 BR 9000 360 2400 0 0
2019/10/09 12:58:00 BASE 2.44 110 2.88 110 -4.0 100 -4.0 61 0 969.0 NA 0.0000 BR 9000 360 2200 0 0
2019/10/09 12:59:00 BASE 2.55 108 2.88 110 -4.0 100 -4.0 61 0 969.0 NA 0.0000 BR 9000 360 0 0 0
2019/10/09 13:00:00 BASE 2.63 106 2.88 102 -4.0 100 -4.0 61 0 969.0 NA 0.0000 BR 9000 390 2460 0 0
2019/10/09 13:01:00 BASE 2.79 104 2.98 105 -4.0 100 -4.0 61 0 969.0 NA 0.0000 BR 9000 360 0 0 0
2019/10/09 13:02:00 BASE 3.01 105 3.19 107 -4.0 100 -4.0 61 0 969.0 NA 0.0000 BR 9000 360 0 0 0
2019/10/09 13:03:00 BASE 3.14 108 3.24 109 -4.0 100 -4.0 62 0 969.1 NA 0.0000 BR 9000 330 0 0 0
2019/10/09 13:04:00 BASE 3.14 108 3.24 109 -4.0 100 -4.0 62 0 969.1 NA 0.0000 BR 9000 330 1970 0 0
2019/10/09 13:05:00 BASE 3.07 106 3.24 109 -4.1 100 -4.1 62 0 969.1 NA 0.0000 BR 9000 330 3020 0 0
2019/10/09 13:06:00 BASE 2.99 104 3.24 109 -4.1 100 -4.1 63 0 969.1 NA 0.0000 BR 8000 330 0 0 0
2019/10/09 13:07:00 BASE 3.03 103 3.24 109 -4.1 100 -4.1 63 0 969.1 NA 0.0000 BR 8000 330 0 0 0
2019/10/09 13:08:00 BASE 3.16 102 3.29 101 -4.1 100 -4.1 63 0 969.1 NA 0.0000 BR 8000 330 0 0 0
2019/10/09 13:09:00 BASE 3.23 101 3.34 102 -4.1 100 -4.1 63 0 969.1 NA 0.0000 BR 8000 330 0 0 0
2019/10/09 13:10:00 BASE 3.28 103 3.34 104 -4.0 100 -4.0 63 0 969.1 NA 0.0000 BR 8000 330 0 0 0
2019/10/09 13:11:00 BASE 3.27 103 3.34 105 -4.0 100 -4.0 63 0 969.1 NA 0.0000 BR 8000 330 0 0 0
2019/10/09 13:12:00 BASE 3.19 103 3.34 105 -4.0 100 -4.0 63 0 969.1 NA 0.0000 BR 8000 330 0 0 0
2019/10/09 13:13:00 BASE 3.07 102 3.34 105 -4.0 100 -4.0 63 0 969.1 NA 0.0000 BR 8000 330 0 0 0
2019/10/09 13:14:00 BASE 2.94 100 3.34 105 -4.0 100 -4.0 64 0 969.1 NA 0.0000 BR 8000 330 0 0 0
2019/10/09 13:15:00 BASE 2.89 96 3.34 105 -4.0 100 -4.0 65 0 969.1 NA 0.2540 BR 8000 330 0 0 0
2019/10/09 13:16:00 BASE 2.88 95 3.34 105 -4.0 100 -4.0 65 0 969.2 NA 0.0000 BR 8000 360 0 0 0
2019/10/09 13:17:00 BASE 2.86 96 3.34 105 -4.0 100 -4.0 65 0 969.2 NA 0.0000 BR 8000 390 0 0 0
2019/10/09 13:18:00 BASE 2.80 97 3.34 105 -4.0 100 -4.0 66 0 969.2 NA 0.0000 BR 7000 360 0 0 0
2019/10/09 13:19:00 BASE 2.73 98 3.34 105 -3.9 100 -3.9 66 0 969.2 NA 0.0000 BR 7000 390 0 0 0
2019/10/09 13:20:00 BASE 2.68 98 3.34 105 -3.9 100 -3.9 66 0 969.2 NA 0.0000 BR 7000 390 0 0 0
2019/10/09 13:21:00 BASE 2.62 98 3.19 103 -3.9 100 -3.9 66 0 969.2 NA 0.0000 BR 7000 0 0 0 4560
2019/10/09 13:22:00 BASE 2.54 98 3.09 102 -3.9 100 -3.9 66 0 969.2 NA 0.0000 BR 7000 0 0 0 4230
2019/10/09 13:23:00 BASE 2.42 98 2.98 95 -3.9 100 -3.9 66 0 969.2 NA 0.0000 BR 7000 980 0 0 0
2019/10/09 13:24:00 BASE 2.30 98 2.98 95 -3.9 100 -3.9 66 0 969.2 NA 0.2540 BR 7000 0 0 0 4040
2019/10/09 13:25:00 BASE 2.21 99 2.93 96 -3.9 100 -3.9 65 0 969.2 NA 0.0000 UP BR 8000 0 0 0 4230
2019/10/09 13:26:00 BASE 2.10 100 2.93 96 -3.9 100 -3.9 65 0 969.2 NA 0.0000 UP BR 9000 0 0 0 4000
2019/10/09 13:27:00 BASE 1.76 102 2.78 98 -3.9 100 -3.9 65 0 969.2 NA 0.0000 UP BR 9000 0 0 0 4890
2019/10/09 13:28:00 BASE 1.24 105 2.78 98 -3.8 100 -3.8 65 0 969.2 NA 0.0000 UP BR 8000 0 0 0 3770
2019/10/09 13:29:00 BASE 0.88 106 2.68 98 -3.8 100 -3.8 65 0 969.2 NA 0.0000 UP BR 7000 0 0 0 3970
2019/10/09 13:30:00 BASE 0.47 106 2.62 98 -3.9 100 -3.9 65 0 969.2 NA 0.0000 UP BR 5000 0 0 0 4530
2019/10/09 13:31:00 BASE 0.09 104 2.62 98 -3.9 100 -3.9 65 0 969.2 NA 0.0000 -SN BR 3500 0 0 0 4690
2019/10/09 13:32:00 BASE 0.00 21 2.42 98 -3.8 100 -3.8 65 0 969.2 NA 0.2540 -SN BR 3200 0 0 0 4860
2019/10/09 13:33:00 BASE 0.00 244 2.37 98 -3.8 100 -3.8 65 0 969.2 NA 0.0000 -SN BR 4400 0 0 0 4950
2019/10/09 13:34:00 BASE 0.00 151 2.21 102 -3.8 100 -3.8 64 0 969.2 NA 0.0000 -SN BR 9999 0 0 0 4230
2019/10/09 13:35:00 BASE 0.00 147 2.16 100 -3.8 100 -3.8 64 0 969.2 NA 0.0000 -SN BR 9999 0 0 0 5090
2019/10/09 13:36:00 BASE 0.00 132 1.95 95 -3.8 100 -3.8 64 0 969.2 NA 0.0000 -SN BR 9999 0 0 0 5090
2019/10/09 13:37:00 BASE 0.00 114 1.34 114 -3.8 100 -3.8 64 0 969.2 NA 0.0000 -SN BR 9999 0 0 0 4920
2019/10/09 13:38:01 BASE 0.00 76 1.29 110 -3.8 100 -3.8 63 0 969.3 NA 0.0000 -SN BR 9999 0 0 0 4860
2019/10/09 13:39:00 BASE 0.00 51 1.13 99 -3.8 100 -3.8 63 0 969.3 NA 0.0000 -SN BR 9999 0 0 0 4660
2019/10/09 13:40:00 BASE 0.00 63 M M -3.9 100 -3.9 64 0 969.3 NA 0.0000 -SN BR 9999 0 0 0 5280
2019/10/09 13:41:00 BASE 0.00 52 M M -3.9 100 -3.9 64 0 969.3 NA 0.0000 -SN BR 9999 0 0 0 4100
2019/10/09 13:42:00 BASE 0.00 39 M M -3.9 100 -3.9 64 0 969.3 NA 0.0000 -SN 9999 0 0 0 3670
2019/10/09 13:43:00 BASE 0.00 64 M M -4.0 100 -4.0 65 0 969.3 NA 0.0000 -SN 9999 0 0 0 3410
2019/10/09 13:44:00 BASE 0.74 88 2.16 93 -4.0 100 -4.0 65 0 969.3 NA 0.0000 -SN 9999 0 0 0 2990
2019/10/09 13:45:00 BASE 1.65 89 2.26 91 -4.0 100 -4.0 65 0 969.3 NA 0.0000 -SN 9999 0 0 0 2430
2019/10/09 13:46:00 BASE 1.95 91 2.26 91 -4.0 100 -4.0 66 0 969.3 NA 0.0000 -SN 9999 0 0 0 2760
2019/10/09 13:47:00 BASE 1.97 91 2.26 91 -3.9 100 -3.9 67 0 969.3 NA 0.0000 -SN 8000 0 0 0 2850
2019/10/09 13:48:00 BASE 1.74 90 2.26 91 -3.9 100 -3.9 68 0 969.3 NA 0.0000 -SN 9999 0 0 0 2890
2019/10/09 13:49:00 BASE 1.49 85 2.26 91 -3.8 100 -3.8 71 0 969.3 NA 0.2540 -SN 9999 0 0 0 2170
2019/10/09 13:50:00 BASE 1.46 85 2.26 91 -3.8 100 -3.8 71 0 969.3 NA 0.0000 -SN 9000 0 0 0 2170
2019/10/09 13:51:00 BASE 1.70 85 2.26 91 -3.8 100 -3.8 73 0 969.3 NA 0.0000 -SN 7000 0 0 0 2100
2019/10/09 13:52:00 BASE 1.77 79 2.26 91 -3.8 100 -3.8 75 0 969.3 NA 0.0000 -SN BR 6000 0 0 0 2070
2019/10/09 13:53:00 BASE 1.63 76 2.26 91 -3.8 100 -3.8 76 0 969.3 NA 0.0000 -SN BR 5000 0 0 0 2100
2019/10/09 13:54:00 BASE 1.54 73 2.26 91 -3.8 100 -3.8 78 0 969.3 NA 0.0000 -SN BR 5000 0 0 0 2000
2019/10/09 13:55:00 BASE 1.40 68 2.21 91 -3.8 100 -3.8 79 0 969.3 NA 0.0000 -SN BR 4600 0 0 0 2790
2019/10/09 13:56:00 BASE 0.99 70 2.06 85 -3.8 100 -3.8 79 0 969.3 NA 0.0000 -SN BR 5000 0 0 0 3540
2019/10/09 13:57:00 BASE 1.06 76 2.06 85 -3.8 100 -3.8 81 0 969.3 NA 0.0000 -SN BR 4600 0 0 0 3510
2019/10/09 13:58:00 BASE 1.53 86 2.06 85 -3.8 100 -3.8 83 0 969.3 NA 0.0000 -SN BR 5000 0 0 0 3480
2019/10/09 13:59:00 BASE 1.45 95 2.06 85 -3.8 100 -3.8 84 0 969.3 NA 0.0000 -SN BR 9999 0 0 0 2400
2019/10/09 14:00:00 BASE 1.23 99 2.06 85 -3.8 100 -3.8 85 0 969.3 NA 0.0000 -SN BR 9999 0 0 0 3710
2019/10/09 14:01:00 BASE 1.22 100 1.95 88 -3.7 100 -3.7 87 0 969.4 NA 0.0000 -SN BR 9999 0 0 0 2560
2019/10/09 14:02:00 BASE 1.21 98 1.95 88 -3.7 100 -3.7 88 0 969.4 NA 0.0000 -SN BR 9999 0 0 0 3840
2019/10/09 14:03:00 BASE 1.23 97 1.95 88 -3.7 100 -3.7 89 0 969.4 NA 0.0000 -SN BR 9999 1120 0 0 0
2019/10/09 14:04:00 BASE 1.18 108 1.95 88 -3.7 100 -3.7 91 0 969.4 NA 0.0000 -SN BR 9000 0 0 0 4170
2019/10/09 14:05:00 BASE 1.23 125 1.95 88 -3.7 100 -3.7 94 0 969.4 NA 0.0000 -SN BR 4800 360 0 0 0
2019/10/09 14:06:00 BASE 1.10 126 1.95 88 -3.7 100 -3.7 96 0 969.5 NA 0.0000 -SN BR 4800 360 0 0 0
2019/10/09 14:07:00 BASE 0.74 128 1.85 93 -3.7 100 -3.7 99 0 969.5 NA 0.0000 -SN BR 4600 360 0 0 0
2019/10/09 14:08:00 BASE 0.66 132 1.75 134 -3.6 100 -3.6 101 0 969.5 NA 0.0000 -SN BR 4600 390 0 0 0
2019/10/09 14:09:00 BASE 0.95 143 1.75 134 -3.6 100 -3.6 104 0 969.5 NA 0.0000 -SN BR 4700 390 0 0 0
2019/10/09 14:10:00 BASE 1.29 157 1.75 134 -3.6 100 -3.6 105 0 969.5 NA 0.0000 -SN BR 4200 360 2560 0 0
2019/10/09 14:11:00 BASE 1.43 162 1.75 134 -3.6 100 -3.6 106 0 969.5 NA 0.0000 -SN BR 5000 360 2460 0 0
2019/10/09 14:12:00 BASE 1.49 168 1.75 134 -3.6 100 -3.6 110 0 969.5 NA 0.0000 -SN BR 4800 360 2530 0 0
2019/10/09 14:13:00 BASE 1.48 170 1.75 134 -3.6 100 -3.6 108 0 969.5 NA 0.0000 -SN BR 4100 0 0 0 4170
2019/10/09 14:14:00 BASE 1.46 171 1.75 134 -3.7 100 -3.7 110 0 969.5 NA 0.0000 -SN BR 3800 0 0 0 4100
2019/10/09 14:15:00 BASE 1.51 168 1.85 159 -3.7 100 -3.7 107 0 969.5 NA 0.0000 -SN BR 4300 0 0 0 4040
2019/10/09 14:16:00 BASE 1.51 164 1.85 159 -3.7 100 -3.7 108 0 969.5 NA 0.0000 -SN BR 3500 0 0 0 4100
2019/10/09 14:17:00 BASE 1.39 162 1.85 159 -3.7 100 -3.7 106 0 969.5 NA 0.0000 -SN BR 3700 360 0 0 0
2019/10/09 14:18:00 BASE 1.37 162 1.85 159 -3.8 100 -3.8 106 0 969.5 NA 0.0000 -SN BR 9999 360 2460 0 0
2019/10/09 14:19:00 BASE 1.45 162 1.85 159 -3.8 100 -3.8 106 0 969.5 NA 0.0000 -SN BR 9999 360 0 0 0
2019/10/09 14:20:00 BASE 1.39 161 1.85 159 -3.8 100 -3.8 110 0 969.5 NA 0.0000 -SN BR 9999 360 0 0 0
2019/10/09 14:21:00 BASE 1.29 166 1.85 159 -3.8 100 -3.8 111 0 969.5 NA 0.0000 -SN BR 9999 360 0 0 0
2019/10/09 14:22:00 BASE 1.12 169 1.85 159 -3.8 100 -3.8 111 0 969.5 NA 0.0000 -SN BR 9999 360 0 0 0
2019/10/09 14:23:00 BASE 1.18 168 1.85 159 -3.8 100 -3.8 113 0 969.5 NA 0.0000 -SN BR 6000 360 0 0 0
2019/10/09 14:24:00 BASE 1.48 161 1.85 159 -3.8 100 -3.8 117 0 969.5 NA 0.0000 -SN BR 9000 390 0 0 0
2019/10/09 14:25:00 BASE 1.49 153 1.75 159 -3.8 100 -3.8 118 0 969.5 NA 0.0000 -SN BR 9999 390 0 0 0
2019/10/09 14:26:00 BASE 1.48 138 2.06 109 -3.8 100 -3.8 119 0 969.5 NA 0.2540 -SN BR 9999 390 0 0 0
2019/10/09 14:27:00 BASE 1.68 117 2.11 109 -3.7 100 -3.7 122 0 969.5 NA 0.0000 -SN 9000 360 0 0 0
2019/10/09 14:28:00 BASE 1.95 108 2.31 109 -3.7 100 -3.7 125 0 969.5 NA 0.0000 -SN 9999 360 0 0 0
2019/10/09 14:29:00 BASE 2.11 106 2.31 101 -3.6 100 -3.6 127 0 969.6 NA 0.0000 -SN 9999 360 0 0 0
2019/10/09 14:30:00 BASE 2.13 108 2.37 109 -3.6 100 -3.6 128 0 969.6 NA 0.0000 -SN 9999 360 2560 0 0
2019/10/09 14:31:00 BASE 2.14 109 2.47 104 -3.6 100 -3.6 126 0 969.6 NA 0.0000 -SN 9999 360 0 0 0
2019/10/09 14:32:00 BASE 2.27 107 2.52 107 -3.5 100 -3.5 125 0 969.5 NA 0.0000 -SN 9999 360 0 0 0
2019/10/09 14:33:00 BASE 2.43 108 2.62 106 -3.5 100 -3.5 124 0 969.5 NA 0.0000 -SN 9999 360 0 0 0
2019/10/09 14:34:00 BASE 2.68 106 2.98 101 -3.5 100 -3.5 122 0 969.5 NA 0.0000 -SN 9999 360 0 0 0
2019/10/09 14:35:00 BASE 2.73 103 2.98 101 -3.5 100 -3.5 122 0 969.5 NA 0.0000 -SN 9999 360 5740 0 0
2019/10/09 14:36:00 BASE 2.81 103 3.24 103 -3.5 100 -3.5 121 0 969.5 NA 0.0000 -SN 9999 360 4130 0 0
2019/10/09 14:37:00 BASE 3.28 100 3.76 100 -3.5 100 -3.5 122 0 969.5 NA 0.0000 -SN 9999 390 4100 0 0
2019/10/09 14:38:00 BASE 3.43 100 3.76 100 -3.5 100 -3.5 121 0 969.5 NA 0.0000 -SN 9999 390 5840 0 0
2019/10/09 14:39:00 BASE 3.40 101 3.81 102 -3.5 100 -3.5 121 0 969.5 NA 0.0000 -SN 9999 390 5810 0 0
2019/10/09 14:40:00 BASE 3.56 103 3.86 105 -3.5 100 -3.5 121 0 969.5 NA 0.0000 -SN 9999 430 5840 0 0
2019/10/09 14:41:00 BASE 3.68 104 3.91 107 -3.5 100 -3.5 119 0 969.5 NA 0.0000 -SN 9999 430 5910 0 0
2019/10/09 14:42:00 BASE 3.85 104 4.32 107 -3.5 100 -3.5 117 0 969.5 NA 0.0000 -SN 9999 5770 0 0 0
2019/10/09 14:43:00 BASE 3.91 104 4.32 107 -3.5 100 -3.5 116 0 969.5 NA 0.0000 -SN 9999 3150 0 0 0
2019/10/09 14:44:00 BASE 3.89 104 4.32 107 -3.5 100 -3.5 115 0 969.5 NA 0.0000 -SN 9999 3220 4790 0 0
2019/10/09 14:45:00 BASE 3.87 103 4.32 107 -3.5 100 -3.5 115 0 969.5 NA 0.0000 -SN 9999 3310 0 0 0
2019/10/09 14:46:00 BASE 3.83 102 4.32 107 -3.5 100 -3.5 114 0 969.5 NA 0.0000 -SN 9999 3350 5540 0 0
2019/10/09 14:47:00 BASE 3.98 103 4.48 108 -3.5 100 -3.5 114 0 969.5 NA 0.0000 -SN 9999 3380 5480 0 0
2019/10/09 14:48:00 BASE 4.12 105 4.48 108 -3.5 100 -3.5 113 0 969.5 NA 0.0000 -SN 9999 3380 5640 0 0
2019/10/09 14:49:00 BASE 4.06 106 4.48 108 -3.6 100 -3.6 113 0 969.5 NA 0.0000 -SN 9999 3350 4170 0 0
2019/10/09 14:50:00 BASE 4.18 102 4.48 102 -3.6 100 -3.6 114 0 969.5 NA 0.0000 -SN 9999 3350 5250 0 0
2019/10/09 14:51:00 BASE 4.31 96 4.48 102 -3.6 100 -3.6 115 0 969.5 NA 0.0000 -SN 9999 3250 0 0 0
2019/10/09 14:52:00 BASE 4.33 94 4.48 102 -3.6 100 -3.6 116 0 969.5 NA 0.0000 -SN 9999 3250 5810 0 0
2019/10/09 14:53:00 BASE 4.34 96 4.48 102 -3.6 100 -3.6 117 0 969.5 NA 0.0000 -SN 9999 3380 5090 0 0
2019/10/09 14:54:00 BASE 4.17 99 4.48 102 -3.6 100 -3.6 117 0 969.5 NA 0.0000 -SN 9999 3540 5050 0 0
2019/10/09 14:55:00 BASE 3.82 102 4.48 102 -3.6 100 -3.6 117 0 969.5 NA 0.0000 -SN 9999 3480 0 0 0
2019/10/09 14:56:00 BASE 3.82 103 4.48 102 -3.6 100 -3.6 116 0 969.5 NA 0.0000 -SN 9999 5810 0 0 0
2019/10/09 14:57:00 BASE 4.02 102 4.48 102 -3.6 100 -3.6 117 0 969.5 NA 0.0000 -SN 9999 3740 0 0 0
2019/10/09 14:58:00 BASE 4.09 100 4.48 102 -3.6 100 -3.6 117 0 969.5 NA 0.0000 -SN 9999 3810 0 0 0
2019/10/09 14:59:00 BASE 4.06 97 4.48 102 -3.6 100 -3.6 117 0 969.5 NA 0.0000 -SN 9999 3280 4660 0 0
2019/10/09 15:00:00 BASE 3.93 96 4.42 96 -3.6 100 -3.6 118 0 969.5 NA 0.0000 -SN 9999 3310 4170 0 0
2019/10/09 15:01:00 BASE 3.84 96 4.42 96 -3.6 100 -3.6 119 0 969.5 NA 0.0000 -SN 9999 3510 4760 0 0
2019/10/09 15:02:00 BASE 3.76 95 4.37 99 -3.6 100 -3.6 120 0 969.5 NA 0.0000 9999 2950 4720 0 0
2019/10/09 15:03:00 BASE 3.77 94 4.37 99 -3.6 100 -3.6 121 0 969.5 NA 0.0000 9999 2920 4790 0 0
2019/10/09 15:04:00 BASE 3.88 95 4.32 97 -3.6 100 -3.6 122 0 969.5 NA 0.0000 9999 4720 0 0 0
2019/10/09 15:05:00 BASE 3.96 95 4.32 96 -3.6 100 -3.6 124 0 969.5 NA 0.0000 9999 4630 0 0 0
2019/10/09 15:06:00 BASE 4.19 96 4.68 99 -3.6 100 -3.6 125 0 969.5 NA 0.0000 9999 4860 0 0 0
2019/10/09 15:07:01 BASE 4.58 98 4.78 99 -3.6 100 -3.6 126 0 969.5 NA 0.0000 9999 3080 4760 0 0
2019/10/09 15:08:01 BASE 4.74 98 4.84 97 -3.5 100 -3.5 126 0 969.5 NA 0.0000 9999 3050 4720 0 0
2019/10/09 15:09:01 BASE 4.63 98 4.84 97 -3.5 100 -3.5 127 0 969.5 NA 0.0000 9999 2950 4720 0 0
2019/10/09 15:10:01 BASE 4.38 99 4.84 97 -3.5 100 -3.5 127 0 969.5 NA 0.0000 9999 3020 4530 0 0
2019/10/09 15:11:01 BASE 4.12 100 4.84 97 -3.5 100 -3.5 128 0 969.5 NA 0.0000 9999 3180 4720 0 0
2019/10/09 15:12:00 BASE 3.88 99 4.84 97 -3.5 100 -3.5 128 0 969.5 NA 0.0000 9999 3220 4820 0 0
2019/10/09 15:13:00 BASE 3.68 99 4.84 97 -3.5 100 -3.5 128 0 969.5 NA 0.0000 9999 3310 4820 0 0
2019/10/09 15:14:00 BASE 3.60 100 4.84 97 -3.5 100 -3.5 128 0 969.5 NA 0.0000 9999 3510 4890 0 0
2019/10/09 15:15:00 BASE 3.69 101 4.84 97 -3.4 100 -3.4 128 0 969.4 NA 0.0000 9999 4890 0 0 0
2019/10/09 15:16:01 BASE 3.54 101 4.84 97 -3.4 100 -3.4 129 0 969.5 NA 0.0000 9999 5350 0 0 0
2019/10/09 15:17:01 BASE 3.01 104 4.84 97 -3.4 100 -3.4 129 0 969.5 NA 0.0000 9999 5120 0 0 0
2019/10/09 15:18:01 BASE 2.44 112 4.68 98 -3.4 100 -3.4 130 0 969.5 NA 0.0000 9999 4760 0 0 0
2019/10/09 15:19:01 BASE 2.23 121 4.32 101 -3.4 100 -3.4 130 0 969.5 NA 0.0000 9999 4760 0 0 0
2019/10/09 15:20:00 BASE 2.03 129 4.12 100 -3.3 100 -3.3 130 0 969.5 NA 0.0000 9999 4720 0 0 0
2019/10/09 15:21:00 BASE 1.67 129 3.91 101 -3.3 100 -3.3 129 0 969.5 NA 0.0000 9999 4820 0 0 0
2019/10/09 15:22:01 BASE 1.41 125 3.91 101 -3.3 100 -3.3 129 0 969.5 NA 0.0000 9999 0 0 0 5610
2019/10/09 15:23:01 BASE 1.54 126 3.91 101 -3.3 100 -3.3 130 0 969.5 NA 0.0000 9999 2690 5480 0 0
2019/10/09 15:24:01 BASE 1.93 131 3.91 101 -3.3 100 -3.3 130 0 969.5 NA 0.0000 9999 5480 0 0 0
2019/10/09 15:25:01 BASE 1.99 135 3.45 99 -3.3 100 -3.3 131 0 969.5 NA 0.0000 9999 0 0 0 3120
2019/10/09 15:26:01 BASE 1.80 127 3.19 101 -3.3 100 -3.3 131 0 969.5 NA 0.0000 9999 3120 4720 0 0
2019/10/09 15:27:01 BASE 1.71 118 2.98 113 -3.3 100 -3.3 131 0 969.5 NA 0.0000 9999 0 0 0 4920
2019/10/09 15:28:01 BASE 2.08 109 2.88 107 -3.3 100 -3.3 132 0 969.5 NA 0.0000 9999 3220 5580 0 0
2019/10/09 15:29:01 BASE 2.59 100 3.40 106 -3.3 100 -3.3 132 0 969.5 NA 0.0000 9999 5410 20180 0 0
2019/10/09 15:30:01 BASE 2.47 104 3.40 106 -3.3 100 -3.3 133 0 969.5 NA 0.2540 9999 0 0 0 3610
2019/10/09 15:31:01 BASE 1.53 95 3.40 106 -3.2 100 -3.3 133 0 969.5 NA 0.0000 9999 5120 0 0 0
2019/10/09 15:32:01 BASE 0.43 56 3.40 106 -3.2 99 -3.3 134 0 969.5 NA 0.0000 9999 0 0 0 2720
2019/10/09 15:33:01 BASE 0.00 58 3.40 106 -3.2 99 -3.3 135 0 969.6 NA 0.0000 9999 2620 0 0 0
2019/10/09 15:34:01 BASE 0.18 135 3.40 106 -3.3 99 -3.4 136 0 969.6 NA 0.0000 9999 2590 0 0 0
2019/10/09 15:35:01 BASE 0.71 237 3.40 106 -3.3 99 -3.4 137 0 969.6 NA 0.0000 9999 5350 0 0 0
2019/10/09 15:36:01 BASE 0.97 252 3.40 106 -3.3 99 -3.5 138 0 969.5 NA 0.0000 9999 5050 0 0 0
2019/10/09 15:37:01 BASE 0.87 241 3.40 106 -3.4 99 -3.5 140 0 969.5 NA 0.0000 9999 2690 4300 0 0
2019/10/09 15:38:01 BASE 0.43 232 3.40 106 -3.4 99 -3.6 141 0 969.6 NA 0.0000 9999 4300 0 0 0
2019/10/09 15:39:01 BASE 0.76 234 2.42 109 -3.5 99 -3.6 141 0 969.6 NA 0.0000 9999 2820 4400 0 0
2019/10/09 15:40:01 BASE 1.10 229 1.85 225 -3.5 100 -3.6 141 0 969.6 NA 0.0000 9999 4360 0 0 0
2019/10/09 15:41:01 BASE 0.74 215 1.85 225 -3.5 100 -3.5 140 0 969.6 NA 0.0000 9999 4360 0 0 0
2019/10/09 15:42:01 BASE 0.75 202 1.85 225 -3.5 100 -3.5 139 0 969.6 NA 0.0000 9999 4270 0 0 0
2019/10/09 15:43:01 BASE 0.55 203 1.85 225 -3.5 100 -3.5 138 0 969.6 NA 0.0000 9999 4270 0 0 0
2019/10/09 15:44:01 BASE 0.45 186 1.85 225 -3.4 100 -3.4 138 0 969.6 NA 0.0000 9999 2890 4300 0 0
2019/10/09 15:45:01 BASE 0.70 165 1.85 225 -3.4 100 -3.4 138 0 969.6 NA 0.0000 9999 4100 0 0 0
2019/10/09 15:46:01 BASE 0.98 182 1.95 199 -3.4 100 -3.4 138 0 969.6 NA 0.0000 9999 4270 0 0 0
2019/10/09 15:47:01 BASE 1.46 200 2.06 198 -3.4 100 -3.4 139 0 969.6 NA 0.0000 9999 4230 0 0 0
2019/10/09 15:48:01 BASE 2.03 198 2.78 197 -3.4 100 -3.4 139 0 969.6 NA 0.0000 9999 2720 5380 0 0
2019/10/09 15:49:01 BASE 2.20 195 2.88 177 -3.4 100 -3.4 138 0 969.6 NA 0.0000 9999 5220 0 0 0
2019/10/09 15:50:01 BASE 1.84 211 2.88 177 -3.5 100 -3.5 138 0 969.6 NA 0.0000 9999 4270 5280 0 0
2019/10/09 15:51:01 BASE 1.15 213 2.88 177 -3.5 100 -3.5 137 0 969.6 NA 0.0000 9999 5350 0 0 0
2019/10/09 15:52:01 BASE 1.33 179 3.09 155 -3.5 100 -3.5 136 0 969.6 NA 0.0000 9999 5320 0 0 0
2019/10/09 15:53:01 BASE 2.57 149 4.48 134 -3.5 100 -3.5 137 0 969.6 NA 0.0000 9999 5150 0 0 0
2019/10/09 15:54:01 BASE 3.80 140 4.68 137 -3.5 100 -3.5 138 0 969.5 NA 0.0000 9999 5150 0 0 0
2019/10/09 15:55:01 BASE 4.77 142 5.92 145 -3.4 100 -3.4 139 0 969.5 NA 0.0000 9999 5150 0 0 0
2019/10/09 15:56:01 BASE 5.11 141 5.92 145 -3.4 100 -3.4 139 0 969.5 NA 0.0000 9999 5120 0 0 0
2019/10/09 15:57:01 BASE 4.97 135 5.92 145 -3.4 100 -3.4 139 0 969.6 NA 0.0000 9999 4860 0 0 0
2019/10/09 15:58:01 BASE 4.86 129 5.92 145 -3.4 100 -3.4 139 0 969.6 NA 0.0000 9999 5020 0 0 0
2019/10/09 15:59:01 BASE 4.46 133 5.92 145 -3.4 100 -3.4 139 0 969.5 NA 0.0000 9999 5050 21200 0 0
2019/10/09 16:00:01 BASE 4.79 139 5.92 145 -3.4 100 -3.4 138 0 969.5 NA 0.0000 9999 4760 5250 0 0
2019/10/09 16:01:01 BASE 5.35 139 5.92 145 -3.4 100 -3.4 139 0 969.5 NA 0.0000 9999 4690 5220 0 0
2019/10/09 16:02:01 BASE 4.85 143 5.92 145 -3.4 100 -3.4 139 0 969.5 NA 0.0000 9999 4760 5250 0 0
2019/10/09 16:03:01 BASE 4.39 151 5.92 145 -3.4 100 -3.4 139 0 969.6 NA 0.0000 9999 4860 0 0 0
2019/10/09 16:04:01 BASE 4.47 158 5.92 145 -3.4 100 -3.4 139 0 969.5 NA 0.0000 9999 5090 0 0 0
2019/10/09 16:05:01 BASE 5.13 159 6.02 149 -3.4 100 -3.4 139 0 969.5 NA 0.0000 9999 5020 0 0 0
2019/10/09 16:06:01 BASE 5.73 153 6.38 154 -3.4 100 -3.4 139 0 969.5 NA 0.0000 9999 5180 0 0 0
2019/10/09 16:07:01 BASE 6.02 150 6.64 147 -3.4 100 -3.4 139 0 969.5 NA 0.0000 9999 5150 18960 23920 0
2019/10/09 16:08:01 BASE 5.77 150 6.64 147 -3.4 100 -3.4 140 0 969.5 NA 0.0000 9999 5150 0 0 0
2019/10/09 16:09:01 BASE 4.91 152 6.64 147 -3.4 100 -3.4 142 0 969.5 NA 0.0000 9999 5150 0 0 0
2019/10/09 16:10:01 BASE 5.08 147 6.64 146 -3.4 100 -3.4 143 0 969.5 NA 0.0000 9999 5220 0 0 0
2019/10/09 16:11:01 BASE 6.21 142 7.10 142 -3.4 100 -3.4 144 0 969.4 NA 0.0000 9999 5280 0 0 0
2019/10/09 16:12:01 BASE 6.70 146 7.10 142 -3.4 100 -3.4 144 0 969.5 NA 0.0000 9999 5320 0 0 0
2019/10/09 16:13:01 BASE 6.31 150 7.10 142 -3.4 100 -3.4 144 0 969.5 NA 0.0000 9999 5220 0 0 0
2019/10/09 16:14:01 BASE 5.96 151 7.10 142 -3.4 100 -3.4 144 0 969.5 NA 0.0000 9999 5320 0 0 0
2019/10/09 16:15:01 BASE 5.92 149 7.10 142 -3.4 100 -3.4 144 0 969.5 NA 0.0000 9999 5380 0 0 0
2019/10/09 16:16:01 BASE 5.84 148 7.10 142 -3.4 100 -3.4 144 0 969.5 NA 0.0000 9999 5450 0 0 0
2019/10/09 16:17:01 BASE 5.73 147 7.10 142 -3.4 100 -3.4 145 0 969.5 NA 0.0000 9999 5410 0 0 0
2019/10/09 16:18:01 BASE 5.72 148 7.10 142 -3.4 100 -3.4 146 0 969.5 NA 0.0000 9999 5480 0 0 0
2019/10/09 16:19:01 BASE 6.15 151 7.10 142 -3.4 100 -3.4 147 0 969.5 NA 0.0000 9999 5450 0 0 0
2019/10/09 16:20:01 BASE 6.65 153 7.10 142 -3.4 100 -3.4 148 0 969.5 NA 0.0000 9999 5480 0 0 0
2019/10/09 16:21:01 BASE 6.76 154 7.00 146 -3.4 100 -3.4 150 0 969.5 NA 0.0000 9999 5450 0 0 0
2019/10/09 16:22:01 BASE 6.79 151 6.94 154 -3.4 100 -3.4 151 0 969.5 NA 0.0000 9999 5410 0 0 0
2019/10/09 16:23:01 BASE 6.75 148 6.94 146 -3.4 100 -3.4 153 0 969.5 NA 0.0000 9999 5250 0 0 0
2019/10/09 16:24:01 BASE 6.55 146 6.94 146 -3.4 100 -3.4 154 0 969.5 NA 0.0000 9999 5250 0 0 0
2019/10/09 16:25:01 BASE 6.07 147 6.94 146 -3.4 100 -3.4 154 0 969.5 NA 0.0000 9999 5280 0 0 0
2019/10/09 16:26:01 BASE 5.94 146 6.94 146 -3.4 100 -3.4 152 0 969.5 NA 0.0000 9999 2820 5320 0 0
2019/10/09 16:27:01 BASE 6.11 143 6.94 146 -3.4 100 -3.4 151 0 969.5 NA 0.0000 9999 5220 0 0 0
2019/10/09 16:28:01 BASE 6.24 143 6.94 146 -3.4 100 -3.4 151 0 969.5 NA 0.0000 9999 5180 0 0 0
2019/10/09 16:29:01 BASE 6.26 144 6.94 146 -3.4 100 -3.4 153 0 969.5 NA 0.0000 9999 5220 0 0 0
2019/10/09 16:30:01 BASE 6.05 146 6.94 146 -3.4 100 -3.4 154 0 969.5 NA 0.0000 9999 5280 0 0 0
2019/10/09 16:31:01 BASE 6.07 147 6.94 146 -3.4 100 -3.4 154 0 969.5 NA 0.0000 UP 9999 5220 0 0 0
2019/10/09 16:32:01 BASE 6.29 145 6.94 137 -3.4 100 -3.4 155 0 969.5 NA 0.0000 UP 9999 5280 0 0 0
2019/10/09 16:33:01 BASE 6.26 144 6.94 137 -3.4 100 -3.4 157 0 969.5 NA 0.0000 UP 9999 5320 0 0 0
2019/10/09 16:34:01 BASE 6.51 144 7.15 143 -3.3 100 -3.3 158 0 969.5 NA 0.0000 UP 9999 4200 5280 0 0
2019/10/09 16:35:01 BASE 6.61 142 7.15 143 -3.3 100 -3.3 159 0 969.5 NA 0.0000 UP 9999 3120 5220 0 0
2019/10/09 16:36:01 BASE 6.21 141 7.15 143 -3.3 100 -3.3 161 0 969.0 NA 0.0000 UP 9999 5090 0 0 0
2019/10/09 16:37:01 BASE 6.14 139 7.15 143 -3.3 100 -3.3 163 0 969.1 NA 0.0000 UP 9999 2920 5380 0 0
2019/10/09 16:38:01 BASE 6.44 135 7.15 143 -3.3 100 -3.3 167 0 969.1 NA 0.0000 UP 9999 4200 0 0 0
2019/10/09 16:39:01 BASE 6.61 135 7.15 143 -3.3 100 -3.3 169 0 969.5 NA 0.0000 UP 9999 3810 0 0 0
2019/10/09 16:40:01 BASE 6.75 136 7.36 142 -3.3 100 -3.3 171 0 969.3 NA 0.0000 UP 9999 4170 5410 0 0
2019/10/09 16:41:01 BASE 6.93 136 7.36 135 -3.3 100 -3.3 170 0 969.3 NA 0.0000 9999 2790 5450 0 0
2019/10/09 16:42:01 BASE 6.80 135 7.36 135 -3.3 100 -3.3 167 0 969.3 NA 0.0000 9999 4230 0 0 0
2019/10/09 16:43:01 BASE 6.67 134 7.36 135 -3.2 100 -3.2 165 0 969.5 NA 0.0000 9999 2720 4230 0 0
2019/10/09 16:44:01 BASE 6.70 133 7.36 135 -3.2 100 -3.2 163 0 969.4 NA 0.0000 9999 4300 0 0 0
2019/10/09 16:45:01 BASE 6.64 133 7.36 135 -3.2 100 -3.2 162 0 969.4 NA 0.0000 9999 4230 0 0 0
2019/10/09 16:46:01 BASE 6.82 134 7.41 134 -3.2 100 -3.2 162 0 969.5 NA 0.0000 9999 5320 0 0 0
2019/10/09 16:47:01 BASE 6.92 137 7.41 134 -3.2 100 -3.2 161 0 969.5 NA 0.0000 9999 5450 0 0 0
2019/10/09 16:48:01 BASE 7.05 142 7.82 140 -3.2 100 -3.2 158 0 969.4 NA 0.0000 9999 3380 4360 5580 0
2019/10/09 16:49:01 BASE 7.44 140 8.13 136 -3.2 100 -3.2 155 0 969.3 NA 0.0000 9999 3250 4300 0 0
2019/10/09 16:50:01 BASE 7.51 139 8.23 139 -3.2 100 -3.2 151 0 969.4 NA 0.0000 9999 4270 0 0 0
2019/10/09 16:51:01 BASE 7.21 142 8.23 139 -3.2 100 -3.2 148 0 969.3 NA 0.0000 9999 4330 5770 0 0
2019/10/09 16:52:01 BASE 6.86 145 8.23 139 -3.2 100 -3.2 147 0 969.3 NA 0.0000 9999 4430 0 0 0
2019/10/09 16:53:01 BASE 6.89 145 8.23 139 -3.2 100 -3.2 146 0 969.3 NA 0.0000 9999 4460 0 0 0
2019/10/09 16:54:01 BASE 7.27 141 8.23 139 -3.2 100 -3.2 145 0 969.3 NA 0.0000 9999 4400 0 0 0
2019/10/09 16:55:01 BASE 7.60 139 8.23 139 -3.2 100 -3.2 144 0 969.3 NA 0.0000 9999 4560 0 0 0
2019/10/09 16:56:01 BASE 7.23 139 8.23 139 -3.3 100 -3.3 144 0 969.1 NA 0.0000 9999 4430 0 0 0
2019/10/09 16:57:01 BASE 6.97 137 8.23 139 -3.3 100 -3.3 144 0 969.4 NA 0.0000 9999 4530 0 0 0
2019/10/09 16:58:01 BASE 6.80 133 8.23 139 -3.3 100 -3.3 144 0 969.3 NA 0.0000 9999 2660 4460 5770 0
2019/10/09 16:59:01 BASE 6.94 132 8.23 139 -3.3 100 -3.3 145 0 969.4 NA 0.0000 9999 2820 4530 22340 0
2019/10/09 17:00:01 BASE 7.33 136 8.18 138 -3.2 100 -3.2 145 0 969.4 NA 0.0000 9999 4430 0 0 0
2019/10/09 17:01:01 BASE 6.99 146 8.18 138 -3.2 100 -3.2 144 0 969.3 NA 0.0000 9999 4530 0 0 0
2019/10/09 17:02:01 BASE 6.68 155 8.18 138 -3.2 100 -3.2 143 0 969.2 NA 0.0000 9999 4490 0 0 0
2019/10/09 17:03:01 BASE 6.55 158 8.18 138 -3.2 100 -3.2 142 0 969.3 NA 0.0000 9999 4590 0 0 0
2019/10/09 17:04:01 BASE 6.28 158 8.18 138 -3.2 100 -3.2 139 0 969.3 NA 0.0000 9999 4560 0 0 0
2019/10/09 17:05:01 BASE 6.11 154 7.72 134 -3.2 100 -3.2 137 0 969.2 NA 0.0000 9999 4560 0 0 0
2019/10/09 17:06:01 BASE 5.90 148 7.72 134 -3.2 100 -3.2 136 0 969.1 NA 0.0000 9999 4330 0 0 0
2019/10/09 17:07:01 BASE 5.93 145 7.72 134 -3.2 100 -3.2 135 0 969.3 NA 0.0000 9999 3900 0 0 0
2019/10/09 17:08:01 BASE 6.27 148 7.72 134 -3.2 100 -3.2 135 0 969.3 NA 0.0000 9999 4630 0 0 0
2019/10/09 17:09:01 BASE 6.37 155 7.72 134 -3.2 100 -3.2 136 0 969.3 NA 0.0000 9999 4630 0 0 0
2019/10/09 17:10:01 BASE 6.50 162 6.89 167 -3.2 100 -3.2 136 0 969.3 NA 0.0000 9999 4530 0 0 0
2019/10/09 17:11:01 BASE 6.25 163 6.89 167 -3.2 100 -3.2 136 0 969.3 NA 0.0000 9999 4630 20800 22410 0
2019/10/09 17:12:01 BASE 5.81 162 6.89 167 -3.2 100 -3.2 135 0 969.3 NA 0.0000 9999 4760 0 0 0
2019/10/09 17:13:01 BASE 5.74 158 6.89 167 -3.2 100 -3.2 134 0 969.1 NA 0.0000 9999 3250 4820 0 0
2019/10/09 17:14:01 BASE 5.74 154 6.89 167 -3.2 100 -3.2 133 0 969.3 NA 0.0000 9999 4820 22900 0 0
2019/10/09 17:15:01 BASE 5.74 155 6.89 167 -3.1 100 -3.1 133 0 969.4 NA 0.0000 9999 3180 4990 0 0
2019/10/09 17:16:01 BASE 5.86 158 6.89 167 -3.1 100 -3.1 132 0 969.4 NA 0.0000 9999 2720 4690 0 0
2019/10/09 17:17:01 BASE 5.71 165 6.89 167 -3.1 100 -3.1 131 0 969.3 NA 0.0000 9999 4720 0 0 0
2019/10/09 17:18:01 BASE 5.13 176 6.89 167 -3.1 100 -3.1 129 0 969.4 NA 0.0000 9999 4790 0 0 0
2019/10/09 17:19:01 BASE 5.02 184 6.89 167 -3.1 100 -3.1 128 0 969.3 NA 0.0000 9999 4760 0 0 0
2019/10/09 17:20:01 BASE 5.31 183 6.38 154 -3.2 100 -3.2 126 0 968.9 NA 0.0000 9999 3180 4760 0 0
2019/10/09 17:21:01 BASE 4.61 182 6.38 154 -3.2 100 -3.2 126 0 969.5 NA 0.0000 9999 4760 0 0 0
2019/10/09 17:22:00 BASE 3.25 180 6.38 154 -3.2 100 -3.2 126 0 969.4 NA 0.0000 9999 2620 4760 0 0
2019/10/09 17:23:00 BASE 2.79 173 6.38 154 -3.2 100 -3.2 126 0 969.5 NA 0.0000 9999 4720 0 0 0
2019/10/09 17:24:00 BASE 2.92 166 6.38 154 -3.2 100 -3.2 126 0 969.5 NA 0.0000 9999 4720 0 0 0
2019/10/09 17:25:00 BASE 3.11 158 6.38 154 -3.2 100 -3.2 126 0 969.5 NA 0.0000 9999 4760 0 0 0
2019/10/09 17:26:00 BASE 3.49 157 6.12 166 -3.1 100 -3.1 125 0 969.5 NA 0.0000 9999 2760 4920 0 0
2019/10/09 17:27:00 BASE 3.55 165 5.86 175 -3.1 100 -3.1 124 0 969.5 NA 0.0000 9999 2590 4920 0 0
2019/10/09 17:28:00 BASE 3.36 163 5.86 175 -3.1 100 -3.1 124 0 969.5 NA 0.0000 9999 2620 4890 0 0
2019/10/09 17:29:00 BASE 3.37 155 5.86 175 -3.1 100 -3.1 123 0 969.5 NA 0.0000 9999 2620 21290 0 0
2019/10/09 17:30:00 BASE 3.39 147 4.58 187 -3.1 100 -3.1 123 0 969.5 NA 0.0000 9999 2560 5120 0 0
2019/10/09 17:31:00 BASE 3.31 141 4.32 162 -3.1 100 -3.1 122 0 969.5 NA 0.0000 9999 2490 3080 5090 0
2019/10/09 17:32:00 BASE 3.46 140 4.32 162 -3.2 100 -3.2 121 0 969.5 NA 0.0000 9999 2850 0 0 0
2019/10/09 17:33:00 BASE 4.17 139 5.20 141 -3.2 100 -3.2 120 0 969.5 NA 0.0000 9999 2790 4920 0 0
2019/10/09 17:34:00 BASE 4.97 137 6.02 130 -3.2 100 -3.2 119 0 969.5 NA 0.0000 9999 2590 0 0 0
2019/10/09 17:35:00 BASE 5.06 137 6.02 130 -3.2 100 -3.2 117 0 969.3 NA 0.0000 9999 2660 3350 0 0
2019/10/09 17:36:00 BASE 4.27 136 6.02 130 -3.2 100 -3.2 117 0 969.6 NA 0.0000 9999 2330 21360 0 0
2019/10/09 17:37:00 BASE 3.47 128 6.02 130 -3.2 100 -3.2 117 0 969.6 NA 0.0000 9999 2200 0 0 0
2019/10/09 17:38:00 BASE 3.03 119 6.02 130 -3.2 100 -3.2 117 0 969.6 NA 0.0000 9999 2260 2790 0 0
2019/10/09 17:39:00 BASE 2.59 106 6.02 130 -3.1 100 -3.1 117 0 969.5 NA 0.0000 9999 2230 0 0 0
2019/10/09 17:40:00 BASE 2.39 104 6.02 130 -3.1 100 -3.1 117 0 969.2 NA 0.0000 9999 2490 0 0 0
2019/10/09 17:41:00 BASE 2.86 122 6.02 130 -3.1 100 -3.1 117 0 969.5 NA 0.0000 9999 2360 0 0 0
2019/10/09 17:42:00 BASE 3.66 143 6.02 130 -3.1 100 -3.1 116 0 969.5 NA 0.0000 9999 2260 0 0 0
2019/10/09 17:43:00 BASE 3.60 160 6.02 130 -3.1 100 -3.1 117 0 969.5 NA 0.0000 9999 2260 0 0 0
2019/10/09 17:44:00 BASE 3.09 167 5.50 140 -3.1 100 -3.1 117 0 969.2 NA 0.0000 9999 2300 0 0 0
2019/10/09 17:45:00 BASE 2.97 169 4.22 148 -3.1 100 -3.1 119 0 969.5 NA 0.0000 9999 2330 0 0 0
2019/10/09 17:46:00 BASE 3.11 171 4.22 148 -3.1 100 -3.1 121 0 969.5 NA 0.0000 9999 2400 0 0 0
2019/10/09 17:47:00 BASE 3.32 165 4.22 148 -3.1 100 -3.1 122 0 969.5 NA 0.0000 9999 2490 0 0 0
2019/10/09 17:48:00 BASE 3.23 153 4.22 148 -3.1 100 -3.1 122 0 969.5 NA 0.0000 9999 2330 0 0 0
2019/10/09 17:49:00 BASE 3.63 146 5.09 135 -3.1 100 -3.1 120 0 969.5 NA 0.0000 9999 2300 0 0 0
2019/10/09 17:50:00 BASE 4.33 137 5.09 135 -3.1 100 -3.1 120 0 969.5 NA 0.0000 9999 2400 0 0 0
2019/10/09 17:51:00 BASE 4.34 133 5.20 131 -3.1 100 -3.1 121 0 969.4 NA 0.0000 9999 2430 0 0 0
2019/10/09 17:52:00 BASE 3.87 134 5.20 131 -3.1 100 -3.1 123 0 969.3 NA 0.0000 9999 2230 0 0 0
2019/10/09 17:53:00 BASE 3.96 131 5.30 128 -3.1 100 -3.1 125 0 969.5 NA 0.0000 9999 2260 0 0 0
2019/10/09 17:54:00 BASE 5.02 130 6.17 128 -3.1 100 -3.1 125 0 969.4 NA 0.0000 9999 2490 0 0 0
2019/10/09 17:55:00 BASE 5.61 130 6.17 128 -3.1 100 -3.1 124 0 969.4 NA 0.0000 9999 2560 0 0 0
2019/10/09 17:56:00 BASE 4.56 136 6.17 128 -3.1 100 -3.1 122 0 969.5 NA 0.0000 9999 2490 0 0 0
2019/10/09 17:57:00 BASE 4.30 142 6.22 142 -3.1 100 -3.1 120 0 969.3 NA 0.0000 9999 2360 0 0 0
2019/10/09 17:58:00 BASE 5.19 145 6.22 142 -3.1 100 -3.1 119 0 969.1 NA 0.0000 9999 2430 0 0 0
2019/10/09 17:59:00 BASE 5.32 145 6.22 142 -3.1 100 -3.1 120 0 969.4 NA 0.0000 9999 2400 0 0 0
2019/10/09 18:00:00 BASE 5.00 142 6.22 142 -3.1 100 -3.1 120 0 969.5 NA 0.0000 9999 2400 0 0 0
2019/10/09 18:01:00 BASE 4.48 139 6.22 142 -3.1 100 -3.1 121 0 969.5 NA 0.0000 9999 2330 21650 0 0
2019/10/09 18:02:00 BASE 4.19 142 6.22 142 -3.1 100 -3.1 121 0 969.5 NA 0.0000 9999 2620 0 0 0
2019/10/09 18:03:00 BASE 4.31 146 6.22 142 -3.1 100 -3.1 120 0 969.5 NA 0.0000 9999 2460 22210 0 0
2019/10/09 18:04:00 BASE 4.60 149 6.22 142 -3.0 99 -3.1 118 0 969.4 NA 0.0000 9999 2400 0 0 0
2019/10/09 18:05:00 BASE 5.01 153 6.22 142 -3.0 99 -3.2 117 0 969.3 NA 0.0000 9999 2490 0 0 0
2019/10/09 18:06:00 BASE 5.58 154 6.48 158 -3.0 98 -3.2 117 0 969.3 NA 0.0000 9999 2460 0 0 0
2019/10/09 18:07:00 BASE 5.95 153 6.48 158 -2.9 97 -3.3 116 0 969.3 NA 0.0000 9999 2490 0 0 0
2019/10/09 18:08:00 BASE 5.53 152 6.48 158 -2.9 97 -3.4 116 0 969.3 NA 0.0000 9999 2430 0 0 0
2019/10/09 18:09:00 BASE 4.37 153 6.48 158 -2.9 96 -3.4 115 0 969.4 NA 0.0000 9999 2620 0 0 0
2019/10/09 18:10:00 BASE 3.71 150 6.48 158 -3.0 96 -3.5 114 0 969.5 NA 0.0000 9999 2690 0 0 0
2019/10/09 18:11:00 BASE 3.31 142 6.48 158 -3.0 96 -3.5 114 0 969.5 NA 0.0000 9999 2720 0 0 0
2019/10/09 18:12:00 BASE 3.28 139 6.48 158 -3.0 96 -3.5 115 0 969.5 NA 0.0000 9999 2660 0 0 0
2019/10/09 18:13:00 BASE 3.85 138 6.48 158 -3.0 96 -3.4 114 0 969.5 NA 0.0000 9999 2430 0 0 0
2019/10/09 18:14:00 BASE 4.47 133 6.48 158 -2.9 96 -3.5 114 0 969.5 NA 0.0000 9999 2400 0 0 0
2019/10/09 18:15:00 BASE 5.29 131 6.48 158 -2.9 96 -3.5 114 0 969.5 NA 0.0000 9999 2460 0 0 0
2019/10/09 18:16:00 BASE 5.58 134 6.33 154 -2.9 96 -3.5 114 0 969.5 NA 0.0000 9999 2460 0 0 0
2019/10/09 18:17:00 BASE 5.51 133 6.38 134 -2.9 96 -3.5 115 0 969.5 NA 0.0000 9999 2230 0 0 0
2019/10/09 18:18:00 BASE 5.71 134 6.38 134 -2.9 95 -3.5 115 0 969.5 NA 0.0000 9999 2230 0 0 0
2019/10/09 18:19:00 BASE 5.68 136 6.38 134 -2.9 95 -3.6 115 0 969.5 NA 0.0000 9999 2330 0 0 0
2019/10/09 18:20:00 BASE 5.23 138 6.38 134 -2.8 94 -3.7 115 0 969.5 NA 0.0000 9999 2300 0 0 0
2019/10/09 18:21:00 BASE 4.69 138 6.38 134 -2.8 93 -3.8 116 0 969.5 NA 0.0000 9999 2330 0 0 0
2019/10/09 18:22:00 BASE 3.96 141 6.38 134 -2.8 92 -3.9 117 0 969.6 NA 0.0000 9999 2230 0 0 0
2019/10/09 18:23:00 BASE 3.07 154 6.38 134 -2.7 91 -4.0 117 0 969.5 NA 0.0000 9999 2130 0 0 0
2019/10/09 18:24:00 BASE 3.26 163 6.38 134 -2.7 90 -4.1 117 0 969.5 NA 0.0000 9999 2200 0 0 0
2019/10/09 18:25:00 BASE 4.21 156 6.38 134 -2.7 89 -4.2 117 0 969.5 NA 0.0000 9999 2170 0 0 0
2019/10/09 18:26:00 BASE 4.35 143 6.38 134 -2.6 88 -4.3 117 0 969.6 NA 0.0000 9999 2230 0 0 0
2019/10/09 18:27:00 BASE 3.83 134 6.17 135 -2.6 88 -4.4 117 0 969.6 NA 0.0000 9999 2170 0 0 0
2019/10/09 18:28:00 BASE 3.08 135 5.81 137 -2.6 87 -4.5 117 0 969.6 NA 0.0000 9999 2200 0 0 0
2019/10/09 18:29:00 BASE 2.50 146 5.35 143 -2.7 87 -4.5 118 0 969.6 NA 0.0000 9999 2200 0 0 0
2019/10/09 18:30:00 BASE 2.32 165 4.78 150 -2.7 87 -4.5 118 0 969.6 NA 0.0000 9999 2230 0 0 0
2019/10/09 18:31:00 BASE 2.44 175 4.78 150 -2.7 88 -4.5 118 0 969.6 NA 0.0000 9999 2230 0 0 0
2019/10/09 18:32:00 BASE 2.98 175 4.78 150 -2.7 88 -4.4 117 0 969.5 NA 0.0000 9999 2260 0 0 0
2019/10/09 18:33:00 BASE 3.59 176 4.78 150 -2.7 88 -4.4 116 0 969.6 NA 0.0000 9999 2300 0 0 0
2019/10/09 18:34:00 BASE 3.49 177 4.78 150 -2.7 88 -4.4 116 0 969.6 NA 0.0000 9999 2330 0 0 0
2019/10/09 18:35:00 BASE 2.86 181 4.63 146 -2.7 89 -4.4 117 0 969.6 NA 0.0000 9999 2330 2820 0 0
2019/10/09 18:36:00 BASE 2.01 184 4.22 130 -2.8 89 -4.3 118 0 969.6 NA 0.0000 9999 2820 20640 0 0
2019/10/09 18:37:00 BASE 2.09 187 3.86 180 -2.8 89 -4.3 119 0 969.3 NA 0.0000 9999 2950 0 0 0
2019/10/09 18:38:00 BASE 2.94 186 3.86 180 -2.8 89 -4.3 119 0 969.5 NA 0.0000 9999 2490 0 0 0
2019/10/09 18:39:00 BASE 3.12 178 3.86 180 -2.8 89 -4.3 117 0 969.5 NA 0.0000 9999 2530 0 0 0
2019/10/09 18:40:00 BASE 3.44 168 4.48 162 -2.8 89 -4.3 115 0 969.5 NA 0.0000 9999 2460 0 0 0
2019/10/09 18:41:00 BASE 3.81 162 4.48 162 -2.8 89 -4.3 114 0 969.5 NA 0.0000 9999 2430 0 0 0
2019/10/09 18:42:00 BASE 3.68 161 4.48 162 -2.7 90 -4.2 112 0 969.5 NA 0.0000 9999 2360 0 0 0
2019/10/09 18:43:00 BASE 3.74 163 4.48 162 -2.7 90 -4.2 111 0 969.5 NA 0.0000 9999 2400 0 0 0
2019/10/09 18:44:00 BASE 3.71 165 4.48 162 -2.7 90 -4.1 111 0 969.5 NA 0.0000 9999 2400 0 0 0
2019/10/09 18:45:00 BASE 3.66 168 4.48 162 -2.7 90 -4.1 112 0 969.5 NA 0.0000 9999 2330 0 0 0
2019/10/09 18:46:00 BASE 3.88 171 4.48 162 -2.7 90 -4.1 113 0 969.5 NA 0.0000 9999 2430 0 0 0
2019/10/09 18:47:00 BASE 3.83 171 4.48 162 -2.8 91 -4.1 113 0 969.5 NA 0.0000 9999 2330 2950 0 0
2019/10/09 18:48:00 BASE 3.47 172 4.48 162 -2.8 91 -4.1 112 0 969.4 NA 0.0000 9999 2460 5410 0 0
2019/10/09 18:49:00 BASE 3.87 172 4.78 170 -2.8 91 -4.1 111 0 969.3 NA 0.0000 9999 2530 0 0 0
2019/10/09 18:50:00 BASE 4.85 174 5.71 181 -2.8 91 -4.0 111 0 969.5 NA 0.0000 9999 5320 0 0 0
2019/10/09 18:51:00 BASE 5.55 177 6.02 181 -2.8 91 -4.0 110 0 969.5 NA 0.0000 9999 2590 5380 0 0
2019/10/09 18:52:00 BASE 6.46 175 9.36 144 -2.8 92 -4.0 109 0 969.4 NA 0.0000 9999 2690 5410 0 0
2019/10/09 18:53:00 BASE 6.13 160 9.36 144 -2.8 92 -3.9 108 0 969.4 NA 0.0000 9999 2460 5450 0 0
2019/10/09 18:54:00 BASE 4.99 147 9.36 144 -2.8 92 -3.9 107 0 969.5 NA 0.0000 9999 2560 5480 0 0
2019/10/09 18:55:00 BASE 4.35 154 9.36 144 -2.8 92 -3.8 106 0 969.5 NA 0.0000 9999 5410 0 0 0
2019/10/09 18:56:00 BASE 3.74 158 9.36 144 -2.7 92 -3.9 103 0 969.5 NA 0.0000 9999 2490 0 0 0
2019/10/09 18:57:00 BASE 3.65 146 9.36 144 -2.7 91 -3.9 101 0 969.5 NA 0.0000 9999 2560 5540 0 0
2019/10/09 18:58:00 BASE 3.54 151 9.36 144 -2.6 90 -4.0 99 0 969.5 NA 0.0000 9999 2330 0 0 0
2019/10/09 18:59:00 BASE 4.28 157 9.36 144 -2.6 89 -4.1 98 0 969.5 NA 0.0000 9999 2260 23000 0 0
2019/10/09 19:00:00 BASE 5.49 151 9.36 144 -2.5 88 -4.3 95 0 969.4 NA 0.0000 9999 2360 0 0 0
2019/10/09 19:01:00 BASE 5.49 153 9.36 144 -2.5 86 -4.5 91 0 969.4 NA 0.0000 9999 2330 0 0 0
2019/10/09 19:02:00 BASE 5.20 129 6.94 148 -2.5 85 -4.6 88 0 969.4 NA 0.0000 9999 2070 5540 22510 0
2019/10/09 19:03:00 BASE 5.51 101 7.36 109 -2.5 84 -4.8 88 0 969.4 NA 0.0000 9999 2170 0 0 0
2019/10/09 19:04:00 BASE 5.29 106 7.36 109 -2.5 84 -4.9 88 0 969.5 NA 0.0000 9999 2260 0 0 0
2019/10/09 19:05:00 BASE 3.86 88 7.36 109 -2.5 83 -5.0 87 0 969.5 NA 0.0000 9999 2300 0 0 0
2019/10/09 19:06:00 BASE 1.64 61 7.36 109 -2.5 82 -5.1 87 0 969.5 NA 0.0000 9999 2230 0 0 0
2019/10/09 19:07:00 BASE 1.37 92 7.36 109 -2.5 81 -5.3 85 0 969.6 NA 0.0000 9999 2200 0 0 0
2019/10/09 19:08:00 BASE 2.24 129 7.36 109 -2.5 80 -5.4 85 0 969.6 NA 0.0000 9999 2260 0 0 0
2019/10/09 19:09:00 BASE 2.70 130 7.36 109 -2.4 80 -5.5 84 0 969.6 NA 0.0000 9999 2300 0 0 0
2019/10/09 19:10:00 BASE 3.54 96 7.36 109 -2.5 79 -5.6 84 0 969.6 NA 0.0000 9999 2230 0 0 0
2019/10/09 19:11:00 BASE 3.72 22 7.36 109 -2.5 79 -5.6 83 0 969.6 NA 0.0000 9999 2460 23030 0 0
2019/10/09 19:12:00 BASE 4.98 334 7.51 334 -2.5 79 -5.6 82 0 969.5 NA 0.0000 9999 2400 0 0 0
2019/10/09 19:13:00 BASE 4.28 336 7.51 334 -2.5 80 -5.6 82 0 969.6 NA 0.0000 9999 2200 0 0 0
2019/10/09 19:14:00 BASE 2.81 323 7.51 334 -2.5 80 -5.6 82 0 969.4 NA 0.0000 9999 2200 0 0 0
2019/10/09 19:15:00 BASE 3.11 318 7.51 334 -2.5 80 -5.6 82 0 969.6 NA 0.0000 9999 2330 4990 0 0
2019/10/09 19:16:00 BASE 1.88 304 7.51 334 -2.5 79 -5.6 80 0 969.6 NA 0.0000 9999 2230 5050 0 0
2019/10/09 19:17:00 BASE 0.97 225 7.51 334 -2.5 79 -5.6 79 0 969.6 NA 0.0000 9999 5180 0 0 0
2019/10/09 19:18:00 BASE 0.54 198 7.51 334 -2.5 79 -5.7 78 0 969.7 NA 0.0000 9999 5250 0 0 0
2019/10/09 19:19:00 BASE 0.25 192 7.51 334 -2.5 79 -5.7 78 0 969.7 NA 0.0000 9999 5050 0 0 0
2019/10/09 19:20:00 BASE 3.15 53 7.82 25 -2.5 79 -5.7 78 0 969.6 NA 0.0000 9999 5020 0 0 0
2019/10/09 19:21:00 BASE 5.92 27 7.82 25 -2.5 79 -5.7 78 0 969.6 NA 0.0000 9999 5020 22640 0 0
2019/10/09 19:22:00 BASE 5.02 28 7.82 25 -2.5 79 -5.7 77 0 969.5 NA 0.0000 9999 4720 0 0 0
2019/10/09 19:23:00 BASE 3.48 44 7.82 25 -2.5 79 -5.7 76 0 969.6 NA 0.0000 9999 4460 0 0 0
2019/10/09 19:24:00 BASE 4.39 38 7.97 23 -2.5 79 -5.7 75 0 969.6 NA 0.0000 9999 4300 0 0 0
2019/10/09 19:25:00 BASE 5.49 31 7.97 23 -2.6 79 -5.7 74 0 969.6 NA 0.0000 9999 4200 0 0 0
2019/10/09 19:26:00 BASE 5.89 7 8.39 328 -2.6 79 -5.7 73 0 969.5 NA 0.0000 9999 4200 0 0 0
2019/10/09 19:27:00 BASE 5.85 324 8.39 328 -2.6 80 -5.7 72 0 969.3 NA 0.0000 9999 4170 0 0 0
2019/10/09 19:28:00 BASE 5.21 322 8.39 328 -2.6 80 -5.6 71 0 969.5 NA 0.0000 9999 4170 0 0 0
2019/10/09 19:29:00 BASE 5.59 346 8.39 328 -2.6 80 -5.6 71 0 969.5 NA 0.0000 9999 4590 0 0 0
2019/10/09 19:30:00 BASE 6.60 6 10.34 24 -2.6 80 -5.6 71 0 969.4 NA 0.0000 9999 4690 0 0 0
2019/10/09 19:31:00 BASE 7.15 355 10.34 24 -2.6 80 -5.6 70 0 969.5 NA 0.0000 9000 4360 0 0 0
2019/10/09 19:32:00 BASE 6.23 330 10.34 24 -2.6 80 -5.6 70 0 969.5 NA 0.0000 9999 4460 0 0 0
2019/10/09 19:33:00 BASE 6.20 339 10.34 24 -2.6 80 -5.6 70 0 969.5 NA 0.0000 9999 4330 23300 0 0
2019/10/09 19:34:00 BASE 5.15 349 10.34 24 -2.6 80 -5.7 69 0 969.6 NA 0.0000 9999 4100 0 0 0
2019/10/09 19:35:00 BASE 4.88 349 10.34 24 -2.6 79 -5.7 69 0 969.5 NA 0.0000 9999 4040 0 0 0
2019/10/09 19:36:00 BASE 5.30 12 10.34 24 -2.7 79 -5.8 68 0 969.6 NA 0.0000 9999 4100 0 0 0
2019/10/09 19:37:00 BASE 5.99 33 10.85 42 -2.7 79 -5.8 68 0 969.5 NA 0.0000 9999 4070 0 0 0
2019/10/09 19:38:00 BASE 8.79 40 12.24 31 -2.7 79 -5.8 68 0 969.5 NA 0.0000 9999 4130 0 0 0
2019/10/09 19:39:00 BASE 10.37 37 12.96 40 -2.7 80 -5.8 69 0 969.4 NA 0.0000 9999 4130 0 0 0
2019/10/09 19:40:00 BASE 12.07 36 15.48 36 -2.8 80 -5.8 69 0 969.3 NA 0.0000 9999 4630 0 0 0
2019/10/09 19:41:00 BASE 14.34 34 16.62 31 -2.8 80 -5.7 70 0 969.2 NA 0.0000 9000 4400 4760 0 0
2019/10/09 19:42:00 BASE 14.17 33 16.62 31 -2.8 80 -5.7 70 0 969.3 NA 0.0000 9999 5020 0 0 0
2019/10/09 19:43:00 BASE 14.76 32 18.67 31 -2.8 80 -5.8 71 0 969.1 NA 0.0000 9999 5090 0 0 0
2019/10/09 19:44:00 BASE 16.30 29 18.67 31 -2.8 80 -5.7 70 0 969.1 NA 0.0000 9999 4590 5380 0 0
2019/10/09 19:45:00 BASE 16.27 28 18.67 31 -2.8 80 -5.7 70 0 969.1 NA 0.0000 9999 4490 0 0 0
2019/10/09 19:46:00 BASE 16.15 27 18.67 31 -2.8 81 -5.7 71 0 969.1 NA 0.0000 9999 4360 0 0 0
2019/10/09 19:47:00 BASE 15.59 27 18.67 31 -2.9 81 -5.7 71 0 969.1 NA 0.0000 9999 4430 0 0 0
2019/10/09 19:48:00 BASE 15.04 28 18.67 31 -2.9 81 -5.7 70 0 969.2 NA 0.0000 9999 4400 0 0 0
2019/10/09 19:49:00 BASE 15.34 27 18.67 31 -2.9 81 -5.7 70 0 969.1 NA 0.0000 9999 4460 0 0 0
2019/10/09 19:50:00 BASE 15.27 26 18.67 31 -2.9 81 -5.7 70 0 969.2 NA 0.0000 9999 4630 0 0 0
2019/10/09 19:51:00 BASE 15.71 28 19.29 36 -2.9 81 -5.7 70 0 969.1 NA 0.0000 9999 4590 0 0 0
2019/10/09 19:52:00 BASE 16.17 28 19.29 36 -2.9 82 -5.7 69 0 969.2 NA 0.0000 9999 4400 0 0 0
2019/10/09 19:53:00 BASE 15.66 25 19.29 36 -3.0 82 -5.6 69 0 969.2 NA 0.0000 9999 4460 0 0 0
2019/10/09 19:54:00 BASE 15.87 24 19.29 36 -3.0 82 -5.6 69 0 969.2 NA 0.0000 9999 4460 0 0 0
2019/10/09 19:55:00 BASE 16.39 27 19.50 33 -3.0 82 -5.6 68 0 969.2 NA 0.0000 9999 4460 0 0 0
2019/10/09 19:56:00 BASE 16.17 31 19.50 33 -3.0 83 -5.5 68 0 969.2 NA 0.0000 9999 4360 0 0 0
2019/10/09 19:57:00 BASE 14.69 32 19.50 33 -3.0 83 -5.5 69 0 969.3 NA 0.0000 9999 4230 0 0 0
2019/10/09 19:58:00 BASE 13.38 30 19.50 33 -3.0 83 -5.5 69 0 969.3 NA 0.0000 9999 4690 0 0 0
2019/10/09 19:59:00 BASE 14.90 29 19.50 33 -3.0 83 -5.5 70 0 969.1 NA 0.0000 9999 4690 0 0 0
2019/10/09 20:00:00 BASE 16.98 29 19.70 28 -3.0 83 -5.5 70 0 969.1 NA 0.0000 9999 5280 0 0 0
2019/10/09 20:01:00 BASE 16.72 27 19.70 28 -3.0 83 -5.5 71 0 969.1 NA 0.0000 9999 4950 0 0 0
2019/10/09 20:02:00 BASE 16.43 31 19.70 28 -3.0 83 -5.5 71 0 969.0 NA 0.0000 9999 4400 0 0 0
2019/10/09 20:03:00 BASE 15.63 33 19.70 28 -3.0 83 -5.5 71 0 969.1 NA 0.0000 9999 5180 24380 0 0
2019/10/09 20:04:00 BASE 15.70 28 19.70 28 -3.1 83 -5.5 71 0 969.1 NA 0.0000 9999 5220 0 0 0
2019/10/09 20:05:00 BASE 16.82 22 19.70 28 -3.1 83 -5.6 72 0 969.1 NA 0.0000 9999 5450 0 0 0
2019/10/09 20:06:00 BASE 16.69 23 19.70 28 -3.1 83 -5.6 72 0 969.1 NA 0.0000 9999 5480 6300 21560 0
2019/10/09 20:07:00 BASE 16.69 29 19.70 28 -3.1 83 -5.5 72 0 969.1 NA 0.0000 9999 5480 6330 0 0
2019/10/09 20:08:00 BASE 15.82 32 19.70 28 -3.1 83 -5.5 72 0 969.2 NA 0.0000 9999 5510 6330 0 0
2019/10/09 20:09:00 BASE 12.60 31 19.70 28 -3.1 83 -5.5 71 0 969.3 NA 0.0000 9999 5580 6300 0 0
2019/10/09 20:10:00 BASE 12.19 30 19.24 34 -3.1 84 -5.5 71 0 969.2 NA 0.0000 9999 5540 6270 0 0
2019/10/09 20:11:00 BASE 15.05 30 19.24 34 -3.1 84 -5.4 71 0 969.1 NA 0.0000 9999 5480 6270 14860 0
2019/10/09 20:12:00 BASE 16.68 28 19.24 34 -3.1 84 -5.4 70 0 969.1 NA 0.0000 9999 5510 6300 0 0
2019/10/09 20:13:00 BASE 15.66 30 19.24 34 -3.1 84 -5.4 70 0 969.2 NA 0.0000 9999 4070 5480 6330 0
2019/10/09 20:14:00 BASE 13.88 26 19.24 34 -3.1 84 -5.4 70 0 969.2 NA 0.0000 9999 6200 0 0 0
2019/10/09 20:15:00 BASE 15.44 22 20.06 21 -3.0 84 -5.4 70 0 969.1 NA 0.0000 9999 6270 0 0 0
2019/10/09 20:16:00 BASE 17.61 25 20.06 21 -3.0 84 -5.4 70 0 969.0 NA 0.0000 9999 6230 0 0 0
2019/10/09 20:17:00 BASE 18.43 22 20.94 19 -3.0 84 -5.4 69 0 969.0 NA 0.0000 9999 6230 0 0 0
2019/10/09 20:18:00 BASE 18.95 23 20.94 19 -3.1 84 -5.3 69 0 969.0 NA 0.0000 9999 6200 0 0 0
2019/10/09 20:19:00 BASE 19.13 30 22.07 32 -3.1 84 -5.4 70 0 969.0 NA 0.0000 9999 6200 0 0 0
2019/10/09 20:20:00 BASE 18.74 31 22.07 32 -3.1 85 -5.3 70 0 969.0 NA 0.0000 5000 6170 20470 21920 0
2019/10/09 20:21:00 BASE 17.15 29 22.07 32 -3.2 85 -5.3 69 0 969.1 NA 0.0000 9999 6140 0 0 0
2019/10/09 20:22:00 BASE 15.70 29 22.07 32 -3.2 86 -5.2 69 0 969.1 NA 0.0000 8000 6170 0 0 0
2019/10/09 20:23:00 BASE 18.25 26 24.64 27 -3.2 87 -5.1 70 0 968.8 NA 0.0000 9999 6100 0 0 0
2019/10/09 20:24:00 BASE 20.58 24 24.64 27 -3.2 88 -5.0 70 0 968.9 NA 0.0000 9999 6070 0 0 0
2019/10/09 20:25:00 BASE 18.24 21 24.64 27 -3.2 88 -4.9 69 0 969.1 NA 0.0000 9999 6040 0 0 0
2019/10/09 20:26:00 BASE 17.04 23 24.64 27 -3.3 89 -4.9 68 0 969.0 NA 0.0000 9999 5970 0 0 0
2019/10/09 20:27:00 BASE 18.21 26 24.64 27 -3.3 89 -4.9 67 0 968.9 NA 0.0000 9999 6040 0 0 0
2019/10/09 20:28:00 BASE 18.90 25 24.64 27 -3.3 89 -4.9 66 0 968.9 NA 0.0000 9999 4130 6000 0 0
2019/10/09 20:29:00 BASE 17.66 24 24.64 27 -3.3 89 -4.9 65 0 969.0 NA 0.0000 9999 4230 0 0 0
2019/10/09 20:30:00 BASE 17.26 28 24.64 27 -3.3 89 -4.9 64 0 969.0 NA 0.0000 9000 4100 0 0 0
2019/10/09 20:31:00 BASE 18.79 31 24.64 27 -3.3 89 -4.9 65 0 969.0 NA 0.0000 5000 4200 0 0 0
2019/10/09 20:32:00 BASE 19.49 31 24.64 27 -3.3 89 -4.9 65 0 969.0 NA 0.0000 9999 4300 5940 0 0
2019/10/09 20:33:00 BASE 17.92 33 22.69 37 -3.3 88 -4.9 64 0 969.2 NA 0.0000 9999 5940 0 0 0
2019/10/09 20:34:00 BASE 14.74 35 22.69 37 -3.3 88 -5.0 64 0 969.3 NA 0.2540 9999 5940 0 0 0
2019/10/09 20:35:00 BASE 11.82 34 22.69 37 -3.3 88 -5.0 65 0 969.3 NA 0.0000 9999 5940 0 0 0
2019/10/09 20:36:00 BASE 11.88 33 22.69 37 -3.3 88 -5.0 65 0 969.3 NA 0.0000 9999 4070 5940 0 0
2019/10/09 20:37:00 BASE 13.07 34 22.69 37 -3.2 87 -5.1 65 0 969.2 NA 0.0000 9999 4070 6300 0 0
2019/10/09 20:38:00 BASE 13.33 34 22.69 37 -3.2 87 -5.1 65 0 969.2 NA 0.0000 9999 4070 0 0 0
2019/10/09 20:39:00 BASE 13.08 38 22.69 37 -3.2 86 -5.2 65 0 969.2 NA 0.0000 9999 4040 4560 0 0
2019/10/09 20:40:00 BASE 13.40 40 21.71 31 -3.2 86 -5.2 66 0 969.2 NA 0.0000 9999 4230 6140 6690 0
2019/10/09 20:41:00 BASE 14.61 35 20.73 41 -3.2 85 -5.3 66 0 969.2 NA 0.0000 9999 4200 6040 6730 0
2019/10/09 20:42:00 BASE 16.27 27 20.42 33 -3.2 85 -5.4 88 0 969.1 NA 0.0000 9999 4230 5970 0 0
2019/10/09 20:43:00 BASE 18.63 23 21.04 21 -3.2 85 -5.5 94 0 969.0 NA 0.0000 9999 4170 6040 0 0
2019/10/09 20:44:00 BASE 19.46 22 21.04 21 -3.3 84 -5.5 96 0 969.0 NA 0.0000 9999 3770 21130 0 0
2019/10/09 20:45:00 BASE 19.16 23 21.04 21 -3.3 84 -5.6 95 0 969.0 NA 0.0000 9999 3770 18700 0 0
2019/10/09 20:46:00 BASE 18.12 26 21.04 21 -3.3 84 -5.6 94 0 969.1 NA 0.0000 9999 3740 0 0 0
2019/10/09 20:47:00 BASE 16.30 30 21.04 21 -3.3 84 -5.6 93 0 969.3 NA 0.0000 9999 3770 0 0 0
2019/10/09 20:48:00 BASE 12.96 36 21.04 21 -3.3 84 -5.5 92 0 969.4 NA 0.0000 9999 3840 0 0 0
2019/10/09 20:49:00 BASE 9.58 40 21.04 21 -3.3 85 -5.5 90 0 969.5 NA 0.0000 9999 3710 0 0 0
2019/10/09 20:50:00 BASE 9.59 39 21.04 21 -3.3 85 -5.5 89 0 969.4 NA 0.0000 9999 3940 0 0 0
2019/10/09 20:51:00 BASE 13.73 30 21.04 21 -3.3 85 -5.4 88 0 969.2 NA 0.0000 9999 3900 0 0 0
2019/10/09 20:52:00 BASE 18.61 22 21.35 31 -3.2 85 -5.5 87 0 969.0 NA 0.0000 SQ 9999 3900 0 0 0
2019/10/09 20:53:00 BASE 20.11 22 21.35 31 -3.2 84 -5.5 86 0 969.0 NA 0.0000 SQ 9999 3740 0 0 0
2019/10/09 20:54:00 BASE 19.57 22 21.35 31 -3.2 84 -5.5 85 0 969.1 NA 0.0000 9999 3870 0 0 0
2019/10/09 20:55:00 BASE 18.65 20 21.35 31 -3.3 84 -5.5 84 0 969.2 NA 0.0000 9999 3740 0 0 0
2019/10/09 20:56:00 BASE 17.30 18 21.35 31 -3.3 85 -5.5 83 0 969.2 NA 0.0000 9999 3640 0 0 0
2019/10/09 20:57:00 BASE 16.51 16 21.35 31 -3.3 85 -5.5 82 0 969.2 NA 0.0000 9999 3740 0 0 0
2019/10/09 20:58:00 BASE 16.10 18 21.35 31 -3.3 85 -5.5 81 0 969.3 NA 0.0000 9999 3810 0 0 0
2019/10/09 20:59:00 BASE 16.43 19 21.35 31 -3.3 85 -5.5 80 0 969.2 NA 0.0000 9999 3840 0 0 0
2019/10/09 21:00:00 BASE 17.93 19 21.35 31 -3.3 85 -5.5 79 0 969.2 NA 0.0000 9999 3670 0 0 0
2019/10/09 21:01:00 BASE 18.29 19 21.35 31 -3.4 85 -5.5 79 0 969.1 NA 0.0000 9999 3640 4100 0 0
2019/10/09 21:02:00 BASE 18.38 20 21.20 23 -3.4 85 -5.5 78 0 969.1 NA 0.0000 9999 3640 5320 0 0
2019/10/09 21:03:00 BASE 19.19 20 20.63 21 -3.4 85 -5.6 77 0 969.1 NA 0.0000 9999 3810 4270 5540 0
2019/10/09 21:04:00 BASE 19.52 20 21.71 23 -3.4 85 -5.6 76 0 969.1 NA 0.0000 9999 3770 0 0 0
2019/10/09 21:05:00 BASE 19.16 22 21.71 23 -3.4 85 -5.6 75 0 969.1 NA 0.0000 9999 3840 0 0 0
2019/10/09 21:06:00 BASE 17.80 24 21.71 23 -3.5 85 -5.6 74 0 969.2 NA 0.0000 9999 3710 0 0 0
2019/10/09 21:07:00 BASE 16.77 24 21.71 23 -3.5 85 -5.6 72 0 969.3 NA 0.0000 9999 3810 0 0 0
2019/10/09 21:08:00 BASE 16.28 22 21.71 23 -3.5 85 -5.6 71 0 969.3 NA 0.0000 9999 3810 20800 0 0
2019/10/09 21:09:00 BASE 14.61 23 21.71 23 -3.5 85 -5.7 70 0 969.4 NA 0.0000 9999 3840 0 0 0
2019/10/09 21:10:00 BASE 17.02 27 23.97 25 -3.5 85 -5.7 69 0 969.1 NA 0.0000 9999 3770 0 0 0
2019/10/09 21:11:00 BASE 19.96 28 23.97 25 -3.5 85 -5.7 68 0 969.2 NA 0.0000 9000 3640 0 0 0
2019/10/09 21:12:00 BASE 18.03 27 23.97 25 -3.5 85 -5.7 68 0 969.3 NA 0.0000 9999 3480 0 0 0
2019/10/09 21:13:00 BASE 17.40 26 23.97 25 -3.6 85 -5.7 67 0 969.3 NA 0.0000 9999 3670 0 0 0
2019/10/09 21:14:00 BASE 18.49 28 23.97 25 -3.6 85 -5.8 66 0 969.3 NA 0.0000 9999 3710 0 0 0
2019/10/09 21:15:00 BASE 19.47 27 23.97 25 -3.7 85 -5.8 65 0 969.2 NA 0.0000 9999 3740 0 0 0
2019/10/09 21:16:00 BASE 20.07 24 23.97 25 -3.7 86 -5.7 64 0 969.3 NA 0.0000 9999 3810 0 0 0
2019/10/09 21:17:00 BASE 19.18 22 23.97 25 -3.7 86 -5.8 62 0 969.3 NA 0.0000 9999 3810 0 0 0
2019/10/09 21:18:00 BASE 19.06 21 23.97 25 -3.7 86 -5.8 61 0 969.2 NA 0.0000 9999 3770 0 0 0
2019/10/09 21:19:00 BASE 19.94 22 23.97 25 -3.8 86 -5.8 59 0 969.2 NA 0.0000 9999 3840 0 0 0
2019/10/09 21:20:00 BASE 20.10 21 23.05 26 -3.8 85 -5.9 58 0 969.2 NA 0.0000 9999 3840 0 0 0
2019/10/09 21:21:00 BASE 21.10 22 23.82 19 -3.8 85 -5.9 57 0 969.1 NA 0.0000 9999 3740 0 0 0
2019/10/09 21:22:00 BASE 21.08 21 23.82 19 -3.8 85 -6.0 56 0 969.2 NA 0.0000 9999 3840 0 0 0
2019/10/09 21:23:00 BASE 20.62 22 23.82 19 -3.9 85 -6.0 55 0 969.2 NA 0.0000 9999 3770 0 0 0
2019/10/09 21:24:00 BASE 22.19 22 24.28 22 -3.9 85 -6.0 54 0 969.1 NA 0.0000 9999 3640 0 0 0
2019/10/09 21:25:00 BASE 22.56 21 24.54 19 -3.9 85 -6.0 53 0 969.1 NA 0.0000 9999 3610 0 0 0
2019/10/09 21:26:00 BASE 20.98 22 24.54 19 -3.9 86 -6.0 52 0 969.2 NA 0.0000 9999 3610 0 0 0
2019/10/09 21:27:00 BASE 20.68 22 24.54 19 -3.9 86 -5.9 51 0 969.2 NA 0.0000 9999 3710 0 0 0
2019/10/09 21:28:00 BASE 21.05 21 24.54 19 -3.9 86 -5.9 49 0 969.2 NA 0.0000 9999 3670 0 0 0
2019/10/09 21:29:00 BASE 21.40 21 24.54 19 -4.0 86 -6.0 48 0 969.2 NA 0.0000 9999 3770 0 0 0
2019/10/09 21:30:00 BASE 21.43 22 24.54 19 -4.0 86 -5.9 46 0 969.2 NA 0.0000 9999 3580 0 0 0
2019/10/09 21:31:00 BASE 21.10 22 24.54 19 -4.0 86 -5.9 45 0 969.3 NA 0.0000 9999 3610 0 0 0
2019/10/09 21:32:00 BASE 21.42 23 24.54 19 -4.0 87 -5.9 44 0 969.2 NA 0.0000 9999 3740 0 0 0
2019/10/09 21:33:00 BASE 21.05 25 24.54 19 -4.0 87 -5.9 43 0 969.3 NA 0.0000 9999 3710 0 0 0
2019/10/09 21:34:00 BASE 20.65 24 24.54 19 -4.0 87 -5.9 41 0 969.3 NA 0.0000 9999 3670 0 0 0
2019/10/09 21:35:00 BASE 20.17 23 23.61 20 -4.0 86 -5.9 40 0 969.3 NA 0.0000 9999 3770 0 0 0
2019/10/09 21:36:00 BASE 20.58 24 23.61 20 -4.0 86 -6.0 39 0 969.3 NA 0.0000 9999 3740 0 0 0
2019/10/09 21:37:00 BASE 21.27 23 23.61 20 -4.0 86 -6.0 38 0 969.3 NA 0.0000 9999 3710 0 0 0
2019/10/09 21:38:00 BASE 20.98 23 23.61 20 -4.0 86 -6.1 37 0 969.3 NA 0.0000 9999 3640 0 0 0
2019/10/09 21:39:00 BASE 20.02 23 23.61 20 -4.0 85 -6.1 36 0 969.3 NA 0.0000 9999 3670 0 0 0
2019/10/09 21:40:00 BASE 19.26 22 23.61 20 -4.0 85 -6.1 35 0 969.3 NA 0.0000 9999 3710 0 0 0
2019/10/09 21:41:00 BASE 19.86 23 23.61 20 -4.0 85 -6.1 35 0 969.3 NA 0.0000 9999 3670 0 0 0
2019/10/09 21:42:00 BASE 19.80 24 23.41 31 -4.0 85 -6.1 35 0 969.3 NA 0.0000 9999 3670 0 0 0
2019/10/09 21:43:00 BASE 18.99 26 23.05 21 -4.0 85 -6.1 34 0 969.3 NA 0.0000 9999 3740 0 0 0
2019/10/09 21:44:00 BASE 19.28 27 23.05 21 -4.0 85 -6.1 34 0 969.3 NA 0.0000 9999 3710 0 0 0
2019/10/09 21:45:00 BASE 18.77 25 23.05 21 -4.0 85 -6.1 33 0 969.4 NA 0.0000 9999 3770 0 0 0
2019/10/09 21:46:00 BASE 18.49 23 22.74 22 -4.0 85 -6.1 33 0 969.3 NA 0.0000 9999 3770 0 0 0
2019/10/09 21:47:00 BASE 20.49 23 23.20 25 -4.0 86 -6.1 33 0 969.2 NA 0.0000 9999 3770 0 0 0
2019/10/09 21:48:00 BASE 21.52 21 23.20 25 -4.0 86 -6.0 33 0 969.2 NA 0.0000 9999 3740 0 0 0
2019/10/09 21:49:00 BASE 21.53 22 24.33 16 -4.0 86 -6.0 32 0 969.2 NA 0.0000 9999 3770 0 0 0
2019/10/09 21:50:00 BASE 21.56 23 24.33 16 -4.0 86 -6.0 32 0 969.2 NA 0.0000 9999 3770 0 0 0
2019/10/09 21:51:00 BASE 20.88 23 24.33 16 -4.0 86 -6.0 31 0 969.3 NA 0.0000 9999 3810 0 0 0
2019/10/09 21:52:00 BASE 19.99 25 24.33 16 -4.0 86 -6.0 31 0 969.3 NA 0.0000 9999 3770 0 0 0
2019/10/09 21:53:00 BASE 19.54 26 24.33 16 -4.0 86 -5.9 30 0 969.3 NA 0.0000 9999 3740 0 0 0
2019/10/09 21:54:00 BASE 19.18 26 24.33 16 -4.0 87 -5.9 30 0 969.4 NA 0.0000 9999 3640 0 0 0
2019/10/09 21:55:00 BASE 18.91 25 24.33 16 -4.0 87 -5.9 29 0 969.4 NA 0.0000 9999 3610 0 0 0
2019/10/09 21:56:00 BASE 18.54 24 24.33 16 -4.0 87 -5.9 28 0 969.4 NA 0.0000 9999 3640 0 0 0
2019/10/09 21:57:00 BASE 19.31 24 24.33 16 -4.1 87 -5.9 27 0 969.3 NA 0.0000 9999 3670 0 0 0
2019/10/09 21:58:00 BASE 19.68 24 24.33 16 -4.1 87 -5.9 26 0 969.4 NA 0.0000 9999 3740 0 0 0
2019/10/09 21:59:00 BASE 18.99 24 22.84 21 -4.1 87 -5.9 25 0 969.3 NA 0.0000 9999 3510 0 0 0
2019/10/09 22:00:00 BASE 19.09 26 22.84 21 -4.1 87 -5.9 24 0 969.3 NA 0.0000 9999 3510 0 0 0
2019/10/09 22:01:00 BASE 20.44 28 24.08 29 -4.0 87 -5.9 23 0 969.2 NA 0.0000 9999 3640 0 0 0
2019/10/09 22:02:00 BASE 19.68 29 24.08 29 -4.0 87 -5.9 23 0 969.4 NA 0.0000 9999 3840 0 0 0
2019/10/09 22:03:00 BASE 18.64 30 24.08 29 -4.0 87 -5.9 23 0 969.4 NA 0.0000 9999 3710 0 0 0
2019/10/09 22:04:00 BASE 19.05 29 24.08 29 -4.1 87 -5.9 23 0 969.3 NA 0.0000 9999 3770 0 0 0
2019/10/09 22:05:00 BASE 18.40 28 24.08 29 -4.1 87 -5.9 22 0 969.4 NA 0.0000 9999 3840 0 0 0
2019/10/09 22:06:00 BASE 19.47 29 24.08 29 -4.1 87 -5.9 22 0 969.3 NA 0.0000 9999 3940 0 0 0
2019/10/09 22:07:00 BASE 20.22 27 24.08 29 -4.1 87 -5.9 22 0 969.3 NA 0.0000 9999 3900 0 0 0
2019/10/09 22:08:00 BASE 19.42 25 24.08 29 -4.1 87 -5.9 21 0 969.3 NA 0.0000 9999 3900 0 0 0
2019/10/09 22:09:00 BASE 18.74 25 24.08 29 -4.1 87 -5.9 20 0 969.3 NA 0.0000 9999 3970 0 0 0
2019/10/09 22:10:00 BASE 18.36 26 24.08 29 -4.1 87 -5.9 20 0 969.3 NA 0.0000 9999 3900 0 0 0
2019/10/09 22:11:00 BASE 18.42 27 22.33 33 -4.1 87 -5.9 20 0 969.3 NA 0.0000 9999 3940 0 0 0
2019/10/09 22:12:00 BASE 19.03 26 22.33 33 -4.1 87 -5.9 19 0 969.3 NA 0.0000 9999 4000 0 0 0
2019/10/09 22:13:00 BASE 18.78 25 22.33 33 -4.1 87 -5.9 19 0 969.4 NA 0.0000 9999 4000 0 0 0
2019/10/09 22:14:00 BASE 18.40 26 22.33 33 -4.1 87 -5.9 18 0 969.3 NA 0.0000 9999 4000 0 0 0
2019/10/09 22:15:00 BASE 18.44 25 22.33 33 -4.1 87 -6.0 17 0 969.3 NA 0.0000 9999 3900 0 0 0
2019/10/09 22:16:00 BASE 18.47 25 22.17 27 -4.1 87 -6.0 16 0 969.3 NA 0.0000 9999 3810 0 0 0
2019/10/09 22:17:00 BASE 19.58 30 22.17 32 -4.1 87 -6.0 15 0 969.4 NA 0.0000 9999 3940 0 0 0
2019/10/09 22:18:00 BASE 19.37 31 22.17 32 -4.1 87 -6.0 14 0 969.4 NA 0.0000 9999 3970 0 0 0
2019/10/09 22:19:00 BASE 18.27 27 22.17 32 -4.1 87 -6.0 14 0 969.4 NA 0.0000 9999 3940 0 0 0
2019/10/09 22:20:00 BASE 18.81 26 22.17 32 -4.1 87 -6.0 14 0 969.4 NA 0.0000 9999 3770 0 0 0
2019/10/09 22:21:00 BASE 19.64 29 22.64 33 -4.1 86 -6.0 13 0 969.4 NA 0.0000 9999 3710 0 0 0
2019/10/09 22:22:00 BASE 19.77 32 22.64 33 -4.1 86 -6.1 13 0 969.4 NA 0.0000 9999 3810 0 0 0
2019/10/09 22:23:00 BASE 19.92 32 22.64 33 -4.1 86 -6.1 13 0 969.4 NA 0.0000 9999 3900 0 0 0
2019/10/09 22:24:00 BASE 19.83 30 22.64 33 -4.1 86 -6.1 12 0 969.4 NA 0.0000 9999 3810 0 0 0
2019/10/09 22:25:00 BASE 19.10 29 22.64 33 -4.2 86 -6.2 12 0 969.4 NA 0.0000 9999 3810 0 0 0
2019/10/09 22:26:00 BASE 18.72 31 22.64 33 -4.2 86 -6.2 11 0 969.5 NA 0.0000 9999 3840 0 0 0
2019/10/09 22:27:00 BASE 18.69 32 22.64 33 -4.2 86 -6.2 11 0 969.5 NA 0.0000 9999 3840 0 0 0
2019/10/09 22:28:00 BASE 18.12 35 22.64 33 -4.2 86 -6.2 11 0 969.5 NA 0.0000 -SN 9999 3840 0 0 0
2019/10/09 22:29:00 BASE 17.13 35 22.64 33 -4.2 86 -6.2 11 0 969.6 NA 0.0000 -SN 9000 3740 0 0 0
2019/10/09 22:30:00 BASE 17.40 36 22.64 33 -4.2 86 -6.2 11 0 969.5 NA 0.0000 -SN 5000 3770 0 0 0
2019/10/09 22:31:00 BASE 17.58 36 22.07 32 -4.2 86 -6.2 10 0 969.5 NA 0.0000 -SN BR 3000 3640 0 0 0
2019/10/09 22:32:00 BASE 19.38 31 24.54 25 -4.2 86 -6.2 10 0 969.3 NA 0.0000 -SN BR 7000 3580 0 0 0
2019/10/09 22:33:00 BASE 21.50 28 24.54 25 -4.2 86 -6.2 10 0 969.3 NA 0.0000 -SN BR 9999 3610 0 0 0
2019/10/09 22:34:00 BASE 20.54 26 24.54 25 -4.3 86 -6.2 10 0 969.4 NA 0.0000 -SN BR 9999 3610 4760 0 0
2019/10/09 22:35:00 BASE 19.40 26 24.54 25 -4.3 87 -6.2 10 0 969.5 NA 0.0000 -SN BR 9999 3640 4630 0 0
2019/10/09 22:36:00 BASE 18.90 26 24.54 25 -4.3 87 -6.2 10 0 969.5 NA 0.0000 -SN BR 9999 3640 4460 0 0
2019/10/09 22:37:00 BASE 18.92 23 24.54 25 -4.3 87 -6.1 10 0 969.4 NA 0.0000 -SN BR 9999 3640 4270 0 0
2019/10/09 22:38:00 BASE 19.64 22 24.54 25 -4.3 87 -6.1 9 0 969.4 NA 0.0000 -SN BR 9999 3610 4300 0 0
2019/10/09 22:39:00 BASE 19.28 25 24.54 25 -4.3 87 -6.1 9 0 969.5 NA 0.0000 -SN BR 9999 3640 0 0 0
2019/10/09 22:40:00 BASE 17.86 30 24.54 25 -4.3 87 -6.1 9 0 969.6 NA 0.0000 -SN BR 9999 3640 0 0 0
2019/10/09 22:41:00 BASE 16.84 29 24.54 25 -4.3 87 -6.1 9 0 969.6 NA 0.0000 -SN 9999 3610 0 0 0
2019/10/09 22:42:00 BASE 17.35 26 23.10 28 -4.3 87 -6.1 8 0 969.5 NA 0.0000 -SN 9999 3670 0 0 0
2019/10/09 22:43:00 BASE 19.69 23 22.48 23 -4.3 87 -6.1 8 0 969.4 NA 0.0000 -SN 9999 3670 0 0 0
2019/10/09 22:44:00 BASE 20.35 22 22.48 23 -4.3 87 -6.1 8 0 969.4 NA 0.0000 -SN 9999 3640 0 0 0
2019/10/09 22:45:00 BASE 19.96 23 22.48 23 -4.3 87 -6.1 7 0 969.5 NA 0.0000 -SN 9999 3610 0 0 0
2019/10/09 22:46:00 BASE 18.67 24 22.48 23 -4.3 87 -6.1 6 0 969.6 NA 0.0000 -SN 9999 3610 0 0 0
2019/10/09 22:47:00 BASE 16.41 25 22.48 23 -4.3 87 -6.1 6 0 969.6 NA 0.0000 9999 3450 0 0 0
2019/10/09 22:48:00 BASE 16.77 24 22.48 23 -4.3 87 -6.1 5 0 969.6 NA 0.0000 9999 3310 0 0 0
2019/10/09 22:49:00 BASE 17.65 26 22.48 23 -4.3 87 -6.1 5 0 968.9 NA 0.0000 9999 3220 0 0 0
2019/10/09 22:50:01 BASE 18.04 27 22.48 23 -4.3 87 -6.2 5 0 969.5 NA 0.0000 9999 3350 0 0 0
2019/10/09 22:51:01 BASE 18.45 26 22.48 23 -4.3 87 -6.2 4 0 969.6 NA 0.0000 9999 3350 0 0 0
2019/10/09 22:52:01 BASE 18.39 26 22.48 23 -4.4 87 -6.2 4 0 969.5 NA 0.0000 9999 3350 0 0 0
2019/10/09 22:53:01 BASE 18.57 28 21.76 24 -4.4 87 -6.2 4 0 969.6 NA 0.0000 9999 3310 0 0 0
2019/10/09 22:54:01 BASE 17.98 30 21.76 24 -4.4 87 -6.2 3 0 969.7 NA 0.0000 9999 3280 0 0 0
2019/10/09 22:55:01 BASE 17.65 31 21.40 40 -4.4 87 -6.2 3 0 969.6 NA 0.0000 9999 3350 0 0 0
2019/10/09 22:56:01 BASE 17.87 29 21.40 40 -4.4 87 -6.2 3 1 969.6 NA 0.0000 9999 3350 0 0 0
2019/10/09 22:57:01 BASE 18.12 28 21.40 40 -4.4 87 -6.2 2 0 969.6 NA 0.0000 9999 3350 0 0 0
2019/10/09 22:58:01 BASE 18.11 28 21.40 40 -4.4 87 -6.2 2 0 969.6 NA 0.0000 9999 3120 0 0 0
2019/10/09 22:59:01 BASE 18.56 30 21.66 32 -4.4 87 -6.2 2 0 969.6 NA 0.0000 9999 3220 0 0 0
2019/10/09 23:00:01 BASE 19.01 32 21.66 32 -4.4 87 -6.2 2 0 969.7 NA 0.0000 9999 3280 0 0 0
2019/10/09 23:01:01 BASE 18.45 31 21.66 32 -4.4 87 -6.2 1 0 969.7 NA 0.0000 9999 2920 0 0 0
2019/10/09 23:02:00 BASE 18.01 29 21.66 32 -4.4 87 -6.2 1 0 969.7 NA 0.0000 9999 2950 0 0 0
2019/10/09 23:03:00 BASE 17.28 27 21.66 32 -4.4 87 -6.2 1 0 969.7 NA 0.0000 9999 3050 0 0 0
2019/10/09 23:04:00 BASE 16.42 29 21.66 32 -4.4 87 -6.2 1 0 969.8 NA 0.0000 9999 2990 0 0 0
2019/10/09 23:05:00 BASE 17.09 33 21.66 32 -4.4 87 -6.2 1 0 969.8 NA 0.0000 9999 2720 0 0 0
2019/10/09 23:06:00 BASE 17.25 34 21.66 32 -4.4 87 -6.2 1 0 969.8 NA 0.0000 9999 2400 0 0 0
2019/10/09 23:07:00 BASE 16.51 31 21.66 32 -4.4 87 -6.2 1 0 969.8 NA 0.0000 9999 2620 0 0 0
2019/10/09 23:08:00 BASE 16.47 31 21.66 32 -4.4 87 -6.2 1 0 969.8 NA 0.0000 9999 2590 0 0 0
2019/10/09 23:09:00 BASE 16.61 30 21.14 24 -4.4 87 -6.2 1 0 969.7 NA 0.0000 9999 2300 0 0 0
2019/10/09 23:10:00 BASE 16.90 27 21.14 24 -4.4 87 -6.2 0 0 969.8 NA 0.0000 9999 2590 0 0 0
2019/10/09 23:11:00 BASE 17.48 27 21.50 27 -4.4 87 -6.2 0 0 969.7 NA 0.0000 9999 2560 0 0 0
2019/10/09 23:12:00 BASE 18.14 30 21.50 27 -4.4 87 -6.2 0 0 969.7 NA 0.0000 9999 2530 0 0 0
2019/10/09 23:13:00 BASE 17.71 34 21.50 27 -4.4 87 -6.3 0 0 969.8 NA 0.0000 9999 2620 0 0 0
2019/10/09 23:14:00 BASE 18.06 33 21.50 27 -4.4 86 -6.3 0 0 969.7 NA 0.0000 9999 2660 0 0 0
2019/10/09 23:15:00 BASE 18.25 32 21.50 27 -4.4 86 -6.3 0 0 969.8 NA 0.0000 9999 2620 0 0 0
2019/10/09 23:16:00 BASE 17.04 29 21.50 27 -4.4 86 -6.3 0 0 969.8 NA 0.0000 9999 2620 0 0 0
2019/10/09 23:17:00 BASE 16.22 27 21.50 27 -4.3 86 -6.3 0 0 969.8 NA 0.0000 9999 2530 0 0 0
2019/10/09 23:18:00 BASE 17.26 30 21.50 27 -4.3 86 -6.4 0 0 969.8 NA 0.0000 9999 2490 0 0 0
2019/10/09 23:19:01 BASE 17.32 33 21.50 27 -4.3 86 -6.4 0 0 969.8 NA 0.0000 9999 2130 0 0 0
2019/10/09 23:20:01 BASE 17.56 30 21.50 27 -4.3 85 -6.4 0 0 969.7 NA 0.0000 9999 2170 0 0 0
2019/10/09 23:21:01 BASE 18.60 28 21.25 30 -4.4 85 -6.5 0 0 969.7 NA 0.0000 9999 2200 0 0 0
2019/10/09 23:22:01 BASE 18.90 29 22.28 25 -4.4 85 -6.5 0 0 969.7 NA 0.0000 9999 2170 0 0 0
2019/10/09 23:23:01 BASE 19.01 28 22.28 25 -4.4 85 -6.5 0 0 969.8 NA 0.0000 9999 2200 0 0 0
2019/10/09 23:24:01 BASE 17.32 30 22.28 25 -4.4 85 -6.6 0 0 969.9 NA 0.0000 9999 2200 0 0 0
2019/10/09 23:25:01 BASE 16.11 30 22.28 25 -4.4 85 -6.6 0 0 969.8 NA 0.0000 9999 2260 0 0 0
2019/10/09 23:26:01 BASE 16.03 29 22.28 25 -4.4 85 -6.6 0 0 969.8 NA 0.0000 9999 2400 0 0 0
2019/10/09 23:27:01 BASE 17.74 27 22.28 25 -4.4 85 -6.6 0 0 969.8 NA 0.0000 9999 2230 0 0 0
2019/10/09 23:28:01 BASE 17.36 28 22.28 25 -4.4 85 -6.6 0 0 969.9 NA 0.0000 9999 2300 0 0 0
2019/10/09 23:29:01 BASE 16.29 32 22.28 25 -4.4 85 -6.5 0 0 969.9 NA 0.0000 9999 2230 0 0 0
2019/10/09 23:30:01 BASE 17.24 31 22.28 25 -4.4 85 -6.6 0 0 969.9 NA 0.0000 9999 2360 0 0 0
2019/10/09 23:31:01 BASE 17.94 33 22.28 25 -4.4 85 -6.6 0 0 969.9 NA 0.0000 9999 2400 0 0 0
2019/10/09 23:32:01 BASE 17.65 30 20.99 33 -4.4 84 -6.7 0 0 969.8 NA 0.0000 9999 2400 0 0 0
2019/10/09 23:33:01 BASE 17.55 27 20.99 33 -4.5 84 -6.7 0 0 969.8 NA 0.0000 9999 2260 0 0 0
2019/10/09 23:34:01 BASE 18.98 28 21.09 29 -4.5 84 -6.8 0 0 969.8 NA 0.0000 9999 2230 0 0 0
2019/10/09 23:35:01 BASE 17.87 28 21.09 29 -4.5 84 -6.8 0 0 969.9 NA 0.0000 9999 2230 0 0 0
2019/10/09 23:36:01 BASE 17.15 29 21.09 29 -4.5 84 -6.8 0 0 969.9 NA 0.0000 9999 2400 0 0 0
2019/10/09 23:37:01 BASE 17.63 26 21.09 29 -4.5 85 -6.7 0 0 969.9 NA 0.0000 9999 2360 0 0 0
2019/10/09 23:38:01 BASE 17.41 27 21.09 29 -4.6 85 -6.7 0 0 969.9 NA 0.0000 9999 2360 0 0 0
2019/10/09 23:39:01 BASE 16.94 33 21.09 29 -4.6 85 -6.7 0 0 970.0 NA 0.0000 9999 2200 0 0 0
2019/10/09 23:40:01 BASE 15.17 32 21.09 29 -4.6 85 -6.7 0 0 969.9 NA 0.0000 9999 2200 0 0 0
2019/10/09 23:41:01 BASE 15.76 28 21.09 29 -4.6 85 -6.7 0 0 969.9 NA 0.0000 9999 2200 0 0 0
2019/10/09 23:42:01 BASE 17.57 27 21.09 29 -4.6 85 -6.7 0 0 969.9 NA 0.0000 9999 2230 0 0 0
2019/10/09 23:43:01 BASE 17.90 25 21.09 29 -4.5 85 -6.7 0 0 969.9 NA 0.0000 9999 2300 0 0 0
2019/10/09 23:44:01 BASE 18.37 25 20.58 21 -4.5 85 -6.7 0 0 969.9 NA 0.0000 9999 2360 0 0 0
2019/10/09 23:45:01 BASE 18.48 24 20.58 21 -4.5 85 -6.7 0 0 969.9 NA 0.0000 9999 2330 0 0 0
2019/10/09 23:46:01 BASE 18.09 23 20.58 21 -4.5 85 -6.7 0 0 969.9 NA 0.0000 9999 2330 0 0 0
2019/10/09 23:47:01 BASE 17.72 21 20.58 21 -4.5 85 -6.7 0 0 969.9 NA 0.0000 9999 2460 0 0 0
2019/10/09 23:48:01 BASE 16.77 22 20.58 21 -4.6 85 -6.7 0 0 970.0 NA 0.0000 9999 2460 0 0 0
2019/10/09 23:49:01 BASE 16.36 26 20.58 21 -4.6 85 -6.7 0 0 970.0 NA 0.0000 9999 2460 0 0 0
2019/10/09 23:50:01 BASE 17.74 25 20.58 21 -4.6 85 -6.7 0 0 969.9 NA 0.0000 9999 2530 0 0 0
2019/10/09 23:51:01 BASE 19.48 23 21.14 20 -4.6 85 -6.7 0 0 969.8 NA 0.0000 9999 2530 0 0 0
2019/10/09 23:52:01 BASE 19.56 22 21.14 20 -4.6 85 -6.7 0 0 969.9 NA 0.0000 9999 2490 0 0 0
2019/10/09 23:53:01 BASE 18.62 24 21.14 20 -4.6 85 -6.7 0 0 969.9 NA 0.0000 9999 2490 0 0 0
2019/10/09 23:54:01 BASE 18.12 26 21.14 20 -4.6 85 -6.7 0 0 969.9 NA 0.0000 9999 2530 0 0 0
2019/10/09 23:55:01 BASE 17.64 23 21.14 17 -4.6 85 -6.7 0 0 969.9 NA 0.0000 9999 2560 0 0 0
2019/10/09 23:56:01 BASE 16.35 23 21.14 17 -4.6 85 -6.7 0 0 970.0 NA 0.0000 9999 2430 0 0 0
2019/10/09 23:57:01 BASE 15.64 24 21.14 17 -4.6 85 -6.7 0 0 970.0 NA 0.0000 9999 2360 0 0 0
2019/10/09 23:58:01 BASE 15.46 24 21.14 17 -4.6 85 -6.7 0 0 970.1 NA 0.0000 9999 2430 0 0 0
2019/10/09 23:59:01 BASE 13.99 25 21.14 17 -4.6 85 -6.7 0 0 970.1 NA 0.0000 9999 2400 0 0 0